     2.11           OBSERVATION DATA    G (GPS)             RINEX VERSION / TYPE
teqc 2010Oct21 OPUS Account 20111027 16:51:28UTC            PGM / RUN BY / DATE
E 1525                                                      MARKER NAME
3013                                                        MARKER NUMBER
CSMIDDLETON NGS                                             OBSERVER / AGENCY
4624K01583 TRIMBLE NETR5 4.41                               REC # / TYPE / VERS
60154430 TRM41249.00 NONE                                   ANT # / TYPE
  -764584.2915 -5541038.5739  3054675.3098                  APPROX POSITION XYZ
        2.0000        0.0000        0.0000                  ANTENNA: DELTA H/E/N
     1     1                                                WAVELENGTH FACT L1/2
     5    L1    L2    C1    P1    P2                        # / TYPES OF OBSERV
    15                                                      LEAP SECONDS
  2011     8    16     0     0    0.0000000     GPS         TIME OF FIRST OBS
                                                            END OF HEADER
 11  8 16  0  0  0.0000000  0  9G02G17G10G04G12G05G09G27G28
 109178496.680 8  85074310.85246  20775960.563                    20775966.320
 118251950.067 7  92144446.139 7  22502588.922                    22502596.777
 111555729.322 8  86926672.63345  21228327.250                    21228335.742
 108848962.548 8  84817639.95046  20713284.648                    20713293.238
 117970184.954 7  91924885.788 7  22448982.547                    22448990.340
 122914143.875 7  95777312.957 6  23389771.672                    23389783.078
 119241386.664 7  92915489.14244  22690895.594                    22690905.363
 121153095.635 7  94405111.61544  23054675.719                    23054686.316
 125906010.516 6  98108598.45343  23959128.156                    23959139.586
 11  8 16  0  0 30.0000000  0  9G02G17G10G04G12G05G09G27G28
 109154030.407 8  85055246.25446  20771304.680                    20771310.496
 118295152.726 7  92178110.536 7  22510809.914                    22510817.992
 111511069.056 8  86891872.46845  21219829.180                    21219837.762
 108909444.665 8  84864768.84946  20724793.961                    20724802.191
 117885778.417 8  91859114.459 7  22432920.875                    22432928.891
 122809802.688 7  95696008.350 6  23369916.023                    23369926.988
 119298911.434 7  92960313.59344  22701841.773                    22701851.770
 121203932.993 7  94444725.08844  23064350.102                    23064360.309
 126004262.163 6  98185158.01043  23977824.844                    23977836.367
 11  8 16  0  1  0.0000000  0  9G02G17G10G04G12G05G09G27G28
 109129920.605 8  85036459.41646  20766716.844                    20766722.840
 118338467.301 7  92211862.118 7  22519052.609                    22519060.684
 111466942.473 8  86857488.16145  21211431.891                    21211440.523
 108970232.158 8  84912135.70746  20736361.852                    20736369.914
 117801617.750 8  91793534.760 7  22416905.633                    22416913.473
 122705545.895 7  95614769.493 6  23350076.969                    23350087.375
 119356845.499 7  93005456.98644  22712866.891                    22712876.625
 121255037.618 7  94484546.81544  23074075.148                    23074084.293
 126102740.393 6  98261894.19643  23996564.328                    23996575.578
 11  8 16  0  1 30.0000000  0  9G02G17G10G04G12G05G09G27G28
 109106166.252 8  85017949.56146  20762196.398                    20762202.680
 118381894.076 7  92245701.138 7  22527316.422                    22527324.598
 111423351.613 8  86823521.29746  21203136.695                    21203145.070
 109031322.161 8  84959738.28746  20747986.734                    20747995.012
 117717705.068 8  91728148.281 7  22400937.469                    22400945.258
 122601376.110 7  95533598.439 7  23330253.188                    23330264.805
 119415185.519 7  93050916.71744  22723968.320                    22723977.762
 121306406.664 7  94524574.58944  23083850.133                    23083860.953
 126201443.190 6  98338805.31943  24015347.375                    24015358.598
 11  8 16  0  2  0.0000000  0  9G02G17G10G04G12G05G09G27G28
 109082767.209 8  84999716.56846  20757743.734                    20757749.559
 118425433.809 7  92279628.173 7  22535601.977                    22535610.336
 111380298.914 8  86789973.77845  21194944.070                    21194951.938
 109092712.534 8  85007574.92546  20759668.711                    20759676.828
 117634043.592 7  91662957.551 7  22385017.539                    22385025.391
 122497296.231 7  95452497.434 6  23310447.719                    23310458.344
 119473928.599 7  93096690.51944  22735147.320                    22735156.813
 121358037.638 7  94564806.45844  23093675.094                    23093685.773
 126300368.784 6  98415890.06943  24034172.180                    24034183.363
 11  8 16  0  2 30.0000000  0  9G02G17G10G04G12G05G09G27G28
 109059722.542 8  84981759.71146  20753358.523                    20753364.387
 118469086.846 7  92313643.515 7  22543908.859                    22543917.289
 111337786.440 8  86756847.22946  21186854.273                    21186862.316
 109154400.583 8  85055643.51646  20771407.781                    20771416.051
 117550635.352 7  91597964.141 7  22369145.188                    22369152.742
 122393309.165 7  95371468.759 6  23290659.305                    23290669.617
 119533071.649 7  93142775.97245  22746401.836                    22746411.711
 121409928.014 7  94605240.44444  23103550.188                    23103560.531
 126399514.972 6  98493146.68643  24053038.609                    24053051.020
 11  8 16  0  3  0.0000000  0  9G02G17G10G04G12G05G09G27G28
 109037031.979 8  84964078.78046  20749040.641                    20749046.211
 118512853.982 8  92347747.748 7  22552237.609                    22552245.582
 111295816.681 8  86724143.55245  21178867.461                    21178875.621
 109216384.294 8  85103942.49546  20783202.711                    20783211.188
 117467483.078 7  91533170.199 7  22353321.938                    22353329.977
 122289417.984 7  95290514.784 6  23270889.695                    23270900.176
 119592611.751 7  93189170.84245  22757731.867                    22757741.281
 121462075.526 7  94645874.81944  23113474.195                    23113484.258
 126498880.245 6  98570574.04543  24071947.719                    24071959.191
 11  8 16  0  3 30.0000000  0  9G02G17G10G04G12G05G09G27G28
 109014694.801 8  84946673.21546  20744789.813                    20744795.766
 118556735.968 7  92381941.490 7  22560588.102                    22560596.500
 111254391.728 8  86691864.40246  21170984.859                    21170993.316
 109278661.412 8  85152470.10346  20795053.852                    20795062.082
 117384589.519 7  91468577.858 7  22337547.922                    22337555.852
 122185625.437 7  95209637.682 6  23251138.664                    23251148.750
 119652545.540 7  93235872.45644  22769136.320                    22769146.379
 121514477.474 7  94686707.43944  23123445.516                    23123455.984
 126598462.420 6  98648170.38343  24090898.500                    24090909.164
 11  8 16  0  4  0.0000000  0  9G02G17G10G04G12G05G09G27G28
 108992709.904 8  84929542.15246  20740606.609                    20740612.254
 118600732.817 8  92416224.728 7  22568959.820                    22568968.570
 111213512.878 8  86660010.80145  21163205.688                    21163214.031
 109341228.904 8  85201223.97646  20806959.664                    20806967.875
 117301956.902 7  91404188.842 7  22321823.266                    22321830.602
 122081934.625 7  95128839.867 7  23231406.758                    23231417.352
 119712869.340 7  93282877.97945  22780615.836                    22780625.902
 121567130.866 7  94727736.01444  23133464.984                    23133474.684
 126698259.165 6  98725933.99643  24109888.719                    24109899.617
 11  8 16  0  4 30.0000000  0  9G02G17G10G04G12G05G09G27G28
 108971077.119 8  84912685.46246  20736489.570                    20736495.418
 118644845.696 7  92450598.376 7  22577354.547                    22577361.996
 111173183.027 8  86628584.98846  21155531.102                    21155539.332
 109404084.752 8  85250202.54146  20818921.086                    20818929.320
 117219588.253 8  91340005.513 7  22306148.828                    22306156.605
 121978348.250 7  95048123.394 6  23211694.117                    23211704.855
 119773580.178 7  93330185.09645  22792168.672                    22792178.750
 121620033.440 7  94768958.70844  23143532.305                    23143542.484
 126798268.852 6  98803863.48143  24128920.227                    24128931.406
 11  8 16  0  5  0.0000000  0  9G02G17G10G04G12G05G09G27G28
 108949796.089 8  84896102.86746  20732440.000                    20732445.613
 118689075.203 7  92485062.909 7  22585771.070                    22585779.145
 111133404.412 8  86597588.69646  21147961.477                    21147969.789
 109467226.848 8  85299404.16546  20830936.367                    20830944.969
 117137486.037 7  91276029.807 7  22290525.445                    22290533.641
 121874869.804 7  94967491.045 6  23192002.781                    23192014.031
 119834675.655 7  93377791.93544  22803795.180                    22803804.879
 121673182.891 7  94810373.78844  23153646.414                    23153656.574
 126898489.620 6  98881957.47843  24147992.148                    24148002.676
 11  8 16  0  5 30.0000000  0  9G02G17G10G04G12G05G09G27G28
 108928865.417 8  84879793.27646  20728456.969                    20728462.934
 118733421.546 7  92519618.472 7  22594209.789                    22594217.891
 111094178.396 8  86567023.01746  21140497.125                    21140505.309
 109530652.300 8  85348826.57046  20843006.172                    20843014.465
 117055652.367 7  91212263.345 7  22274952.867                    22274960.840
 121771501.773 7  94886944.720 7  23172332.711                    23172343.168
 119896151.835 7  93425695.41444  22815493.445                    22815502.883
 121726575.855 7  94851978.64644  23163806.703                    23163816.707
 126998919.065 6  98960214.10843  24167102.719                    24167113.672
 11  8 16  0  6  0.0000000  0  9G02G17G10G04G12G05G09G27G28
 108908285.072 8  84863756.67546  20724540.906                    20724546.523
 118777885.550 7  92554265.744 6  22602671.148                    22602678.801
 111055507.763 8  86536890.10746  21133138.367                    21133146.602
 109594359.325 8  85398468.38846  20855129.211                    20855137.645
 116974090.373 7  91148708.594 7  22259431.719                    22259440.094
 121668247.132 7  94806486.770 6  23152683.750                    23152694.090
 119958006.031 7  93473893.44544  22827263.898                    22827273.797
 121780210.242 7  94893771.59744  23174013.133                    23174023.820
 127099555.798 6  99038632.32942  24186253.281                    24186264.391
 11  8 16  0  6 30.0000000  0  9G02G17G10G04G12G05G09G27G28
 108888054.283 8  84847992.45246  20720690.938                    20720696.426
 118822467.944 7  92589005.234 6  22611154.742                    22611163.066
 111017394.250 8  86507191.29846  21125885.141                    21125893.805
 109658345.289 8  85448327.57046  20867305.422                    20867313.578
 116892802.673 8  91085367.566 7  22243963.406                    22243971.391
 121565109.300 7  94726119.814 6  23133057.391                    23133067.512
 120020234.855 7  93522383.42144  22839105.898                    22839115.102
 121834083.436 7  94935750.64344  23184264.859                    23184274.973
 127200397.495 6  99117210.14943  24205442.734                    24205453.926
 11  8 16  0  7  0.0000000  0  9G02G17G10G04G12G05G09G27G28
 108868172.792 8  84832500.40446  20716907.945                    20716913.492
 118867169.369 7  92623837.484 6  22619661.500                    22619669.453
 110979839.919 8  86477928.22746  21118739.047                    21118747.168
 109722607.927 8  85498402.33146  20879534.078                    20879541.984
 116811791.796 7  91022242.241 7  22228548.078                    22228555.102
 121462091.195 7  94645846.143 7  23113453.422                    23113463.637
 120082835.245 7  93571162.89544  22851018.406                    22851027.379
 121888192.986 7  94977913.84244  23194561.039                    23194571.418
 127301442.548 6  99195946.48842  24224670.828                    24224682.758
 11  8 16  0  7 30.0000000  0  9G02G17G10G04G12G05G09G27G28
 108848639.030 8  84817279.30646  20713190.523                    20713196.219
 118911989.917 7  92658762.564 7  22628190.570                    22628198.629
 110942846.135 8  86449101.94745  21111699.141                    21111707.398
 109787144.617 8  85548690.63646  20891815.094                    20891823.418
 116731060.237 8  90959334.558 7  22213185.141                    22213192.422
 121359195.011 7  94565667.478 6  23093872.883                    23093882.875
 120145803.537 7  93620229.08344  22863000.047                    22863010.598
 121942535.621 7  95020258.69544  23204902.273                    23204912.523
 127402688.311 6  99274839.13942  24243937.586                    24243949.391
 11  8 16  0  8  0.0000000  0  9G02G17G10G04G12G05G09G27G28
 108829452.739 8  84802328.97546  20709539.703                    20709545.266
 118956930.662 7  92693781.311 7  22636742.695                    22636750.402
 110906415.368 8  86420714.37246  21104766.852                    21104774.875
 109851953.206 8  85599190.82446  20904147.703                    20904156.082
 116650610.418 8  90896646.416 7  22197875.633                    22197883.250
 121256424.173 7  94485586.495 6  23074315.508                    23074326.063
 120209137.158 7  93669579.90444  22875052.828                    22875061.813
 121997109.219 7  95062783.49644  23215287.008                    23215298.047
 127504132.918 6  99353886.70443  24263242.461                    24263254.234
 11  8 16  0  8 30.0000000  0  9G02G17G10G04G12G05G09G27G28
 108810613.255 8  84787648.88846  20705954.523                    20705959.789
 119001992.250 7  92728894.197 7  22645317.742                    22645325.988
 110870549.494 8  86392766.96746  21097941.773                    21097949.676
 109917031.391 8  85649901.08646  20916531.891                    20916539.754
 116570444.989 7  90834179.888 7  22182621.102                    22182628.645
 121153781.467 7  94405605.322 6  23054783.820                    23054793.887
 120272832.389 7  93719212.51044  22887172.867                    22887182.941
 122051911.077 7  95105486.14844  23225715.641                    23225727.160
 127605774.832 6  99433088.05743  24282583.953                    24282596.316
 11  8 16  0  9  0.0000000  0  9G02G17G10G04G12G05G09G27G28
 108792119.419 8  84773238.12346  20702435.125                    20702440.516
 119047174.826 7  92764101.364 7  22653915.250                    22653923.547
 110835250.096 8  86365260.97746  21091224.570                    21091232.973
 109982376.381 8  85700819.24546  20928966.742                    20928974.711
 116490566.501 7  90771936.944 7  22167420.641                    22167427.742
 121051269.967 7  94325726.403 6  23035276.227                    23035286.172
 120336886.002 6  93769124.37344  22899362.313                    22899372.879
 122106938.091 7  95148364.25344  23236187.102                    23236198.125
 127707611.437 6  99512441.08343  24301963.055                    24301975.449
 11  8 16  0  9 30.0000000  0  9G02G17G10G04G12G05G09G27G28
 108773971.733 8  84759097.09546  20698981.781                    20698986.977
 119092480.396 7  92799404.387 7  22662536.906                    22662545.258
 110800520.448 8  86338198.95646  21084615.594                    21084623.988
 110047987.189 8  85751944.54446  20941451.477                    20941459.625
 116410978.490 7  90709920.325 7  22152275.195                    22152282.691
 120948893.637 7  94245952.820 6  23015794.117                    23015804.242
 120401295.573 7  93819313.60844  22911618.656                    22911629.199
 122162188.711 7  95191416.60344  23246701.328                    23246712.016
 127809641.790 6  99591945.11843  24321377.688                    24321390.863
 11  8 16  0 10  0.0000000  0  8G02G17G10G04G12G05G09G27
 108756169.457 8  84745225.20846  20695593.977                    20695599.676
 119137908.957 7  92834803.221 7  22671181.445                    22671190.023
 110766362.097 8  86311582.08946  21078115.352                    21078123.441
 110113861.047 8  85803274.81046  20953987.203                    20953995.473
 116331683.339 8  90648131.933 7  22137186.227                    22137193.488
 120846655.285 7  94166286.733 7  22996338.875                    22996348.863
 120466058.133 7  93869777.88944  22923942.555                    22923952.672
 122217660.436 7  95234641.24944  23257257.094                    23257267.367
 11  8 16  0 10 30.0000000  0  8G02G17G10G04G12G05G09G27
 108738711.100 8  84731621.31046  20692271.633                    20692277.273
 119183460.564 7  92870297.929 7  22679849.422                    22679858.063
 110732775.921 8  86285411.07146  21071724.266                    21071732.258
 110179994.900 8  85854807.67146  20966572.258                    20966580.301
 116252683.178 7  90586573.393 7  22122152.703                    22122160.422
 120744557.249 7  94086729.974 6  22976910.219                    22976919.770
 120531169.336 7  93920513.83544  22936332.867                    22936342.957
 122273349.716 6  95278035.40644  23267853.672                    23267865.043
 11  8 16  0 11  0.0000000  0  8G02G17G10G04G12G05G09G27
 108721595.176 8  84718284.24346  20689014.859                    20689020.672
 119229135.507 7  92905888.761 7  22688541.023                    22688549.816
 110699763.624 8  86259687.22646  21065442.000                    21065450.066
 110246386.354 8  85906541.25446  20979205.898                    20979214.301
 116173980.103 7  90525246.360 7  22107175.672                    22107183.766
 120642602.248 7  94007284.677 7  22957508.852                    22957518.977
 120596625.562 7  93971518.65644  22948789.672                    22948799.133
 122329253.485 7  95321596.70644  23278492.813                    23278504.109
 11  8 16  0 11 30.0000000  0  9G02G17G10G04G12G05G09G27G30
 108704821.354 8  84705213.74646  20685822.641                    20685828.277
 119274934.600 7  92941576.329 7  22697256.211                    22697265.008
 110667326.766 8  86234411.78246  21059269.414                    21059277.758
 110313033.096 8  85958473.77046  20991888.758                    20991896.852
 116095576.873 7  90464152.953 7  22092256.438                    22092263.762
 120540793.105 7  93927953.019 7  22938134.773                    22938144.813
 120662423.748 7  94022789.92444  22961310.102                    22961320.555
 122385369.382 6  95365323.30544  23289170.703                    23289182.191
 128075212.20416  99798930.63153  24371909.930                    24371919.059
 11  8 16  0 12  0.0000000  0  9G02G17G10G04G12G05G09G27G30
 108688389.280 8  84692409.54746  20682696.016                    20682701.543
 119320858.785 7  92977361.362 7  22705996.117                    22706004.230
 110635467.498 8  86209586.40645  21053206.641                    21053214.641
 110379933.006 8  86010603.55446  21004619.070                    21004627.117
 116017476.253 7  90403295.368 7  22077394.211                    22077401.914
 120439132.939 7  93848737.475 7  22918789.711                    22918799.676
 120728560.902 7  94074325.28644  22973895.703                    22973905.523
 122441695.056 6  95409213.33844  23299889.461                    23299900.746
 127968968.287 6  99716143.31843  24351691.969                    24351701.469
 11  8 16  0 12 30.0000000  0  9G02G17G10G04G12G05G09G27G30
 108672298.028 8  84679870.92546  20679634.063                    20679639.176
 119366908.616 7  93013244.309 7  22714758.891                    22714767.426
 110604187.922 8  86185212.74446  21047254.563                    21047262.234
 110447083.620 8  86062928.70846  21017397.258                    21017405.359
 115939681.247 7  90342675.910 7  22062590.422                    22062597.555
 120337624.905 7  93769640.462 7  22899472.945                    22899483.035
 120795033.429 7  94126122.01544  22986545.633                    22986554.984
 122498227.675 7  95453264.63544  23310647.930                    23310658.480
 127862877.379 7  99633475.21743  24331504.094                    24331513.316
 11  8 16  0 13  0.0000000  0  9G02G17G10G04G12G05G09G27G30
 108656546.785 8  84667597.25346  20676636.680                    20676642.188
 119413084.535 7  93049225.511 7  22723545.680                    22723554.219
 110573489.198 8  86161291.68246  21041413.016                    21041420.891
 110514482.975 8  86115447.68046  21030223.203                    21030231.535
 115862193.911 7  90282296.190 7  22047845.063                    22047852.637
 120236272.039 7  93690664.356 7  22880186.031                    22880196.039
 120861838.485 7  94178177.82844  22999257.758                    22999267.680
 122554964.543 6  95497475.11943  23321444.344                    23321454.629
 127756942.156 7  99550928.39944  24311345.242                    24311354.066
 11  8 16  0 13 30.0000000  0  9G02G17G10G04G12G05G09G27G30
 108641134.419 8  84655587.62746  20673703.461                    20673709.016
 119459387.131 7  93085305.426 7  22732357.266                    22732364.648
 110543372.972 8  86137824.52445  21035681.922                    21035689.934
 110582127.933 8  86168158.01846  21043095.406                    21043103.680
 115785016.609 7  90222158.068 7  22033158.789                    22033166.039
 120135077.064 7  93611811.260 7  22860929.367                    22860939.477
 120928972.275 7  94230489.78444  23012032.813                    23012043.445
 122611902.516 7  95541842.29244  23332279.297                    23332290.637
 127651164.894 7  99468504.68043  24291215.922                    24291225.512
 11  8 16  0 14  0.0000000  0  9G02G17G10G04G12G05G09G27G30
 108626060.107 8  84643841.42846  20670834.945                    20670840.586
 119505816.847 7  93121484.410 7  22741192.406                    22741200.305
 110513840.748 8  86114812.43546  21030061.883                    21030070.043
 110650016.620 8  86221058.28446  21056014.297                    21056022.418
 115708152.113 8  90162263.678 7  22018531.781                    22018538.977
 120034042.954 7  93533083.532 7  22841703.070                    22841712.840
 120996431.518 7  94283055.36245  23024870.305                    23024880.258
 122669039.105 7  95586364.21944  23343152.055                    23343162.980
 127545548.402 6  99386206.22443  24271118.000                    24271126.887
 11  8 16  0 14 30.0000000  0  9G02G17G10G04G12G05G09G27G30
 108611323.548 8  84632358.41146  20668030.711                    20668036.207
 119552374.723 7  93157763.242 6  22750052.109                    22750060.051
 110484894.652 8  86092257.06746  21024553.805                    21024561.359
 110718146.834 8  86274146.75546  21068979.172                    21068987.313
 115631603.239 8  90102615.223 7  22003965.313                    22003972.164
 119933173.256 7  93454483.904 7  22822507.594                    22822517.742
 121064213.078 7  94335872.11044  23037768.688                    23037779.035
 122726371.939 7  95631039.05844  23354062.703                    23354073.059
 127440095.757 6  99304035.41542  24251050.367                    24251060.141
 11  8 16  0 15  0.0000000  0  9G02G17G10G04G12G05G09G27G30
 108596923.404 8  84621137.53546  20665290.219                    20665296.145
 119599061.047 7  93194142.194 6  22758936.219                    22758944.340
 110456535.906 8  86070159.37145  21019157.344                    21019165.199
 110786515.959 8  86327421.38646  21081989.023                    21081997.551
 115555372.287 8  90043214.509 7  21989458.813                    21989466.449
 119832470.297 7  93376014.203 7  22803344.711                    22803355.016
 121132313.487 7  94388937.27045  23050728.094                    23050738.453
 122783897.918 6  95675864.42144  23365009.109                    23365020.273
 127334809.308 6  99221994.11343  24231014.609                    24231024.344
 11  8 16  0 15 30.0000000  0  9G02G17G10G04G12G05G09G27G30
 108582859.345 8  84610178.54546  20662614.242                    20662620.039
 119645876.852 7  93230622.030 6  22767844.938                    22767852.805
 110428766.656 8  86048521.02546  21013873.273                    21013880.961
 110855122.151 8  86380880.74646  21095044.547                    21095052.355
 115479462.107 7  89984063.736 7  21975013.438                    21975020.844
 119731937.691 7  93297677.238 7  22784213.664                    22784223.430
 121200729.617 7  94442248.45144  23063747.531                    23063757.688
 122841614.859 7  95720838.57744  23375992.336                    23376003.719
 127229692.056 6  99140084.58642  24211011.352                    24211020.867
 11  8 16  0 16  0.0000000  0  9G02G17G10G04G12G05G09G27G30
 108569130.451 8  84599480.72646  20660001.516                    20660007.512
 119692822.538 7  93267203.085 6  22776778.234                    22776786.371
 110401588.155 8  86027342.99646  21008701.266                    21008709.227
 110923962.946 8  86434522.91646  21108144.453                    21108152.863
 115403875.407 8  89925165.046 7  21960629.484                    21960637.617
 119631577.931 7  93219474.954 7  22765116.305                    22765125.551
 121269458.140 7  94495803.07944  23076825.633                    23076835.824
 122899519.908 7  95765959.31244  23387011.953                    23387022.285
 127124746.810 6  99058309.14443  24191041.648                    24191049.797
 11  8 16  0 16 30.0000000  0  9G02G17G10G04G12G05G09G27G30
 108555735.997 8  84589043.51046  20657452.852                    20657458.074
 119739898.797 7  93303885.869 7  22785736.273                    22785745.113
 110375001.921 8  86006626.48446  21003641.758                    21003649.625
 110993036.085 8  86488346.13446  21121288.680                    21121296.879
 115328614.699 7  89866520.362 7  21946308.141                    21946315.465
 119531394.241 7  93141409.858 7  22746051.852                    22746061.395
 121338495.911 7  94549598.64244  23089963.211                    23089973.906
 122957610.170 7  95811224.38244  23398065.828                    23398076.363
 127019976.309 6  98976669.89342  24171104.617                    24171112.496
 11  8 16  0 17  0.0000000  0  9G02G17G10G04G12G05G09G27G30
 108542674.672 8  84578865.87146  20654967.078                    20654972.594
 119787105.942 7  93340670.639 7  22794719.742                    22794728.566
 110349009.141 8  85986372.40446  20998695.688                    20998703.859
 111062339.146 8  86542348.51246  21134476.766                    21134485.059
 115253682.244 8  89808131.465 7  21932048.719                    21932055.805
 119431389.387 7  93063484.127 7  22727021.805                    22727031.004
 121407839.271 7  94603632.33744  23103159.344                    23103169.340
 123015882.917 7  95856631.63844  23409155.328                    23409166.070
 126915383.004 6  98895168.71242  24151200.578                    24151208.793
 11  8 16  0 17 30.0000000  0  9G02G17G10G04G12G05G09G27G30
 108529945.588 8  84568947.12246  20652545.047                    20652550.742
 119834444.727 7  93377557.997 6  22803728.625                    22803736.711
 110323611.182 8  85966581.81846  20993862.531                    20993870.660
 111131869.553 8  86596528.03446  21147708.031                    21147715.918
 115179080.636 7  89750000.350 7  21917852.820                    21917860.035
 119331566.475 7  92985700.169 7  22708025.445                    22708035.332
 121477484.737 7  94657901.45744  23116412.961                    23116422.270
 123074335.387 7  95902178.90944  23420277.711                    23420289.262
 126810969.700 6  98813807.73043  24131331.289                    24131339.910
 11  8 16  0 18  0.0000000  0  9G02G17G10G04G12G05G09G27G30
 108517548.561 8  84559287.12346  20650186.047                    20650191.297
 119881916.028 7  93414548.584 7  22812762.055                    22812770.066
 110298810.119 8  85947256.34546  20989142.789                    20989150.926
 111201625.666 8  86650883.43346  21160981.867                    21160990.285
 115104813.155 7  89692129.630 7  21903719.422                    21903727.789
 119231928.595 7  92908060.383 7  22689064.852                    22689074.293
 121547429.260 7  94712403.63944  23129721.914                    23129732.012
 123132965.042 7  95947864.27344  23431435.172                    23431446.098
 126706739.553 6  98732589.51543  24111496.563                    24111505.555
 11  8 16  0 18 30.0000000  0  9G02G17G10G04G12G05G09G27G30
 108505481.855 8  84549884.51046  20647889.680                    20647895.230
 119929520.060 7  93451642.617 7  22821820.242                    22821828.871
 110274606.704 8  85928396.57146  20984536.766                    20984545.141
 111271604.923 8  86705412.71846  21174298.664                    21174306.715
 115030881.160 8  89634520.310 7  21889651.203                    21889658.293
 119132478.636 7  92830567.043 7  22670140.016                    22670149.664
 121617669.324 7  94767136.05544  23143088.305                    23143098.832
 123191768.924 7  95993685.40044  23442624.922                    23442636.313
 126602694.882 6  98651515.79943  24091697.797                    24091706.645
 11  8 16  0 19  0.0000000  0  9G02G17G10G04G12G05G09G27G30
 108493745.152 8  84540739.05746  20645656.055                    20645661.309
 119977257.620 7  93488840.675 7  22830904.641                    22830912.938
 110251002.779 8  85910003.93046  20980045.117                    20980053.621
 111341805.130 8  86760114.16146  21187657.594                    21187665.398
 114957288.120 8  89577175.115 7  21875646.930                    21875654.039
 119033219.815 7  92753222.608 7  22651251.820                    22651261.367
 121688201.596 7  94822096.19545  23156510.914                    23156520.855
 123250744.622 7  96039640.39944  23453847.938                    23453859.336
 126498838.786 6  98570589.03343  24071935.047                    24071943.934
 11  8 16  0 19 30.0000000  0  9G02G17G10G04G12G05G09G27G30
 108482336.814 8  84531849.46246  20643485.398                    20643490.668
 120025128.965 7  93526142.991 7  22840014.430                    22840023.012
 110227999.086 8  85892078.99646  20975667.641                    20975675.895
 111412223.598 8  86814985.67546  21201057.633                    21201065.520
 114884036.256 7  89520095.786 7  21861707.367                    21861714.996
 118934154.727 7  92676029.160 7  22632400.164                    22632409.563
 121759022.263 7  94877281.07544  23169986.344                    23169997.527
 123309888.728 7  96085726.62043  23465102.750                    23465113.059
 126395173.480 6  98489810.94743  24052208.078                    24052217.387
 11  8 16  0 20  0.0000000  0  9G02G17G10G04G12G05G09G27G30
 108471257.817 8  84523216.49546  20641377.180                    20641382.422
 120073135.930 7  93563550.982 7  22849149.750                    22849158.184
 110205598.339 8  85874623.89646  20971405.313                    20971412.961
 111482859.190 8  86870026.38446  21214499.148                    21214507.098
 114811128.725 7  89463284.755 7  21847833.789                    21847841.039
 118835287.052 7  92598989.534 7  22613586.242                    22613595.898
 121830129.122 7  94932688.94144  23183518.617                    23183528.469
 123369199.841 6  96131942.99744  23476389.391                    23476400.410
 126291703.032 6  98409184.68944  24032517.688                    24032527.418
 11  8 16  0 20 30.0000000  0  9G02G17G10G04G12G05G09G27G30
 108460505.441 8  84514838.04346  20639330.875                    20639336.359
 120121278.298 7  93601064.472 7  22858311.219                    22858319.449
 110183800.661 8  85857638.71446  20967257.258                    20967265.566
 111553708.499 8  86925233.63046  21227981.320                    21227989.426
 114738567.277 7  89406743.401 7  21834025.672                    21834033.059
 118736619.050 7  92522105.494 7  22594810.117                    22594819.859
 121901517.631 7  94988316.28344  23197103.336                    23197113.383
 123428674.139 7  96178286.52744  23487706.758                    23487717.949
 126188429.127 6  98328711.58644  24012865.281                    24012874.973
 11  8 16  0 21  0.0000000  0  9G02G17G10G04G12G05G09G27G30
 108450079.265 8  84506713.76646  20637346.953                    20637352.668
 120169556.590 7  93638683.890 6  22867498.086                    22867506.121
 110162607.738 7  85841124.77346  20963224.070                    20963232.492
 111624769.817 8  86980606.07546  21241503.930                    21241512.008
 114666354.851 8  89350474.009 7  21820284.305                    21820291.762
 118638154.004 7  92445379.619 7  22576072.719                    22576082.441
 121973185.055 7  95044160.98044  23210740.719                    23210750.754
 123488309.248 6  96224755.33744  23499054.516                    23499066.410
 126085354.855 6  98248394.00743  23993251.492                    23993260.652
 11  8 16  0 21 30.0000000  0  9G02G17G10G04G12G05G09G27G30
 108439978.568 8  84498843.11946  20635424.617                    20635430.055
 120217971.315 7  93676409.618 6  22876710.570                    22876719.574
 110142020.811 7  85825083.04246  20959306.797                    20959314.738
 111696040.821 8  87036141.91446  21255065.977                    21255074.438
 114594493.854 8  89294478.469 7  21806609.531                    21806616.945
 118539895.500 7  92368814.675 7  22557374.875                    22557384.348
 122045127.981 6  95100220.33444  23224431.594                    23224442.180
 123548102.285 6  96271347.20343  23510432.008                    23510444.219
 125982483.027 6  98168234.19743  23973674.961                    23973684.484
 11  8 16  0 22  0.0000000  0  9G02G17G10G04G12G05G09G27G30
 108430202.101 8  84491225.10246  20633564.078                    20633569.863
 120266523.499 7  93714242.455 6  22885949.922                    22885958.078
 110122040.891 8  85809514.29246  20955504.227                    20955512.531
 111767519.110 8  87091839.25946  21268668.086                    21268676.434
 114522986.777 8  89238758.698 7  21793001.961                    21793008.824
 118441845.487 7  92292412.180 7  22538716.313                    22538725.367
 122117342.724 7  95156491.49844  23238172.734                    23238184.773
 123608050.406 6  96318059.95044  23521841.016                    23521852.570
 125879816.414 6  98088234.30143  23954137.633                    23954147.051
 11  8 16  0 22 30.0000000  0  9G02G17G10G04G12G05G09G27G30
 108420748.710 8  84483858.84546  20631765.195                    20631770.895
 120315213.437 7  93752182.619 6  22895215.703                    22895223.902
 110102668.653 8  85794419.06646  20951818.211                    20951826.594
 111839202.246 8  87147696.22846  21282309.203                    21282317.598
 114451835.961 8  89183316.530 7  21779462.313                    21779469.723
 118344007.133 7  92216174.614 7  22520098.172                    22520107.641
 122189825.667 7  95212971.63544  23251966.133                    23251977.320
 123668150.636 7  96364891.20443  23533278.055                    23533289.082
 125777357.275 6  98008396.09843  23934640.219                    23934650.395
 11  8 16  0 23  0.0000000  0 10G02G17G10G04G12G05G09G27G30G25
 108411618.240 8  84476744.20646  20630027.844                    20630033.703
 120364041.852 7  93790230.697 7  22904507.469                    22904515.742
 110083906.011 8  85779798.85746  20948247.664                    20948255.496
 111911088.738 8  87203711.66246  21295988.750                    21295996.793
 114381044.581 8  89128154.445 7  21765991.195                    21765998.543
 118246384.034 7  92140104.790 7  22501521.547                    22501530.273
 122262573.981 7  95269658.59444  23265809.953                    23265820.375
 123728400.873 7  96411839.34543  23544743.234                    23544754.129
 125675109.266 6  97928722.38443  23915183.656                    23915192.809
 129574772.98317 100967405.97316  24657266.023                    24657277.918
 11  8 16  0 23 30.0000000  0 10G02G17G10G04G12G05G09G27G30G25
 108402809.499 8  84469880.26646  20628351.820                    20628357.215
 120413009.232 7  93828387.081 7  22913825.813                    22913834.605
 110065754.025 8  85765654.47646  20944793.555                    20944801.504
 111983176.124 8  87259883.64246  21309706.344                    21309714.203
 114310614.946 8  89073274.232 7  21752588.523                    21752596.629
 118148978.547 7  92064204.518 7  22482985.797                    22482994.797
 122335584.241 6  95326549.60744  23279703.367                    23279713.902
 123788798.300 7  96458902.21243  23556236.000                    23556246.961
 125573075.000 6  97849215.21943  23895767.344                    23895776.637
 129471500.264 6 100886933.807 6  24637613.820                    24637625.727
 11  8 16  0 24  0.0000000  0 10G02G17G10G04G12G05G09G27G30G25
 108394321.347 8  84463266.13946  20626736.531                    20626741.715
 120462116.581 7  93866652.515 6  22923170.289                    22923178.738
 110048213.895 8  85751986.86046  20941455.758                    20941463.578
 112055461.829 8  87316210.15045  21323462.188                    21323469.797
 114240549.467 8  89018677.793 7  21739255.969                    21739263.445
 118051793.870 7  91988476.320 7  22464491.594                    22464500.746
 122408852.710 7  95383641.88244  23293646.227                    23293655.168
 123849339.907 7  96506077.37843  23567757.281                    23567768.605
 125471256.988 6  97769876.54843  23876392.250                    23876400.836
 129368331.982 7 100806542.973 6  24617981.875                    24617993.570
 11  8 16  0 24 30.0000000  0 10G02G17G10G04G12G05G09G27G30G25
 108386152.850 8  84456901.09246  20625181.789                    20625187.684
 120511364.029 7  93905027.125 7  22932541.914                    22932550.441
 110031286.405 8  85738796.63746  20938234.711                    20938242.855
 112127943.823 8  87372689.60345  21337254.781                    21337262.668
 114170850.677 8  88964367.080 7  21725992.875                    21726000.164
 117954833.307 7  91912922.751 7  22446040.531                    22446050.012
 122482376.290 7  95440932.95844  23307637.266                    23307647.230
 123910023.041 7  96553362.83344  23579305.148                    23579315.656
 125369658.326 7  97690708.81043  23857058.531                    23857067.695
 129265270.773 6 100726235.580 6  24598370.125                    24598381.676
 11  8 16  0 25  0.0000000  0 10G02G17G10G04G12G05G09G27G30G25
 108378302.811 8  84450784.18646  20623687.867                    20623693.309
 120560752.577 7  93943511.677 6  22941940.242                    22941948.816
 110014972.498 8  85726084.51946  20935130.328                    20935138.141
 112200619.766 7  87429320.18845  21351084.633                    21351092.684
 114101520.829 7  88910343.840 7  21712799.805                    21712806.707
 117858099.511 7  91837545.892 7  22427632.984                    22427642.234
 122556151.205 6  95498419.79044  23321676.094                    23321687.191
 123970844.726 6  96600756.29043  23590878.891                    23590889.379
 125268281.450 7  97611713.84743  23837767.813                    23837775.742
 129162318.898 6 100646013.367 6  24578778.461                    24578790.945
 11  8 16  0 25 30.0000000  0 10G02G17G10G04G12G05G09G27G30G25
 108370770.376 8  84444914.77646  20622254.813                    20622260.277
 120610282.504 7  93982106.399 6  22951365.758                    22951373.793
 109999273.415 8  85713851.49246  20932142.727                    20932150.730
 112273487.723 7  87486100.39245  21364950.656                    21364958.855
 114032562.574 8  88856610.157 7  21699677.266                    21699684.848
 117761595.343 7  91762347.941 7  22409268.773                    22409277.703
 122630174.501 6  95556100.26944  23335762.094                    23335772.641
 124031802.335 7  96648255.65144  23602479.313                    23602489.645
 125167129.446 7  97532894.15244  23818518.867                    23818527.934
 129059478.980 6 100565878.382 6  24559208.211                    24559220.547
 11  8 16  0 26  0.0000000  0 10G02G17G10G04G12G05G09G27G30G25
 108363554.751 8  84439292.22646  20620881.453                    20620887.074
 120659954.603 7  94020811.901 6  22960818.031                    22960826.023
 109984190.440 8  85702098.54446  20929272.492                    20929280.145
 112346545.381 7  87543028.41645  21378853.273                    21378861.496
 113963978.737 8  88803168.224 7  21686626.070                    21686633.586
 117665324.139 7  91687331.524 7  22390948.734                    22390957.684
 122704442.564 6  95613971.41044  23349895.195                    23349905.363
 124092893.168 7  96695858.80143  23614104.234                    23614115.602
 125066205.152 7  97454251.92344  23799313.344                    23799322.656
 128956753.588 6 100485832.646 6  24539660.031                    24539672.273
 11  8 16  0 26 30.0000000  0 10G02G17G10G04G12G05G09G27G30G25
 108356655.374 8  84433916.10446  20619568.742                    20619573.918
 120709769.611 7  94059628.758 6  22970297.258                    22970305.598
 109969724.523 8  85690826.42446  20926519.891                    20926527.531
 112419791.029 8  87600102.92345  21392791.703                    21392799.461
 113895772.064 8  88750020.185 7  21673646.883                    21673654.465
 117569288.741 7  91612498.864 7  22372673.820                    22372682.980
 122778952.302 7  95672030.88144  23364073.664                    23364084.422
 124154114.826 6  96743563.88443  23625754.422                    23625765.789
 124965511.624 6  97375789.49043  23780151.461                    23780160.422
 128854145.500 6 100405878.304 6  24520134.242                    24520146.594
 11  8 16  0 27  0.0000000  0 10G02G17G10G04G12G05G09G27G30G25
 108350070.260 8  84428784.86046  20618315.555                    20618321.020
 120759727.865 7  94098557.229 6  22979804.289                    22979812.957
 109955876.039 8  85680035.41346  20923884.180                    20923892.031
 112493221.733 8  87657321.63245  21406764.797                    21406773.176
 113827944.354 8  88697167.452 7  21660739.547                    21660747.047
 117473491.936 7  91537852.113 7  22354444.250                    22354453.660
 122853699.802 7  95730275.59644  23378297.750                    23378308.535
 124215463.911 7  96791368.30943  23637429.039                    23637439.844
 124865051.126 7  97297508.61544  23761035.344                    23761043.141
 128751656.622 6 100326016.886 6  24500631.813                    24500643.453
 11  8 16  0 27 30.0000000  0 10G02G17G10G04G12G05G09G27G30G25
 108343799.046 8  84423898.21546  20617122.094                    20617127.676
 120809829.930 7  94137597.789 6  22989338.148                    22989346.598
 109942646.157 8  85669726.43646  20921367.055                    20921374.672
 112566835.818 8  87714683.25245  21420773.297                    21420781.324
 113760498.108 8  88644611.948 7  21647904.953                    21647912.492
 117377936.990 7  91463393.830 7  22336260.445                    22336269.500
 122928681.780 7  95788703.07444  23392566.688                    23392577.012
 124276938.004 6  96839270.11043  23649126.867                    23649137.973
 124764826.842 7  97219411.83744  23741963.219                    23741971.422
 128649289.726 6 100246250.553 6  24481152.102                    24481163.711
 11  8 16  0 28  0.0000000  0 10G02G17G10G04G12G05G09G27G30G25
 108337840.081 8  84419254.88046  20615988.406                    20615993.605
 120860076.195 6  94176750.708 7  22998899.922                    22998908.883
 109930035.292 8  85659899.80446  20918967.406                    20918974.961
 112640630.758 8  87772185.77445  21434815.703                    21434823.965
 113693435.634 8  88592355.499 7  21635143.422                    21635150.789
 117282626.340 7  91389125.880 7  22318123.109                    22318132.559
 123003894.811 7  95847310.56144  23406879.234                    23406889.852
 124338534.025 6  96887266.87544  23660848.688                    23660859.926
 124664841.295 6  97141501.10243  23722936.336                    23722945.055
 128547047.127 6 100166581.073 6  24461696.172                    24461707.547
 11  8 16  0 28 30.0000000  0 10G02G17G10G04G12G05G09G27G30G25
 108332192.414 8  84414854.11546  20614913.547                    20614919.070
 120910467.549 7  94216016.675 7  23008488.906                    23008497.184
 109918044.352 8  85650556.23346  20916685.445                    20916693.531
 112714604.245 8  87829827.43645  21448892.430                    21448901.227
 113626759.727 8  88540400.263 7  21622455.164                    21622462.645
 117187562.952 7  91315050.627 7  22300033.344                    22300042.301
 123079335.322 6  95906095.29644  23421235.383                    23421245.359
 124400249.216 6  96935356.55644  23672592.586                    23672603.832
 124565097.188 6  97063778.51843  23703955.188                    23703964.301
 128444931.077 7 100087010.210 6  24442263.758                    24442275.402
 11  8 16  0 29  0.0000000  0 10G02G17G10G04G12G05G09G27G30G25
 108326855.835 8  84410695.75346  20613897.914                    20613903.449
 120961004.824 7  94255396.352 6  23018105.453                    23018114.160
 109906674.877 8  85641696.92746  20914521.922                    20914529.813
 112788754.747 8  87887607.02445  21463002.875                    21463011.469
 113560473.182 8  88488748.443 7  21609841.539                    21609849.355
 117092750.330 7  91241170.761 7  22281991.070                    22281999.891
 123155000.225 7  95965054.89544  23435633.672                    23435644.211
 124462081.305 6  96983537.32243  23684358.570                    23684370.406
 124465598.016 6  96986246.75243  23685020.242                    23685030.590
 128342944.767 7 100007540.461 6  24422857.273                    24422868.359
 11  8 16  0 29 30.0000000  0 10G02G17G10G04G12G05G09G27G30G25
 108321828.776 8  84406778.57946  20612941.344                    20612946.641
 121011688.321 7  94294889.964 6  23027750.094                    23027758.883
 109895927.540 8  85633322.39146  20912476.523                    20912484.207
 112863079.917 8  87945522.72946  21477146.750                    21477155.125
 113494578.294 8  88437401.800 7  21597302.180                    21597309.133
 116998191.447 8  91167488.604 7  22263996.867                    22264005.613
 123230885.992 6  96024186.57044  23450074.547                    23450084.918
 124524027.346 6  97031806.82044  23696146.578                    23696159.016
 124366346.306 6  96908907.85343  23666133.820                    23666143.324
 128241090.502 7  99928173.572 6  24403474.461                    24403486.203
 11  8 16  0 30  0.0000000  0 10G02G17G10G04G12G05G09G27G30G25
 108317110.133 8  84403101.72846  20612043.422                    20612048.777
 121062518.599 7  94334497.948 6  23037423.742                    23037431.832
 109885802.929 8  85625433.10846  20910549.617                    20910557.828
 112937577.464 8  88003572.75245  21491323.016                    21491331.262
 113429077.080 8  88386361.909 7  21584837.445                    21584844.879
 116903888.990 7  91094006.276 7  22246051.953                    22246060.484
 123306989.159 6  96083487.65444  23464556.711                    23464566.363
 124586084.343 7  97080162.83143  23707956.133                    23707967.297
 124267344.758 6  96831763.84643  23647293.492                    23647303.441
 128139370.663 7  99848911.441 6  24384117.828                    24384129.504
 11  8 16  0 30 30.0000000  0 10G02G17G10G04G12G05G09G27G30G25
 108312699.169 8  84399664.62346  20611204.039                    20611209.535
 121113496.417 7  94374220.889 6  23047123.953                    23047133.133
 109876301.530 8  85618029.44646  20908741.555                    20908749.813
 113012245.296 8  88061755.47645  21505531.508                    21505540.641
 113363971.931 8  88335630.664 7  21572448.344                    21572455.777
 116809845.941 7  91020726.088 7  22228155.945                    22228164.691
 123383306.381 7  96142955.57444  23479079.563                    23479089.637
 124648249.713 6  97128603.25443  23719785.297                    23719797.328
 124168596.340 6  96754817.09443  23628503.125                    23628512.520
 128037787.881 6  99769756.070 6  24364787.141                    24364799.230
 11  8 16  0 31  0.0000000  0 10G02G17G10G04G12G05G09G27G30G25
 108308594.650 8  84396466.31246  20610423.000                    20610428.594
 121164622.314 7  94414059.238 6  23056852.766                    23056861.496
 109867424.195 8  85611112.06746  20907052.289                    20907060.105
 113087081.446 8  88120069.33645  21519772.883                    21519780.863
 113299265.764 8  88285210.307 7  21560134.891                    21560142.605
 116716065.150 7  90947650.250 7  22210310.352                    22210318.727
 123459834.271 7  96202587.59644  23493642.594                    23493653.121
 124710520.645 6  97177125.96243  23731635.930                    23731647.699
 124070103.856 6  96678069.82243  23609760.688                    23609770.242
 127936344.667 6  99690709.490 7  24345482.836                    24345495.277
 11  8 16  0 31 30.0000000  0 10G02G17G10G04G12G05G09G27G30G25
 108304795.905 8  84393506.26646  20609700.016                    20609705.258
 121215896.893 7  94454013.456 6  23066610.680                    23066619.039
 109859171.786 8  85604681.64446  20905482.055                    20905489.629
 113162084.056 8  88178512.91845  21534045.375                    21534053.547
 113234961.258 8  88235102.917 7  21547898.484                    21547905.738
 116622549.898 7  90874781.322 7  22192514.063                    22192523.086
 123536569.682 7  96262381.37344  23508244.453                    23508254.785
 124772894.479 6  97225728.83243  23743504.758                    23743517.285
 123971870.536 7  96601524.38943  23591067.688                    23591076.164
 127835043.755 7  99611773.767 7  24326205.695                    24326218.223
 11  8 16  0 32  0.0000000  0 10G02G17G10G04G12G05G09G27G30G25
 108301301.693 8  84390783.51746  20609035.344                    20609040.512
 121267320.689 7  94494083.913 6  23076396.930                    23076404.012
 109851544.748 8  85598738.51646  20904030.563                    20904038.453
 113237250.660 8  88237084.27545  21548349.047                    21548357.574
 113171060.677 8  88185310.292 7  21535738.805                    21535745.523
 116529302.921 7  90802121.436 7  22174769.781                    22174778.691
 123613508.991 7  96322333.98144  23522886.273                    23522896.164
 124835368.554 6  97274409.78443  23755393.195                    23755405.457
 123873898.844 7  96525182.86043  23572424.336                    23572432.402
 127733887.561 7  99532950.801 6  24306956.461                    24306968.320
 11  8 16  0 32 30.0000000  0 10G02G17G10G04G12G05G09G27G30G25
 108298110.349 8  84388296.77646  20608428.008                    20608433.137
 121318894.221 7  94534271.076 6  23086210.594                    23086218.703
 109844543.435 8  85593282.96546  20902698.078                    20902706.020
 113312579.050 8  88295781.70645  21562683.641                    21562691.754
 113107565.852 8  88135833.824 7  21523655.766                    21523663.168
 116436326.995 7  90729672.771 7  22157077.594                    22157086.063
 123690648.365 7  96382442.51844  23537564.516                    23537575.195
 124897939.534 6  97323166.32143  23767300.273                    23767312.168
 123776191.407 7  96449047.23443  23553831.313                    23553840.098
 127632878.415 7  99454242.424 6  24287735.281                    24287747.184
 11  8 16  0 33  0.0000000  0 10G02G17G10G04G12G05G09G27G30G25
 108295221.194 8  84386045.50746  20607878.148                    20607883.590
 121370618.175 7  94574575.445 6  23096053.000                    23096061.227
 109838168.731 7  85588315.69246  20901485.039                    20901492.863
 113388067.313 8  88354603.71545  21577048.336                    21577056.629
 113044479.787 8  88086675.884 7  21511651.063                    21511658.438
 116343625.072 7  90657437.592 7  22139436.641                    22139445.484
 123767984.689 7  96442704.53644  23552281.438                    23552291.633
 124960605.163 6  97371996.58344  23779225.266                    23779237.145
 123678751.296 7  96373119.89443  23535288.836                    23535297.250
 127532019.168 6  99375650.828 6  24268541.945                    24268553.836
 11  8 16  0 33 30.0000000  0 10G02G17G10G04G12G05G09G27G30G25
 108292633.109 8  84384028.83346  20607385.719                    20607390.813
 121422492.912 7  94614997.292 6  23105924.523                    23105933.500
 109832421.224 8  85583837.13146  20900391.688                    20900399.539
 113463713.380 8  88413548.67345  21591443.453                    21591451.941
 112981804.638 7  88037838.127 7  21499724.438                    21499731.887
 116251200.181 7  90585418.298 7  22121848.320                    22121857.238
 123845514.640 7  96503117.41244  23567034.906                    23567045.590
 125023362.529 6  97420898.29043  23791168.297                    23791179.707
 123581581.311 7  96297403.03044  23516798.305                    23516806.516
 127431312.194 6  99297177.915 6  24249378.586                    24249389.418
 11  8 16  0 34  0.0000000  0 10G02G17G10G04G12G05G09G27G30G25
 108290345.212 8  84382246.07446  20606950.156                    20606956.043
 121474519.059 7  94655537.126 6  23115825.016                    23115833.066
 109827301.299 8  85579847.60046  20899417.492                    20899425.047
 113539515.251 8  88472615.04245  21605868.336                    21605876.465
 112919542.583 8  87989322.261 7  21487876.266                    21487883.613
 116159055.363 7  90513617.243 7  22104313.906                    22104322.145
 123923234.853 7  96563678.53544  23581824.352                    23581835.246
 125086209.058 7  97469869.49243  23803127.563                    23803138.828
 123484684.345 7  96221898.92744  23498359.383                    23498367.715
 127330760.190 6  99218825.783 6  24230243.531                    24230255.055
 11  8 16  0 34 30.0000000  0 10G02G17G10G04G12G05G09G27G30G25
 108288356.690 8  84380696.59046  20606571.633                    20606577.023
 121526697.644 7  94696195.746 6  23125753.930                    23125763.109
 109822809.699 8  85576347.67546  20898562.445                    20898570.602
 113615470.836 8  88531801.19145  21620322.063                    21620330.332
 112857696.385 8  87941130.441 7  21476107.297                    21476114.746
 116067193.475 7  90442036.642 7  22086832.961                    22086842.207
 124001141.731 7  96624385.11444  23596650.234                    23596660.711
 125149141.870 7  97518907.98944  23815103.875                    23815114.633
 123388063.386 7  96146609.88744  23479973.008                    23479982.004
 127230365.862 7  99140596.513 6  24211140.508                    24211150.852
 11  8 16  0 35  0.0000000  0 10G02G17G10G04G12G05G09G27G30G25
 108286665.598 8  84379378.87146  20606249.977                    20606255.242
 121579028.578 7  94736973.065 6  23135712.180                    23135720.914
 109818946.350 8  85573337.29046  20897827.508                    20897835.301
 113691577.992 7  88591105.45345  21634804.852                    21634813.395
 112796267.691 8  87893263.951 7  21464417.781                    21464424.836
 115975616.993 7  90370678.450 7  22069407.094                    22069415.504
 124079231.814 6  96685234.48644  23611510.086                    23611519.453
 125212157.748 6  97568011.13944  23827094.563                    23827106.824
 123291720.776 6  96071537.73844  23461639.344                    23461647.949
 127130131.315 7  99062491.761 6  24192065.867                    24192076.215
 11  8 16  0 35 30.0000000  0 10G02G17G10G04G12G05G09G27G30G25
 108285271.225 8  84378292.36446  20605984.391                    20605989.852
 121631512.625 7  94777869.676 6  23145699.570                    23145708.645
 109815712.188 7  85570817.18846  20897212.055                    20897219.820
 113767834.658 8  88650526.20345  21649316.133                    21649324.590
 112735259.442 8  87845725.083 7  21452808.141                    21452815.879
 115884329.179 7  90299545.180 7  22052035.227                    22052043.984
 124157501.904 7  96746224.09844  23626403.930                    23626414.902
 125275254.492 6  97617177.26143  23839101.750                    23839113.434
 123195659.796 6  95996685.07744  23443359.219                    23443368.668
 127030059.463 7  98984513.755 6  24173022.102                    24173032.992
 11  8 16  0 36  0.0000000  0 10G02G17G10G04G12G05G09G27G30G25
 108284172.578 8  84377436.29346  20605775.203                    20605780.430
 121684150.601 7  94818886.262 6  23155716.055                    23155724.742
 109813107.552 7  85568787.62946  20896716.008                    20896723.680
 113844238.895 8  88710061.95145  21663855.063                    21663863.813
 112674674.196 8  87798515.818 7  21441279.117                    21441286.352
 115793333.089 7  90228639.233 7  22034719.000                    22034727.715
 124235948.326 7  96807351.09244  23641333.125                    23641343.098
 125338429.033 6  97666404.11543  23851123.602                    23851134.934
 123099883.187 6  95922054.02144  23425133.477                    23425143.090
 126930152.905 7  98906664.567 6  24154010.875                    24154021.406
 11  8 16  0 36 30.0000000  0 10G02G17G10G04G12G05G09G27G30G25
 108283368.964 8  84376810.11646  20605622.805                    20605627.820
 121736943.073 7  94860023.251 6  23165762.328                    23165770.664
 109811132.720 7  85567248.81046  20896340.398                    20896348.094
 113920788.819 8  88769711.20645  21678422.164                    21678430.590
 112614514.392 8  87751638.052 7  21429831.250                    21429838.242
 115702631.568 7  90157962.829 7  22017459.141                    22017468.133
 124314567.995 7  96868613.11244  23656293.117                    23656303.641
 125401679.138 6  97715689.80043  23863159.250                    23863170.977
 123004394.069 7  95847646.97344  23406962.500                    23406971.355
 126830414.425 7  98828946.353 6  24135030.781                    24135041.332
 11  8 16  0 37  0.0000000  0 10G02G17G10G04G12G05G09G27G30G25
 108282858.774 8  84376412.58346  20605525.344                    20605531.164
 121789890.322 7  94901280.813 6  23175837.711                    23175846.539
 109809788.071 8  85566201.05246  20896084.234                    20896092.098
 113997482.195 8  88829472.25045  21693016.352                    21693025.000
 112554781.803 8  87705093.201 7  21418464.125                    21418471.707
 115612227.477 7  90087518.177 7  22000255.695                    22000264.102
 124393357.459 7  96930007.42044  23671286.586                    23671297.059
 125465001.708 6  97765031.94743  23875209.992                    23875221.738
 122909194.929 7  95773465.86844  23388846.828                    23388855.512
 126730846.381 7  98751360.904 6  24116084.086                    24116094.129
 11  8 16  0 37 30.0000000  0 10G02G17G10G04G12G05G09G27G30G25
 108282641.129 8  84376243.00246  20605483.602                    20605489.664
 121842992.988 7  94942659.504 6  23185942.570                    23185950.816
 109809073.940 8  85565644.61546  20895948.539                    20895956.129
 114074317.090 8  88889343.57245  21707637.781                    21707646.055
 112495479.065 8  87658883.285 7  21407179.703                    21407187.109
 115522123.794 7  90017307.606 7  21983109.070                    21983118.238
 124472313.256 7  96991531.33944  23686311.016                    23686322.102
 125528393.978 6  97814428.45843  23887272.906                    23887284.141
 122814288.863 7  95699513.15244  23370787.094                    23370796.063
 126631451.441 7  98673910.376 6  24097169.516                    24097180.570
 11  8 16  0 38  0.0000000  0 10G02G17G10G04G12G05G09G27G30G25
 108282715.074 8  84376300.63646  20605498.250                    20605503.617
 121896252.052 7  94984160.042 6  23196078.477                    23196085.805
 109808990.556 8  85565579.66846  20895932.508                    20895940.313
 114151291.368 7  88949323.51145  21722285.164                    21722293.605
 112436608.510 8  87613010.146 7  21395976.953                    21395984.031
 115432323.393 7  89947333.367 7  21966021.070                    21966029.863
 124551431.918 6  97053182.17244  23701367.219                    23701378.188
 125591853.320 6  97863877.20143  23899347.867                    23899359.992
 122719678.553 7  95625790.90944  23352783.258                    23352792.250
 126532232.165 7  98596596.725 6  24078289.117                    24078299.480
 11  8 16  0 38 30.0000000  0 10G02G17G10G04G12G05G09G27G30G25
 108283078.991 8  84376584.21646  20605567.297                    20605572.527
 121949667.679 7  95025782.614 6  23206242.914                    23206250.086
 109809538.210 8  85566006.43546  20896036.789                    20896044.781
 114228403.321 7  89009410.73045  21736959.320                    21736967.566
 112378172.431 8  87567475.554 7  21384856.828                    21384863.820
 115342828.963 7  89877597.538 7  21948990.398                    21948999.234
 124630709.932 6  97114957.18143  23716452.688                    23716463.953
 125655376.963 6  97913376.05443  23911436.844                    23911449.211
 122625366.844 7  95552301.35444  23334835.305                    23334844.660
 126433191.182 7  98519421.973 6  24059441.039                    24059452.176
 11  8 16  0 39  0.0000000  0 10G02G17G10G04G12G05G09G27G30G25
 108283731.706 8  84377092.84046  20605691.430                    20605696.902
 122003240.214 7  95067527.427 6  23216437.172                    23216444.930
 109810716.927 7  85566924.93946  20896261.289                    20896268.672
 114305650.768 8  89069603.53045  21751659.055                    21751667.344
 112320172.777 8  87522281.033 7  21373819.750                    21373826.867
 115253643.294 7  89808102.299 7  21932018.789                    21932027.848
 124710143.981 7  97176853.73144  23731568.914                    23731580.254
 125718961.922 6  97962922.63243  23923536.313                    23923548.844
 122531356.629 7  95479046.70344  23316945.953                    23316955.344
 126334331.043 7  98442388.130 6  24040629.438                    24040640.590
 11  8 16  0 39 30.0000000  0 10G02G17G10G04G12G05G09G27G30G25
 108284672.236 8  84377825.72846  20605870.328                    20605876.152
 122056970.428 7  95109395.141 6  23226661.727                    23226669.324
 109812526.805 7  85568335.25946  20896605.656                    20896613.051
 114383031.618 8  89129900.27445  21766383.914                    21766392.242
 112262612.112 8  87477428.582 7  21362866.164                    21362873.734
 115164769.317 7  89738849.939 7  21915106.922                    21915115.305
 124789730.626 7  97238869.22044  23746713.578                    23746725.652
 125782605.483 6  98012514.92543  23935647.781                    23935659.805
 122437650.617 7  95406029.08144  23299115.047                    23299123.898
 126235654.384 7  98365497.256 6  24021851.516                    24021863.457
 11  8 16  0 40  0.0000000  0 10G02G17G10G04G12G05G09G27G30G25
 108285900.065 8  84378782.48346  20606104.031                    20606109.539
 122110858.911 7  95151386.132 6  23236916.352                    23236924.836
 109814968.787 7  85570238.12846  20897070.297                    20897078.426
 114460544.303 8  89190299.75545  21781134.234                    21781142.602
 112205492.919 7  87432920.143 7  21351996.703                    21352004.246
 115076210.301 7  89669843.002 7  21898254.109                    21898263.098
 124869466.871 7  97301001.25044  23761887.445                    23761899.055
 125846305.220 6  98062150.96344  23947770.195                    23947782.160
 122344252.057 7  95333251.03744  23281341.750                    23281350.438
 126137164.146 7  98288751.642 6  24003109.031                    24003121.160
 11  8 16  0 40 30.0000000  0 10G02G17G10G04G12G05G09G27G30G25
 108287413.679 8  84379961.93646  20606392.008                    20606397.410
 122164906.147 7  95193500.853 6  23247201.445                    23247209.754
 109818042.306 8  85572633.10246  20897655.266                    20897662.668
 114538186.557 8  89250800.20045  21795909.055                    21795917.176
 112148817.131 8  87388757.211 7  21341211.695                    21341218.906
 114987968.676 7  89601083.376 7  21881462.531                    21881470.863
 124949349.128 7  97363247.06544  23777088.789                    23777099.324
 125910058.133 6  98111828.48243  23959901.086                    23959913.641
 122251163.405 7  95260714.47244  23263627.273                    23263635.949
 126038862.620 6  98212153.106 6  23984402.766                    23984414.570
 11  8 16  0 41  0.0000000  0 10G02G17G10G04G12G05G09G27G30G25
 108289211.615 8  84381362.93846  20606734.164                    20606739.551
 122219112.772 7  95235739.777 6  23257516.742                    23257524.781
 109821747.633 8  85575520.40046  20898360.047                    20898367.883
 114615956.475 7  89311400.11445  21810708.328                    21810716.258
 112092587.176 7  87344941.675 7  21330511.852                    21330519.277
 114900047.469 7  89532573.434 7  21864732.000                    21864740.109
 125029373.798 6  97425603.89144  23792316.820                    23792328.648
 125973861.52416  98161545.31953  23972042.977                    23972055.145
 122158387.482 7  95188421.60244  23245972.766                    23245981.176
 125940752.481 6  98135703.689 6  23965733.125                    23965745.117
 11  8 16  0 41 30.0000000  0 10G02G17G10G04G12G05G09G27G30G25
 108291292.651 8  84382984.53046  20607130.328                    20607135.703
 122273478.861 7  95278102.951 6  23267862.195                    23267870.535
 109826084.854 8  85578900.07146  20899185.211                    20899193.277
 114693852.221 8  89372098.09345  21825531.477                    21825539.668
 112036805.117 8  87301475.165 7  21319896.453                    21319903.922
 114812449.420 7  89464315.310 7  21848062.375                    21848070.477
 125109537.409 7  97488068.91344  23807571.563                    23807582.352
 126037712.668 6  98211299.28943  23984193.023                    23984205.250
 122065927.101 7  95116374.59844  23228377.688                    23228386.832
 125842836.293 6  98059405.396 6  23947099.719                    23947112.355
 11  8 16  0 42  0.0000000  0 10G02G17G10G04G12G05G09G27G30G25
 108293656.123 8  84384826.20746  20607579.930                    20607585.188
 122328005.343 7  95320591.089 6  23278238.008                    23278246.738
 109831054.120 8  85582772.24246  20900131.414                    20900138.910
 114771871.734 8  89432892.49545  21840377.984                    21840386.297
 111981473.211 8  87258359.422 7  21309367.305                    21309374.852
 114725177.358 7  89396311.189 7  21831455.086                    21831463.289
 125189836.781 6  97550639.77544  23822851.531                    23822863.742
 126101608.721 6  98261088.33243  23996352.047                    23996364.328
 121973785.209 6  95044575.78344  23210843.602                    23210852.570
 125745116.836 7  97983260.412 6  23928504.617                    23928516.117
 11  8 16  0 42 30.0000000  0 10G02G17G10G04G12G05G09G27G30G25
 108296300.686 8  84386886.91446  20608083.109                    20608088.352
 122382692.429 7  95363204.379 7  23288644.477                    23288653.863
 109836655.468 8  85587136.93346  20901197.086                    20901204.609
 114850012.929 8  89493781.71745  21855247.867                    21855256.313
 111926594.121 8  87215596.516 7  21298924.133                    21298931.559
 114638234.129 7  89328563.311 7  21814910.117                    21814918.199
 125270268.658 7  97613313.85644  23838157.820                    23838169.277
 126165547.299 6  98310910.45943  24008520.742                    24008532.559
 121881964.653 7  94973027.33544  23193370.664                    23193379.652
 125647596.746 7  97907270.746 6  23909947.539                    23909958.695
 11  8 16  0 43  0.0000000  0 10G02G17G10G04G12G05G09G27G30G25
 108299225.157 8  84389165.73346  20608639.836                    20608645.270
 122437540.797 7  95405943.347 7  23299081.359                    23299090.984
 109842888.547 7  85591993.90046  20902383.461                    20902390.879
 114928274.093 8  89554764.42245  21870140.516                    21870148.961
 111872169.288 7  87173187.575 7  21288567.344                    21288574.758
 114551622.425 7  89261073.759 7  21798427.875                    21798436.336
 125350829.472 7  97676088.47044  23853487.375                    23853498.664
 126229525.372 6  98360763.38643  24020694.492                    24020706.527
 121790468.093 6  94901731.38043  23175960.047                    23175968.363
 125550278.486 7  97831438.388 6  23891429.336                    23891440.207
 11  8 16  0 43 30.0000000  0 10G02G17G10G04G12G05G09G27G30G25
 108302428.230 8  84391661.64446  20609249.250                    20609254.473
 122492550.901 7  95448808.314 6  23309549.633                    23309558.340
 109849753.060 8  85597342.88046  20903689.602                    20903697.109
 115006653.146 8  89615838.99545  21885055.523                    21885063.398
 111818200.950 8  87131134.345 7  21278297.539                    21278304.660
 114465344.928 7  89193844.622 7  21782010.250                    21782018.504
 125431515.764 6  97738960.78944  23868842.734                    23868852.809
 126293539.809 6  98410644.66743  24032876.352                    24032888.543
 121699298.289 6  94830689.99944  23158610.313                    23158618.371
 125453164.670 7  97755765.339 6  23872948.852                    23872959.891
 11  8 16  0 44  0.0000000  0 10G02G17G10G04G12G05G09G27G30G25
 108305908.887 8  84394373.85346  20609911.461                    20609916.434
 122547723.422 6  95491799.886 6  23320048.648                    23320057.855
 109857249.482 8  85603184.26246  20905116.109                    20905124.172
 115085148.332 8  89677004.04445  21899992.563                    21900000.895
 111764691.719 8  87089438.876 7  21268114.875                    21268122.500
 114379404.489 7  89126878.124 7  21765656.352                    21765664.672
 125512324.503 6  97801928.54644  23884219.008                    23884231.000
 126357588.248 6  98460552.41443  24045064.883                    24045076.215
 121608458.218 6  94759905.57844  23141324.125                    23141332.883
 125356258.106 7  97680253.800 6  23854508.219                    23854519.078
 11  8 16  0 44 30.0000000  0 10G02G17G10G04G12G05G09G27G30G25
 108309666.224 8  84397301.66246  20610626.328                    20610632.102
 122603058.675 7  95534918.254 6  23330578.797                    23330587.773
 109865377.575 8  85609517.84746  20906662.391                    20906670.363
 115163757.904 8  89738258.24245  21914951.211                    21914960.023
 111711643.728 8  87048102.804 7  21258020.289                    21258027.473
 114293804.241 8  89060176.713 7  21749367.172                    21749375.016
 125593252.212 7  97864988.99044  23899619.453                    23899630.961
 126421668.322 6  98510484.79743  24057258.055                    24057270.465
 121517950.836 7  94689380.42644  23124100.969                    23124109.766
 125259561.583 7  97604905.905 6  23836107.023                    23836117.406
 11  8 16  0 45  0.0000000  0 10G02G17G10G04G12G05G09G27G30G25
 108313699.495 8  84400444.48646  20611393.984                    20611399.691
 122658557.545 7  95578164.106 6  23341140.078                    23341148.762
 109874137.756 8  85616343.97346  20908329.500                    20908337.078
 115242480.032 8  89799600.13545  21929931.906                    21929940.438
 111659059.644 8  87007128.212 7  21248013.945                    21248021.063
 114208547.312 7  88993742.827 7  21733142.953                    21733151.395
 125674295.695 7  97928139.69743  23915041.352                    23915052.535
 126485777.186 6  98560439.64443  24069457.539                    24069470.289
 121427779.218 7  94619116.88744  23106942.211                    23106951.211
 125163077.948 7  97529723.896 6  23817747.234                    23817758.270
 11  8 16  0 45 30.0000000  0 10G02G17G10G04G12G05G09G27G30G25
 108318006.076 8  84403800.27846  20612213.414                    20612218.828
 122714220.158 7  95621537.560 6  23351731.555                    23351741.551
 109883528.568 8  85623661.50346  20910116.539                    20910123.680
 115321312.126 8  89861027.71945  21944933.266                    21944941.461
 111606940.111 8  86966515.609 7  21238096.055                    21238103.086
 114123635.524 7  88927577.875 7  21716984.664                    21716993.051
 125755451.067 7  97991377.55544  23930485.719                    23930495.949
 126549911.562 7  98610414.37543  24081663.313                    24081674.418
 121337945.197 7  94549116.39044  23089847.898                    23089856.434
 125066808.992 7  97454709.196 6  23799427.898                    23799438.746
 11  8 16  0 46  0.0000000  0 10G02G17G10G04G12G05G09G27G30G25
 108322585.368 8  84407368.56846  20613085.094                    20613090.184
 122770046.851 7  95665038.885 6  23362355.508                    23362364.496
 109893550.576 8  85631470.86846  20912023.828                    20912031.305
 115400252.973 8  89922540.04245  21959954.844                    21959963.820
 111555288.173 8  86926267.367 7  21228266.961                    21228274.008
 114039071.912 7  88861684.230 7  21700892.992                    21700901.340
 125836715.303 7  98054700.27044  23945949.477                    23945960.637
 126614069.061 6  98660407.07943  24093870.516                    24093883.930
 121248452.148 7  94479381.61844  23072817.219                    23072826.367
 124970757.857 7  97379864.215 6  23781149.664                    23781159.836
 11  8 16  0 46 30.0000000  0 10G02G17G10G04G12G05G09G27G30G25
 108327437.007 8  84411149.07746  20614008.195                    20614013.773
 122826038.607 7  95708668.827 6  23373010.492                    23373019.145
 109904203.907 8  85639772.18346  20914050.859                    20914058.664
 115479300.861 7  89984135.77145  21974997.664                    21975005.746
 111504106.501 8  86886385.565 7  21218527.297                    21218534.621
 113954859.886 7  88796064.544 7  21684867.898                    21684876.230
 125918085.306 7  98118105.37344  23961433.789                    23961444.023
 126678247.455 6  98710416.12543  24106084.414                    24106096.809
 121159303.282 7  94409915.02444  23055852.328                    23055861.359
 124874927.600 7  97305191.362 6  23762913.492                    23762924.203
 11  8 16  0 47  0.0000000  0 10G02G17G10G04G12G05G09G27G30G25
 108332559.410 8  84415140.57446  20614982.719                    20614988.504
 122882195.747 7  95752427.651 6  23383697.336                    23383705.133
 109915488.282 8  85648565.21746  20916197.898                    20916205.723
 115558453.775 8  90045813.36345  21990059.656                    21990067.809
 111453396.452 8  86846871.256 7  21208877.492                    21208884.770
 113871001.773 7  88730720.650 7  21668909.820                    21668918.246
 125999557.439 7  98181590.08143  23976937.438                    23976947.758
 126742443.740 6  98760439.06844  24118301.117                    24118313.410
 121070501.070 7  94340718.53944  23038954.281                    23038962.648
 124779320.645 7  97230692.500 6  23744720.820                    23744731.219
 11  8 16  0 47 30.0000000  0 10G02G17G10G04G12G05G09G27G30G25
 108337951.241 8  84419342.02446  20616008.813                    20616014.000
 122938518.667 7  95796315.634 6  23394414.914                    23394422.957
 109927403.008 8  85657849.43446  20918465.469                    20918472.980
 115637709.940 7  90107571.38645  22005141.383                    22005149.844
 111403160.255 8  86807726.189 7  21199318.078                    21199324.902
 113787500.273 8  88665654.613 7  21653019.961                    21653028.352
 126081128.467 7  98245151.85443  23992459.789                    23992469.852
 126806655.072 6  98810473.73543  24130519.578                    24130532.941
 120982048.181 7  94271794.26544  23022122.094                    23022131.234
 124683939.490 7  97156369.616 6  23726569.398                    23726580.555
 11  8 16  0 48  0.0000000  0 10G02G17G10G04G12G05G09G27G30G25
 108343611.141 8  84423752.35446  20617085.766                    20617091.613
 122995007.817 7  95840333.134 6  23405164.891                    23405172.008
 109939947.826 7  85667624.64146  20920852.727                    20920860.516
 115717067.320 8  90169408.28045  22020242.836                    22020250.996
 111353399.873 7  86768951.873 7  21189848.578                    21189855.945
 113704357.848 7  88600868.375 7  21637198.906                    21637206.609
 126162795.018 7  98308788.06843  24007999.891                    24008011.621
 126870878.765 6  98860518.00643  24142740.695                    24142753.309
 120893947.380 7  94203144.32244  23005357.063                    23005365.793
 124588786.765 7  97082224.717 6  23708462.352                    23708473.152
 11  8 16  0 48 30.0000000  0 10G02G17G10G04G12G05G09G27G30G25
 108349538.222 8  84428370.86546  20618213.914                    20618219.652
 123051663.797 7  95884480.673 6  23415945.602                    23415952.996
 109953122.459 8  85677890.60546  20923359.984                    20923367.531
 115796524.270 8  90231322.75845  22035363.094                    22035371.180
 111304117.366 8  86730549.935 7  21180470.508                    21180477.516
 113621577.426 8  88536364.226 7  21621445.891                    21621453.941
 126244553.757 7  98372496.09244  24023558.867                    24023569.871
 126935112.188 6  98910569.86143  24154964.453                    24154976.848
 120806201.662 7  94134771.07244  22988659.719                    22988668.695
 124493865.312 7  97008260.023 6  23690398.297                    23690409.914
 11  8 16  0 49  0.0000000  0 10G02G17G10G04G12G05G09G27G30G25
 108355731.275 8  84433196.63846  20619392.258                    20619397.859
 123108486.941 7  95928758.494 6  23426758.773                    23426766.254
 109966926.638 8  85688647.12646  20925986.625                    20925994.301
 115876079.020 8  90293313.42945  22050502.031                    22050510.172
 111255315.117 8  86692522.225 7  21171183.781                    21171191.199
 113539161.884 8  88472144.393 7  21605762.695                    21605770.520
 126326401.536 6  98436273.51143  24039134.414                    24039144.887
 126999352.732 6  98960627.35842  24167188.641                    24167200.832
 120718813.705 7  94066676.58444  22972029.992                    22972039.148
 124399177.777 7  96934477.598 6  23672380.492                    23672391.352
 11  8 16  0 49 30.0000000  0 10G02G17G10G04G12G05G09G27G30G25
 108362189.108 8  84438228.73146  20620621.195                    20620626.594
 123165477.927 7  95973167.068 6  23437603.859                    23437611.445
 109981359.840 8  85699893.79046  20928733.320                    20928740.672
 115955729.553 8  90355378.76145  22065658.781                    22065667.289
 111206995.124 8  86654870.294 7  21161988.859                    21161995.871
 113457113.891 8  88408210.972 7  21590149.828                    21590157.750
 126408334.869 7  98500117.58343  24054726.227                    24054736.320
 127063597.626 6  99010688.27643  24179414.711                    24179426.535
 120631786.241 7  93998863.02744  22955469.023                    22955477.781
 124304726.784 7  96860879.504 7  23654406.984                    23654418.965
 11  8 16  0 50  0.0000000  0 10G02G17G10G04G12G05G09G27G30G25
 108368910.344 8  84443466.06846  20621900.305                    20621905.523
 123222636.966 7  96017706.577 6  23448480.453                    23448488.688
 109996421.488 8  85711630.15946  20931599.422                    20931607.047
 116035474.089 8  90417517.32045  22080834.086                    22080842.391
 111159159.393 8  86617595.707 7  21152885.867                    21152893.039
 113375436.045 7  88344565.955 7  21574606.523                    21574614.914
 126490350.402 7  98564025.76943  24070332.211                    24070342.859
 127127844.079 6  99060750.32243  24191639.727                    24191652.809
 120545122.084 7  93931332.54044  22938977.813                    22938986.281
 124210514.887 7  96787467.717 7  23636479.023                    23636490.563
 11  8 16  0 50 30.0000000  0 10G02G17G10G04G12G05G09G27G30G25
 108375894.073 8  84448907.95346  20623229.352                    20623234.637
 123279964.617 7  96062377.472 6  23459389.469                    23459397.871
 110012111.444 8  85723856.12146  20934585.000                    20934592.488
 116115311.119 7  90479727.97045  22096026.383                    22096034.816
 111111809.546 8  86580699.749 7  21143875.672                    21143882.617
 113294131.292 7  88281211.686 7  21559134.953                    21559142.926
 126572444.987 6  98627995.53443  24085954.070                    24085965.746
 127192089.644 6  99110811.58243  24203865.930                    24203878.336
 120458824.123 7  93864087.40344  22922555.594                    22922564.109
 124116545.062 7  96714244.541 6  23618596.680                    23618608.664
 11  8 16  0 51  0.0000000  0 10G02G17G10G04G12G05G09G27G30G25
 108383138.678 8  84454553.10946  20624607.875                    20624612.855
 123337461.111 7  96107179.905 6  23470330.977                    23470339.777
 110028428.628 8  85736570.83846  20937689.898                    20937698.289
 116195238.561 7  90542009.06645  22111236.563                    22111244.070
 111064947.608 8  86544183.964 7  21134957.820                    21134965.246
 113213201.969 8  88218149.941 7  21543734.297                    21543742.680
 126654615.099 6  98692024.05243  24101591.148                    24101602.801
 127256331.354 6  99160869.91443  24216090.117                    24216103.035
 120372894.805 7  93797129.52444  22906203.883                    22906212.227
 124022819.601 7  96641211.764 6  23600762.430                    23600773.031
 11  8 16  0 51 30.0000000  0 10G02G17G10G04G12G05G09G27G30G25
 108390643.544 8  84460401.06546  20626035.961                    20626041.340
 123395127.102 7  96152114.450 6  23481304.813                    23481312.836
 110045373.030 8  85749774.27146  20940914.250                    20940922.059
 116275254.975 7  90604359.49445  22126462.609                    22126471.016
 111018575.650 8  86508049.980 7  21126133.781                    21126140.816
 113132650.792 8  88155382.870 7  21528406.180                    21528414.105
 126736857.734 6  98756109.07343  24117241.000                    24117252.191
 127320566.758 6  99210923.36143  24228314.172                    24228327.430
 120287337.173 7  93730461.27944  22889922.375                    22889931.082
 123929341.421 7  96568371.662 6  23582973.609                    23582984.680
 11  8 16  0 52  0.0000000  0 10G02G17G10G04G12G05G09G27G30G25
 108398407.005 8  84466450.52446  20627513.398                    20627518.344
 123452963.037 6  96197181.374 6  23492310.641                    23492319.434
 110062943.996 8  85763465.95146  20944258.039                    20944265.770
 116355358.404 7  90666777.72745  22141706.023                    22141714.578
 110972695.803 8  86472299.471 7  21117402.984                    21117410.484
 113052480.705 8  88092912.737 7  21513150.008                    21513158.004
 126819169.390 7  98820248.00643  24132905.195                    24132916.047
 127384793.138 6  99260969.76143  24240536.281                    24240548.609
 120202153.782 7  93664084.66844  22873712.898                    22873721.379
 123836113.079 7  96495726.253 6  23565233.563                    23565244.371
 11  8 16  0 52 30.0000000  0 10G02G17G10G04G12G05G09G27G30G25
 108406428.213 8  84472700.83146  20629039.586                    20629045.145
 123510969.365 7  96242381.103 6  23503349.016                    23503357.176
 110081141.125 8  85777645.55746  20947720.977                    20947728.266
 116435547.286 7  90729262.54945  22156964.953                    22156973.645
 110927310.035 8  86436933.953 7  21108766.328                    21108773.285
 112972694.227 8  88030741.538 7  21497967.531                    21497975.309
 126901546.841 6  98884438.18943  24148580.219                    24148592.137
 127449007.892 6  99311006.98943  24252755.969                    24252768.488
 120117347.603 7  93598001.97244  22857574.813                    22857583.270
 123743137.498 7  96423277.793 6  23547540.453                    23547551.082
 11  8 16  0 53  0.0000000  0 10G02G17G10G04G12G05G09G27G30G25
 108414705.885 8  84479150.97846  20630614.859                    20630619.813
 123569146.408 7  96287713.863 6  23514419.344                    23514428.355
 110099963.842 8  85792312.61746  20951302.602                    20951309.836
 116515819.715 7  90791812.46845  22172240.844                    22172249.129
 110882419.948 8  86401954.687 7  21100223.969                    21100231.340
 112893293.609 8  87968870.993 7  21482857.563                    21482866.082
 126983986.801 6  98948676.97643  24164268.305                    24164280.113
 127513208.210 6  99361033.05443  24264974.219                    24264985.957
 120032921.284 7  93532215.29544  22841509.078                    22841517.914
 123650417.109 7  96351028.166 6  23529896.172                    23529907.191
 11  8 16  0 53 30.0000000  0 10G02G17G10G04G12G05G09G27G30G25
 108423238.674 8  84485799.91546  20632238.555                    20632243.945
 123627494.586 7  96333179.980 6  23525522.695                    23525530.855
 110119411.219 8  85807466.44146  20955003.391                    20955010.953
 116596174.134 7  90854426.27545  22187531.641                    22187539.707
 110838027.638 8  86367363.280 7  21091776.578                    21091783.836
 112814281.855 8  87907303.460 7  21467822.141                    21467830.008
 127066486.177 6  99012962.04244  24179968.195                    24179979.305
 127577391.290 6  99411045.73843  24277187.594                    24277199.559
 119948877.428 7  93466726.63444  22825515.953                    22825524.422
 123557954.639 7  96278979.535 6  23512301.305                    23512311.930
 11  8 16  0 54  0.0000000  0 10G02G17G10G04G12G05G09G27G30G25
 108432025.570 8  84492646.85946  20633910.391                    20633916.020
 123686014.533 7  96378779.916 6  23536658.672                    23536667.742
 110139482.562 8  85823106.45846  20958822.820                    20958830.469
 116676608.559 7  90917102.42345  22202837.875                    22202845.785
 110794134.967 8  86333161.224 7  21083424.125                    21083430.895
 112735661.566 8  87846040.951 7  21452861.219                    21452869.129
 127149041.584 6  99077290.82743  24195677.508                    24195689.574
 127641554.796 6  99461043.17843  24289397.195                    24289409.098
 119865218.763 7  93401538.11144  22809596.055                    22809604.313
 123465752.788 7  96207133.986 6  23494755.289                    23494766.430
 11  8 16  0 54 30.0000000  0 10G02G17G10G04G12G05G09G27G30G25
 108441065.422 8  84499690.91046  20635630.875                    20635635.852
 123744706.530 7  96424513.937 6  23547827.203                    23547835.324
 110160177.484 8  85839232.38946  20962761.023                    20962768.395
 116757121.913 7  90979840.08245  22218159.305                    22218167.223
 110750744.208 8  86299350.258 7  21075166.906                    21075174.063
 112657435.331 8  87785085.505 7  21437975.086                    21437983.418
 127231649.736 6  99141660.70043  24211397.766                    24211409.082
 127705696.325 6  99511023.44043  24301603.414                    24301614.840
 119781948.324 7  93336652.11144  22793750.484                    22793758.898
 123373814.342 7  96135493.676 6  23477259.828                    23477270.914
 11  8 16  0 55  0.0000000  0 10G02G17G10G04G12G05G09G27G30G25
 108450356.874 8  84506931.00546  20637398.867                    20637404.180
 123803570.745 7  96470382.153 6  23559028.586                    23559037.141
 110181495.164 8  85855843.58346  20966817.273                    20966825.152
 116837712.146 7  91042637.65945  22233494.992                    22233503.473
 110707856.840 8  86265931.551 7  21067005.820                    21067013.055
 112579605.835 8  87724439.213 7  21423164.305                    21423172.602
 127314307.519 6  99206069.27643  24227127.180                    24227137.961
 127769812.869 6  99560984.24943  24313804.086                    24313816.898
 119699068.591 7  93272070.54544  22777978.570                    22777987.109
 123282141.979 7  96064060.695 6  23459815.781                    23459826.414
 11  8 16  0 55 30.0000000  0 10G02G17G10G04G12G05G09G27G30G25
 108459898.500 8  84514366.04946  20639214.688                    20639220.074
 123862607.943 7  96516385.170 6  23570263.602                    23570271.848
 110203434.853 8  85872939.46346  20970992.102                    20971000.184
 116918377.404 7  91105493.68345  22248845.203                    22248853.313
 110665474.517 8  86232906.387 7  21058940.656                    21058947.809
 112502175.323 8  87664103.809 7  21408430.523                    21408438.355
 127397011.250 7  99270513.65943  24242865.109                    24242876.309
 127833901.751 6  99610923.42643  24325999.250                    24326012.738
 119616582.125 7  93207795.43044  22762282.055                    22762290.531
 123190738.110 7  95992836.926 6  23442421.945                    23442432.402
 11  8 16  0 56  0.0000000  0 10G02G17G10G04G12G05G09G27G30G25
 108469689.135 8  84521995.12546  20641077.547                    20641082.922
 123921818.462 7  96562523.204 6  23581530.305                    23581539.488
 110225995.745 8  85890519.38846  20975285.867                    20975293.492
 116999115.921 7  91168406.79645  22264209.281                    22264217.566
 110623599.039 8  86200276.160 7  21050972.023                    21050978.824
 112425146.314 8  87604081.273 7  21393771.680                    21393779.840
 127479757.805 6  99334991.37943  24258611.289                    24258623.410
 127897960.309 6  99660839.01043  24338190.227                    24338202.395
 119534491.671 7  93143828.89144  22746660.555                    22746669.375
 123099605.563 7  95921824.598 7  23425079.781                    23425091.289
 11  8 16  0 56 30.0000000  0 10G02G17G10G04G12G05G09G27G30G25
 108479727.997 8  84529817.62846  20642988.078                    20642993.406
 123981202.606 7  96608796.526 6  23592831.609                    23592839.813
 110249176.851 8  85908582.60546  20979696.758                    20979704.547
 117079926.391 7  91231375.97745  22279586.836                    22279595.121
 110582232.820 8  86168042.759 7  21043100.336                    21043107.207
 112348521.957 8  87544374.041 7  21379190.719                    21379198.641
 127562544.347 7  99399500.23343  24274364.602                    24274376.172
 127961986.221 6  99710729.15943  24350373.672                    24350386.898
 119452800.185 7  93080173.22444  22731115.188                    22731124.078
 123008747.183 7  95851025.928 7  23407790.141                    23407801.367
 11  8 16  0 57  0.0000000  0 10G02G17G10G04G12G05G09G27G30G25
 108490013.539 8  84537832.33846  20644945.414                    20644950.945
 124040760.867 7  96655205.552 6  23604164.781                    23604173.867
 110272977.492 8  85927128.56546  20984225.961                    20984233.887
 117160807.253 7  91294400.01345  22294978.055                    22294986.250
 110541377.626 8  86136207.563 7  21035325.547                    21035332.949
 112272304.311 8  87484983.725 7  21364687.063                    21364694.918
 127645367.325 6  99464037.54743  24290125.625                    24290137.203
 128025976.594 6  99760591.58543  24362551.523                    24362563.770
 119371510.106 7  93016830.33244  22715646.086                    22715654.566
 122918165.399 7  95780442.788 7  23390553.117                    23390563.844
 11  8 16  0 57 30.0000000  0 10G02G17G10G04G12G05G09G27G30G25
 108500544.577 8  84546038.34946  20646949.523                    20646954.590
 124100493.222 7  96701750.239 6  23615531.758                    23615540.781
 110297396.688 8  85946156.51846  20988872.852                    20988880.660
 117241756.482 7  91357477.31745  22310382.094                    22310390.684
 110501034.072 8  86104771.053 7  21027649.063                    21027655.445
 112196495.955 8  87425912.338 7  21350260.953                    21350269.102
 127728223.722 6  99528600.86344  24305893.172                    24305904.855
 128089928.791 6  99810424.26843  24374720.898                    24374734.023
 119290624.066 7  92953802.28344  22700253.828                    22700262.363
 122827862.983 7  95710077.319 6  23373369.477                    23373380.109
 11  8 16  0 58  0.0000000  0 10G02G17G10G04G12G05G09G27G30G25
 108511320.017 8  84554434.80546  20648999.656                    20649004.941
 124160400.365 7  96748431.090 6  23626931.344                    23626940.227
 110322433.775 8  85965665.95746  20993637.461                    20993645.156
 117322772.668 7  91420606.80845  22325799.141                    22325807.516
 110461204.542 8  86073735.081 7  21020069.703                    21020076.461
 112121099.619 8  87367162.022 7  21335913.625                    21335921.711
 127811110.107 6  99593187.55244  24321665.672                    24321677.566
 128153840.298 6  99860225.26643  24386883.383                    24386895.836
 119210144.812 7  92891091.20244  22684939.664                    22684947.832
 122737842.589 7  95639931.627 7  23356238.438                    23356249.566
 11  8 16  0 58 30.0000000  0 10G02G17G10G04G12G05G09G27G30G25
 108522338.874 8  84563020.92646  20651096.758                    20651102.070
 124220482.833 6  96795248.580 6  23638365.211                    23638373.352
 110348087.934 8  85985656.21546  20998519.156                    20998526.254
 117403854.268 7  91483787.27245  22341228.734                    22341236.527
 110421891.210 8  86043101.339 7  21012588.359                    21012595.336
 112046117.519 8  87308734.467 7  21321644.664                    21321652.793
 127894023.419 6  99657795.19444  24337443.719                    24337456.309
 128217708.563 6  99909992.54743  24399037.414                    24399050.258
 119130075.084 7  92828699.20744  22669702.797                    22669710.891
 122648106.944 7  95570007.822 7  23339162.867                    23339173.625
 11  8 16  0 59  0.0000000  0 10G02G17G10G04G12G05G09G27G30G25
 108533599.701 8  84571795.60846  20653239.594                    20653244.680
 124280740.745 7  96842202.806 6  23649831.141                    23649840.223
 110374357.969 8  86006126.38946  21003518.328                    21003525.602
 117484999.516 7  91547017.32845  22356669.852                    22356678.008
 110383095.781 8  86012871.159 7  21005205.750                    21005212.594
 111971552.335 8  87250631.788 7  21307455.422                    21307463.316
 127976960.630 6  99722421.42543  24353226.578                    24353238.305
 128281530.814 6  99959724.05043  24411182.109                    24411195.762
 119050417.503 7  92766628.40745  22654544.523                    22654553.020
 122558658.676 7  95500307.915 6  23322141.281                    23322151.504
 11  8 16  0 59 30.0000000  0 10G02G17G10G04G12G05G09G27G30G25
 108545101.277 8  84580757.87146  20655428.102                    20655433.297
 124341174.742 6  96889294.215 6  23661331.078                    23661340.004
 110401243.049 8  86027075.81846  21008634.242                    21008641.184
 117566206.853 7  91610295.77245  22372122.984                    22372131.230
 110344819.701 8  85983045.663 7  20997922.336                    20997928.863
 111897406.329 8  87192855.743 7  21293345.992                    21293353.824
 128059918.186 7  99787063.58243  24369012.820                    24369024.578
 128345304.616 5 100009417.62942  24423317.164                    24423331.070
 118971174.776 7  92704880.84744  22639464.602                    22639473.219
 122469500.557 7  95430834.091 6  23305174.703                    23305185.082
 11  8 16  1  0  0.0000000  0 10G02G17G10G04G12G05G09G27G30G25
 108556842.372 8  84589906.77946  20657662.516                    20657668.039
 124401784.839 7  96936522.861 6  23672865.422                    23672873.547
 110428742.217 8  86048503.75446  21013867.180                    21013874.590
 117647474.907 7  91673621.52945  22387587.922                    22387595.824
 110307064.281 8  85953625.869 7  20990737.172                    20990744.051
 111823682.136 8  87135408.394 7  21279316.953                    21279324.441
 128142893.101 6  99851719.27343  24384802.703                    24384813.566
 128409027.323 6 100059071.55142  24435443.961                    24435456.094
 118892349.364 7  92643458.47144  22624464.984                    22624473.105
 122380635.075 7  95361588.323 6  23288263.789                    23288274.727
 11  8 16  1  0 30.0000000  0 10G02G17G10G04G12G05G09G27G30G25
 108568822.295 8  84599241.78946  20659942.273                    20659947.520
 124462571.658 6  96983889.187 6  23684433.164                    23684441.641
 110456854.710 8  86070409.61946  21019216.352                    21019224.238
 117728802.080 7  91736993.35744  22403063.578                    22403072.160
 110269831.773 8  85924613.547 7  20983652.352                    20983659.133
 111750382.625 8  87078291.938 7  21265368.375                    21265376.059
 128225882.451 6  99916386.24943  24400595.047                    24400606.211
 128472696.366 6 100108683.58943  24447559.898                    24447572.535
 118813944.121 7  92582363.50144  22609544.742                    22609553.355
 122292065.214 7  95292572.896 6  23271409.930                    23271420.156
 11  8 16  1  1  0.0000000  0 10G02G17G10G04G12G05G09G27G30G25
 108581039.141 8  84608761.41646  20662266.641                    20662272.039
 124523535.280 7  97031393.288 6  23696034.477                    23696042.555
 110485578.942 8  86092792.15346  21024682.508                    21024690.129
 117810186.619 7  91800409.88344  22418550.641                    22418559.145
 110233123.706 8  85896009.874 7  20976667.250                    20976673.719
 111677509.402 8  87021507.670 7  21251500.977                    21251508.586
 128308882.641 6  99981061.60243  24416389.313                    24416401.188
 128536309.354 6 100158251.95443  24459665.922                    24459678.766
 118735961.522 7  92521597.87244  22594705.164                    22594713.695
 122203793.399 7  95223789.695 7  23254612.281                    23254622.832
 11  8 16  1  1 30.0000000  0 10G02G17G10G04G12G05G09G27G30G25
 108593491.674 8  84618464.69246  20664636.469                    20664641.785
 124584676.125 7  97079035.478 6  23707668.578                    23707677.395
 110514913.885 8  86115650.55746  21030264.625                    21030272.211
 117891626.909 7  91863869.86045  22434048.453                    22434056.301
 110196941.429 8  85867815.917 7  20969781.891                    20969789.016
 111605065.501 8  86965057.942 7  21237715.625                    21237722.855
 128391890.540 6 100045742.98243  24432185.250                    24432196.926
 128599863.590 6 100207774.62543  24471759.492                    24471772.332
 118658404.105 7  92461163.52745  22579946.656                    22579954.852
 122115822.218 7  95155240.764 6  23237872.211                    23237882.496
 11  8 16  1  2  0.0000000  0  9G02G17G10G04G12G05G09G30G25
 108606178.968 8  84628350.90146  20667050.875                    20667056.254
 124645994.610 7  97126816.109 6  23719337.492                    23719345.781
 110544858.571 8  86138984.11246  21035962.586                    21035970.676
 117973121.498 7  91927372.13945  22449556.313                    22449564.957
 110161286.604 8  85840032.948 7  20962996.469                    20963003.824
 111533053.086 8  86908944.429 7  21224011.750                    21224019.641
 128474903.162 6 100110428.00443  24447981.914                    24447993.523
 118581274.393 7  92401062.49744  22565268.859                    22565277.219
 122028154.378 7  95086928.186 6  23221188.953                    23221199.563
 11  8 16  1  2 30.0000000  0  9G02G17G10G04G12G05G09G30G25
 108619100.169 8  84638419.37646  20669509.797                    20669515.020
 124707491.134 6  97174735.450 6  23731038.813                    23731048.008
 110575412.193 8  86162792.14546  21041777.063                    21041784.523
 118054669.006 7  91990915.65645  22465074.344                    22465082.859
 110126161.293 8  85812662.602 7  20956312.500                    20956319.883
 111461474.827 8  86853169.219 7  21210390.578                    21210398.027
 128557917.595 6 100175114.48543  24463779.484                    24463791.371
 118504575.325 7  92341297.03544  22550674.156                    22550682.477
 121940792.808 7  95018854.255 6  23204564.688                    23204575.570
 11  8 16  1  3  0.0000000  0  9G02G17G10G04G12G05G09G30G25
 108632253.587 8  84648668.80646  20672012.648                    20672018.129
 124769165.782 6  97222793.586 6  23742775.445                    23742784.309
 110606573.328 8  86187073.56846  21047707.039                    21047714.477
 118136267.729 7  92054499.08044  22480601.742                    22480610.391
 110091566.545 8  85785705.662 7  20949729.258                    20949736.320
 111390332.747 8  86797733.892 7  21196852.945                    21196860.469
 128640930.306 6 100239799.60942  24479575.703                    24479587.445
 118428309.166 7  92281868.88244  22536161.336                    22536169.332
 121853739.848 7  94951020.826 6  23187999.070                    23188009.695
 11  8 16  1  3 30.0000000  0  9G02G17G10G04G12G05G09G30G25
 108645638.375 8  84659098.52446  20674559.914                    20674565.082
 124831019.415 6  97270991.205 6  23754545.438                    23754554.320
 110638340.842 8  86211827.49146  21053751.875                    21053759.992
 118217916.434 7  92118121.44644  22496139.258                    22496147.660
 110057504.290 8  85759163.668 7  20943247.617                    20943254.535
 111319629.491 8  86742640.511 7  21183398.570                    21183406.289
 128723938.405 5 100304481.07243  24495370.852                    24495383.945
 118352478.704 7  92222780.25944  22521730.773                    22521739.258
 121766998.494 7  94883430.190 6  23171492.898                    23171503.691
 11  8 16  1  4  0.0000000  0  9G02G17G10G04G12G05G09G30G25
 108659252.988 8  84669707.32246  20677150.313                    20677156.281
 124893051.729 6  97319328.068 6  23766350.031                    23766359.492
 110670713.266 8  86237052.75846  21059912.563                    21059919.609
 118299613.201 7  92181781.26844  22511685.125                    22511693.617
 110023975.666 8  85733037.471 7  20936867.398                    20936874.426
 111249367.336 8  86687890.829 7  21170027.938                    21170035.652
 128806938.370 6 100369156.20643  24511167.336                    24511178.535
 118277086.334 7  92164033.00544  22507384.391                    22507392.285
 121680571.028 7  94816084.147 6  23155046.203                    23155056.660
 11  8 16  1  4 30.0000000  0  9G02G17G10G04G12G05G09G30G25
 108673096.611 8  84680494.57546  20679784.828                    20679790.391
 124955263.270 6  97367804.565 6  23778188.570                    23778198.078
 110703689.657 8  86262748.67046  21066187.844                    21066195.215
 118381356.779 7  92245477.54844  22527240.352                    22527248.660
 109990982.793 8  85707328.754 7  20930589.086                    20930595.699
 111179548.547 8  86633486.632 7  21156741.797                    21156749.766
 128889927.443 6 100433822.86944  24526959.242                    24526971.875
 118202134.681 7  92105629.15645  22493121.289                    22493129.527
 121594460.349 7  94748984.941 6  23138659.953                    23138669.992
 11  8 16  1  5  0.0000000  0  9G02G17G10G04G12G05G09G30G25
 108687167.788 8  84691459.13546  20682462.508                    20682467.668
 125017654.130 6  97416420.802 6  23790061.211                    23790070.281
 110737268.688 8  86288914.16646  21072577.578                    21072585.316
 118463145.659 7  92309209.15044  22542804.422                    22542812.438
 109958526.441 8  85682038.102 7  20924412.758                    20924419.660
 111110175.649 8  86579429.897 7  21143540.758                    21143548.313
 128972902.381 6 100498478.54643  24542748.422                    24542760.848
 118127626.152 7  92047570.63144  22478942.242                    22478951.148
 121508668.965 7  94682134.538 6  23122334.414                    23122344.902
 11  8 16  1  5 30.0000000  0  9G02G17G10G04G12G05G09G30G25
 108701465.363 8  84702600.11346  20685183.188                    20685188.543
 125080224.804 6  97465177.196 6  23801968.367                    23801976.984
 110771449.267 8  86315548.38946  21079081.891                    21079089.875
 118544978.475 7  92372974.95944  22558377.078                    22558384.996
 109926608.288 8  85657166.824 7  20918338.750                    20918345.941
 111041250.738 8  86525722.231 7  21130424.383                    21130431.734
 129055860.244 6 100563120.88843  24558535.609                    24558546.996
 118053563.393 7  91989859.44045  22464849.094                    22464857.668
 121423199.617 7  94615535.079 6  23106069.797                    23106080.570
 11  8 16  1  6  0.0000000  0  9G02G17G10G04G12G05G09G30G25
 108715988.269 8  84713916.67846  20687946.672                    20687952.035
 125142975.477 6  97514073.843 6  23813908.758                    23813918.570
 110806229.894 8  86342650.18846  21085700.578                    21085707.918
 118626853.733 7  92436773.84645  22573957.352                    22573966.348
 109895229.991 8  85632716.213 7  20912367.742                    20912374.926
 110972776.272 8  86472365.551 7  21117393.859                    21117401.422
 129138797.822 6 100627747.45043  24574317.906                    24574329.027
 117979948.938 7  91932497.57445  22450840.602                    22450848.961
 121338054.929 7  94549188.609 6  23089866.719                    23089877.863
 11  8 16  1  6 30.0000000  0  9G02G17G10G04G12G05G09G30G25
 108730734.990 8  84725407.64746  20690752.750                    20690758.047
 125205906.476 6  97563110.996 6  23825884.547                    23825893.395
 110841609.075 8  86370218.39346  21092432.906                    21092440.105
 118708769.745 7  92500604.49445  22589545.102                    22589554.328
 109864392.677 8  85608687.158 7  20906499.563                    20906506.773
 110904754.259 8  86419361.447 7  21104450.359                    21104457.840
 129221712.004 7 100692355.79943  24590096.727                    24590108.176
 117906784.948 7  91875486.72945  22436917.547                    22436925.996
 121253237.293 7  94483096.990 6  23073726.961                    23073737.625
 11  8 16  1  7  0.0000000  0  9G02G17G10G04G12G05G09G30G25
 108745704.355 8  84737072.09746  20693601.430                    20693606.617
 125269018.091 6  97612288.904 6  23837894.617                    23837903.520
 110877585.556 8  86398252.02246  21099279.031                    21099286.406
 118790725.429 7  92564466.05745  22605141.156                    22605150.277
 109834098.141 8  85585081.051 7  20900734.766                    20900741.648
 110837187.100 8  86366711.768 7  21091592.289                    21091599.781
 129304599.770 6 100756943.54643  24605869.188                    24605881.684
 117834074.296 7  91818829.12445  22423081.852                    22423090.316
 121168749.732 7  94417262.571 6  23057649.578                    23057659.367
 11  8 16  1  7 30.0000000  0  9G02G17G10G04G12G05G09G30G25
 108760895.339 8  84748909.24846  20696492.609                    20696497.285
 125332310.534 6  97661607.717 6  23849939.094                    23849947.797
 110914158.064 8  86426750.08746  21106238.211                    21106246.180
 118872718.925 7  92628357.08144  22620743.500                    22620752.855
 109804347.582 8  85561898.812 7  20895073.336                    20895080.063
 110770076.896 8  86314418.166 7  21078821.531                    21078828.707
 129387457.937 6 100821508.20443  24621636.297                    24621648.945
 117761819.189 7  91762526.50345  22409331.266                    22409339.512
 121084594.588 7  94351687.180 6  23041635.234                    23041645.695
 11  8 16  1  8  0.0000000  0  9G02G17G10G04G12G05G09G30G25
 108776306.740 8  84760918.14746  20699425.172                    20699430.309
 125395783.976 6  97711067.559 6  23862017.406                    23862026.230
 110951325.143 8  86455711.46346  21113311.211                    21113318.641
 118954749.146 7  92692276.72644  22636353.836                    22636362.223
 109775142.093 8  85539141.298 7  20889515.836                    20889523.133
 110703426.259 8  86262482.657 7  21066138.531                    21066145.953
 129470283.616 6 100886047.55943  24637397.648                    24637410.465
 117690022.314 7  91706580.92544  22395669.344                    22395677.020
 121000774.640 7  94286372.976 6  23025684.711                    23025695.629
 11  8 16  1  8 30.0000000  0  9G02G17G10G04G12G05G09G30G25
 108791937.433 8  84773097.91946  20702399.609                    20702404.848
 125459438.902 6  97760668.815 6  23874130.555                    23874138.902
 110989084.995 8  86485134.74345  21120496.570                    21120504.102
 119036814.506 7  92756223.77244  22651970.164                    22651978.766
 109746483.296 8  85516809.782 7  20884062.320                    20884069.059
 110637237.354 8  86210906.941 7  21053542.977                    21053550.676
 129553073.775 6 100950559.22443  24653152.297                    24653164.273
 117618685.921 7  91650994.17045  22382094.281                    22382102.297
 120917292.399 7  94221321.944 7  23009798.938                    23009809.242
 11  8 16  1  9  0.0000000  0  9G02G17G10G04G12G05G09G30G25
 108807786.009 8  84785447.47646  20705415.438                    20705420.238
 125523275.266 6  97810411.484 6  23886278.305                    23886286.363
 111027436.391 8  86515018.94246  21127794.539                    21127801.762
 119118913.651 7  92820197.16044  22667593.195                    22667601.625
 109718372.444 8  85494905.243 7  20878713.000                    20878719.816
 110571511.973 8  86159692.400 7  21041036.047                    21041043.574
 129635825.263 6 101015040.76143  24668899.789                    24668912.414
 117547812.538 7  91595768.18545  22368607.586                    22368615.191
 120834150.513 7  94156536.108 6  22993977.477                    22993988.184
 11  8 16  1  9 30.0000000  0  9G02G17G10G04G12G05G09G30G25
 108823851.348 8  84797965.93146  20708472.391                    20708477.656
 125587293.384 6  97860295.714 6  23898460.734                    23898468.914
 111066378.154 8  86545363.18745  21135205.148                    21135212.652
 119201045.324 7  92884195.86744  22683222.297                    22683231.176
 109690810.882 8  85473428.720 7  20873468.133                    20873474.988
 110506252.444 8  86108840.882 7  21028617.430                    21028625.023
 129718535.240 6 101079489.95243  24684639.031                    24684651.379
 117477404.497 7  91540904.82144  22355209.117                    22355217.281
 120751351.580 7  94092017.529 7  22978221.438                    22978231.703
 11  8 16  1 10  0.0000000  0  9G02G17G10G04G12G05G09G30G25
 108840132.505 8  84810652.55546  20711570.469                    20711575.484
 125651493.522 6  97910321.831 6  23910677.305                    23910685.941
 111105908.649 8  86576166.18246  21142727.305                    21142735.141
 119283208.138 7  92948218.82044  22698857.266                    22698866.742
 109663800.393 8  85452381.606 7  20868328.125                    20868334.703
 110441460.950 8  86058354.058 7  21016287.695                    21016295.473
 129801200.630 6 101143904.41543  24700369.633                    24700382.090
 117407464.340 7  91486406.04045  22341900.164                    22341908.563
 120668898.293 7  94027768.258 7  22962531.039                    22962540.879
 11  8 16  1 10 30.0000000  0  9G02G17G10G04G12G05G09G30G25
 108856628.170 8  84823506.33146  20714709.805                    20714714.695
 125715876.031 6  97960490.041 6  23922928.586                    23922937.633
 111146026.360 8  86607426.74346  21150361.656                    21150368.941
 119365400.774 7  93012265.00344  22714498.305                    22714507.090
 109637341.469 8  85431764.278 7  20863293.016                    20863299.848
 110377139.922 8  86008233.830 7  21004048.039                    21004055.813
 129883818.032 6 101208281.42843  24716091.648                    24716103.813
 117337994.441 7  91432273.70545  22328680.086                    22328688.590
 120586793.226 7  93963790.325 6  22946907.297                    22946916.523
 11  8 16  1 11  0.0000000  0  9G02G17G10G04G12G05G09G30G25
 108873336.983 8  84836526.19846  20717889.086                    20717894.059
 125780440.995 6  98010800.413 6  23935214.461                    23935223.969
 111186729.630 8  86639143.58845  21158106.875                    21158114.492
 119447621.570 7  93076333.13844  22730144.219                    22730153.000
 109611435.335 8  85411577.708 7  20858363.031                    20858369.926
 110313290.972 8  85958481.464 7  20991897.906                    20991905.309
 129966384.893 6 101272619.13543  24731802.961                    24731815.895
 117268997.041 7  91378509.51945  22315550.938                    22315558.805
 120505038.791 7  93900085.613 6  22931349.422                    22931359.480
 11  8 16  1 11 30.0000000  0  9G02G17G10G04G12G05G09G30G25
 108890257.993 8  84849711.40946  20721108.984                    20721114.277
 125845188.766 6  98061253.230 6  23947535.375                    23947544.906
 111228017.140 8  86671315.67946  21165963.781                    21165971.195
 119529869.482 7  93140422.39345  22745795.563                    22745804.230
 109586083.723 8  85391823.227 7  20853539.078                    20853545.961
 110249916.988 8  85909099.184 7  20979837.734                    20979845.676
 130048898.075 6 101336914.93343  24747505.297                    24747518.406
 117200474.811 7  91325115.60345  22302510.945                    22302519.000
 120423637.907 7  93836656.400 7  22915859.109                    22915869.285
 11  8 16  1 12  0.0000000  0  9G02G17G10G04G12G05G09G30G25
 108907390.287 8  84863061.25746  20724369.367                    20724374.023
 125910119.561 6  98111848.668 6  23959891.820                    23959900.703
 111269886.876 8  86703941.46046  21173931.313                    21173938.652
 119612143.136 7  93204531.74044  22761451.688                    22761459.742
 109561287.829 8  85372501.770 7  20848820.484                    20848827.797
 110187019.597 8  85860088.289 7  20967869.086                    20967876.336
 130131354.648 6 101401166.68943  24763196.602                    24763209.387
 117132430.101 7  91272093.78745  22289562.750                    22289570.289
 120342593.129 7  93773504.675 7  22900437.242                    22900447.879
 11  8 16  1 12 30.0000000  0  9G02G17G10G04G12G05G09G30G25
 108924732.008 8  84876574.30046  20727669.188                    20727674.594
 125975233.301 6  98162586.680 6  23972282.727                    23972291.414
 111312337.249 8  86737019.68245  21182009.289                    21182016.887
 119694441.054 7  93268659.99144  22777112.508                    22777121.063
 109537048.335 8  85353613.879 7  20844207.727                    20844214.523
 110124600.754 8  85811450.277 7  20955991.383                    20955998.652
 130213751.389 6 101465371.85343  24778876.055                    24778888.465
 117064865.003 7  91219445.67345  22276705.656                    22276713.484
 120261906.817 7  93710632.276 7  22885082.633                    22885093.152
 11  8 16  1 13  0.0000000  0  9G02G17G10G04G12G05G09G30G25
 108942282.512 8  84890250.02246  20731008.938                    20731014.109
 126040530.602 6  98213467.706 6  23984708.563                    23984717.277
 111355366.968 8  86770549.33746  21190197.625                    21190205.410
 119776762.126 7  93332806.30144  22792777.188                    22792786.004
 109513366.804 8  85335160.751 7  20839701.492                    20839708.230
 110062662.731 8  85763186.944 7  20944204.875                    20944212.012
 130296085.434 6 101529528.15443  24794543.398                    24794555.703
 116997781.875 8  91167173.13745  22263940.344                    22263948.266
 120181581.665 7  93648041.279 6  22869797.414                    22869807.301
 11  8 16  1 13 30.0000000  0  9G02G17G10G04G12G05G09G30G25
 108960040.541 8  84904087.46146  20734388.164                    20734393.492
 126106011.394 6  98264491.730 6  23997169.078                    23997177.625
 111398974.147 8  86804528.96645  21198495.680                    21198503.281
 119859104.852 7  93396969.48644  22808446.836                    22808455.691
 109490244.488 8  85317143.388 7  20835301.094                    20835308.480
 110001207.564 8  85715299.854 7  20932510.148                    20932517.516
 130378354.049 6 101593633.43443  24810198.727                    24810211.801
 116931183.213 7  91115278.10345  22251267.359                    22251274.629
 120101620.242 7  93585733.708 7  22854581.086                    22854591.172
 11  8 16  1 14  0.0000000  0  9G02G17G10G04G12G05G09G30G25
 108978005.067 8  84918085.80646  20737806.742                    20737812.047
 126171675.763 6  98315658.810 6  24009664.781                    24009672.945
 111443156.999 8  86838957.18046  21206903.250                    21206910.629
 119941468.170 7  93461148.69644  22824120.320                    22824128.805
 109467682.252 8  85299562.436 7  20831007.750                    20831014.957
 109940237.233 8  85667790.556 7  20920907.664                    20920915.375
 130460554.266 6 101657685.34243  24825839.820                    24825854.016
 116865071.244 7  91063762.31645  22238686.148                    22238693.551
 120022025.156 7  93523711.603 7  22839434.602                    22839444.840
 11  8 16  1 14 30.0000000  0  9G02G17G10G04G12G05G09G30G25
 108996174.484 8  84932243.80346  20741264.297                    20741269.543
 126237523.924 6  98366969.076 6  24022194.594                    24022203.500
 111487913.762 8  86873832.58845  21215420.414                    21215428.004
 120023850.640 7  93525342.83144  22839796.977                    22839805.781
 109445680.912 8  85282418.553 7  20826820.898                    20826828.105
 109879753.753 8  85620660.628 7  20909398.102                    20909405.691
 130542682.916 6 101721681.55143  24841470.063                    24841483.090
 116799448.097 7  91012627.43645  22226198.094                    22226206.426
 119942798.779 7  93461976.818 7  22824358.344                    22824369.105
 11  8 16  1 15  0.0000000  0  9G02G17G10G04G12G05G09G30G25
 109014547.779 8  84946560.66546  20744760.641                    20744765.367
 126303555.942 6  98418422.622 6  24034760.258                    24034768.918
 111533242.857 7  86909153.97046  21224046.250                    21224053.512
 120106250.887 7  93589550.80644  22855477.289                    22855485.660
 109424241.763 8  85265712.738 7  20822741.594                    20822748.574
 109819759.115 8  85573911.609 7  20897981.758                    20897988.758
 130624737.318 6 101785619.90143  24857083.914                    24857097.656
 116734316.141 7  90961875.27945  22213804.016                    22213812.156
 119863943.837 7  93400531.439 7  22809353.031                    22809362.809
 11  8 16  1 15 30.0000000  0  8G02G17G10G04G12G05G30G25
 109033125.716 8  84961036.98546  20748295.992                    20748300.957
 126369773.828 7  98470021.037 6  24047361.070                    24047369.652
 111579144.248 7  86944921.29745  21232780.922                    21232788.227
 120188669.495 7  93653773.08244  22871161.031                    22871169.492
 109403367.617 8  85249447.187 7  20818769.023                    20818776.258
 109760257.039 8  85527546.407 7  20886658.734                    20886665.922
 116669679.412 7  90911509.02345  22201503.813                    22201512.164
 119785464.491 7  93339378.729 7  22794418.898                    22794429.313
 11  8 16  1 16  0.0000000  0  8G02G17G10G04G12G05G30G25
 109051905.432 8  84975670.55046  20751869.336                    20751874.715
 126436176.280 7  98521763.210 6  24059996.938                    24060004.887
 111625614.554 8  86981131.92645  21241623.961                    21241631.668
 120271103.734 7  93718007.54444  22886847.328                    22886856.375
 109383057.797 8  85233621.369 7  20814904.266                    20814911.434
 109701247.687 8  85481565.148 7  20875429.406                    20875436.941
 116605538.470 7  90861529.09445  22189298.789                    22189306.406
 119707361.665 8  93278519.440 7  22779555.961                    22779566.410
 11  8 16  1 16 30.0000000  0  8G02G17G10G04G12G05G30G25
 109070884.890 8  84990459.74646  20755480.883                    20755486.219
 126502762.588 7  98573648.686 6  24072667.852                    24072675.680
 111672651.603 8  87017784.18745  21250574.750                    21250582.172
 120353551.771 7  93782252.75244  22902536.672                    22902545.027
 109363313.000 8  85218235.817 7  20811147.070                    20811153.953
 109642732.638 8  85435969.061 7  20864294.320                    20864301.898
 116541895.003 7  90811936.81145  22177187.250                    22177195.129
 119629637.462 8  93217955.158 7  22764765.664                    22764776.102
 11  8 16  1 17  0.0000000  0  8G02G17G10G04G12G05G30G25
 109090063.990 8  85005404.50646  20759130.828                    20759135.992
 126569533.552 7  98625678.045 6  24085374.195                    24085382.410
 111720253.662 8  87054876.71146  21259633.016                    21259640.578
 120436012.779 7  93846508.08544  22918228.813                    22918236.918
 109344134.323 8  85203291.411 7  20807497.852                    20807504.445
 109584714.166 8  85390759.915 7  20853254.203                    20853261.430
 116478751.656 7  90762734.22745  22165171.438                    22165179.352
 119552294.735 7  93157688.125 7  22750048.367                    22750057.832
 11  8 16  1 17 30.0000000  0  8G02G17G10G04G12G05G30G25
 109109441.265 8  85020503.69446  20762818.188                    20762823.098
 126636488.911 7  98677851.096 6  24098114.891                    24098122.895
 111768418.727 7  87092407.94845  21268798.336                    21268805.777
 120518485.247 7  93910772.37044  22933923.125                    22933931.266
 109325522.610 8  85188788.787 7  20803955.500                    20803962.430
 109527194.122 8  85345939.153 7  20842307.961                    20842315.387
 116416110.532 7  90713922.98445  22153251.414                    22153259.102
 119475335.927 7  93097720.251 7  22735403.055                    22735413.172
 11  8 16  1 18  0.0000000  0  8G02G17G10G04G12G05G30G25
 109129015.199 8  85035756.12546  20766543.039                    20766547.668
 126703628.946 6  98730168.049 6  24110891.477                    24110898.836
 111817145.160 8  87130376.60845  21278070.945                    21278078.281
 120600967.877 7  93975044.56344  22949619.047                    22949626.586
 109307478.724 8  85174728.629 7  20800521.969                    20800528.555
 109470174.185 8  85301508.086 7  20831457.477                    20831464.691
 116353973.714 7  90665504.70845  22141426.688                    22141435.160
 119398763.427 7  93038053.399 7  22720831.914                    22720842.258
 11  8 16  1 18 30.0000000  0  8G02G17G10G04G12G05G30G25
 109148784.810 8  85051161.03146  20770305.055                    20770310.215
 126770953.759 6  98782628.985 6  24123702.648                    24123710.914
 111866430.989 8  87168781.16345  21287449.453                    21287457.391
 120683459.745 7  94039323.93844  22965316.570                    22965324.777
 109290003.602 8  85161111.662 7  20797196.664                    20797203.719
 109413656.463 8  85257468.354 7  20820702.711                    20820709.664
 116292343.362 7  90617481.09345  22129699.250                    22129707.051
 119322579.803 7  92978689.572 7  22706334.320                    22706344.711
 11  8 16  1 19  0.0000000  0  8G02G17G10G04G12G05G30G25
 109168749.166 8  85066717.67946  20774104.180                    20774109.391
 126838463.400 6  98835233.922 6  24136549.516                    24136557.984
 111916274.415 8  87207620.21645  21296934.852                    21296942.293
 120765959.725 7  94103609.64544  22981015.906                    22981024.199
 109273098.340 8  85147938.747 7  20793979.867                    20793986.922
 109357643.202 8  85213821.711 7  20810043.445                    20810050.402
 116231221.779 7  90569853.88545  22118068.227                    22118075.867
 119246787.639 7  92919630.775 7  22691911.266                    22691921.949
 11  8 16  1 19 30.0000000  0  8G02G17G10G04G12G05G30G25
 109188907.112 8  85082425.18146  20777939.906                    20777945.188
 126906158.173 6  98887983.129 6  24149430.773                    24149439.879
 111966673.216 8  87246892.02345  21306525.375                    21306532.480
 120848466.564 7  94167900.66044  22996715.945                    22996724.645
 109256763.712 8  85135210.475 7  20790871.523                    20790878.230
 109302135.227 8  85170568.795 7  20799480.656                    20799487.867
 116170611.043 7  90522624.76245  22106534.258                    22106541.805
 119171389.392 7  92860878.917 7  22677563.594                    22677573.781
 11  8 16  1 20  0.0000000  0  8G02G17G10G04G12G05G30G25
 109209257.220 8  85098282.41246  20781812.391                    20781817.727
 126974037.917 6  98940876.407 6  24162348.070                    24162356.488
 112017625.650 8  87286595.22845  21316220.875                    21316228.105
 120930979.006 6  94232196.07944  23012417.477                    23012426.289
 109241000.191 8  85122927.237 7  20787871.891                    20787878.844
 109247134.789 8  85127711.367 7  20789014.219                    20789021.496
 116110513.152 7  90475795.25345  22095097.367                    22095105.613
 119096387.462 7  92802435.887 7  22663291.414                    22663301.902
 11  8 16  1 20 30.0000000  0  8G02G17G10G04G12G05G30G25
 109229798.943 8  85114288.95846  20785721.375                    20785726.410
 127042103.068 6  98993914.199 6  24175300.930                    24175308.766
 112069130.241 8  87326728.68845  21326021.953                    21326029.695
 121013496.357 7  94296495.31344  23028119.930                    23028129.164
 109225809.308 8  85111090.199 7  20784980.805                    20784987.867
 109192644.025 8  85085251.076 7  20778644.813                    20778652.238
 116050930.493 7  90429367.24345  22083759.898                    22083767.844
 119021784.630 7  92744303.862 7  22649094.719                    22649105.520
 11  8 16  1 21  0.0000000  0  8G02G17G10G04G12G05G30G25
 109250530.949 8  85130443.78946  20789666.469                    20789671.422
 127110353.447 6  99047096.351 6  24188288.648                    24188296.598
 112121184.680 8  87367290.61145  21335927.758                    21335935.203
 121096017.147 7  94360797.22644  23043823.609                    23043832.027
 109211191.370 8  85099699.624 7  20782199.336                    20782206.199
 109138664.688 8  85043189.298 7  20768373.297                    20768380.633
 115991865.101 7  90383342.28645  22072519.820                    22072527.977
 118947583.230 7  92686484.628 7  22634974.883                    22634985.051
 11  8 16  1 21 30.0000000  0  8G02G17G10G04G12G05G30G25
 109271451.594 8  85146745.59146  20793647.508                    20793652.867
 127178788.899 6  99100422.709 6  24201310.945                    24201319.793
 112173786.757 8  87408279.25145  21345937.398                    21345944.859
 121178540.197 7  94425100.90044  23059527.391                    23059536.082
 109197147.386 8  85088756.273 7  20779526.516                    20779533.316
 109085198.180 8  85001527.126 7  20758198.781                    20758206.230
 115933318.795 7  90337721.82445  22061378.984                    22061387.023
 118873785.532 8  92628979.967 7  22620931.148                    22620941.883
 11  8 16  1 22  0.0000000  0  8G02G17G10G04G12G05G30G25
 109292560.310 8  85163193.94746  20797664.695                    20797669.863
 127247409.783 6  99153893.533 6  24214369.688                    24214377.473
 112226934.218 7  87449692.86745  21356051.227                    21356058.465
 121261064.458 7  94489405.52144  23075230.953                    23075240.020
 109183677.978 8  85078260.650 7  20776963.602                    20776970.207
 109032246.108 8  84960265.827 7  20748122.320                    20748129.695
 115875293.628 7  90292507.43345  22050337.188                    22050345.000
 118800393.995 8  92571791.770 7  22606965.695                    22606975.484
 11  8 16  1 22 30.0000000  0  8G02G17G10G04G12G05G30G25
 109313855.763 8  85179787.82746  20801716.805                    20801722.422
 127316216.169 6  99207508.915 6  24227462.391                    24227471.438
 112280625.081 7  87491529.92145  21366268.070                    21366275.945
 121343588.575 7  94553710.02944  23090934.844                    23090943.293
 109170783.565 8  85068213.075 7  20774509.758                    20774516.625
 108979810.418 8  84919406.888 8  20738143.953                    20738151.230
 115817791.678 7  90247700.76245  22039395.000                    22039402.852
 118727411.067 7  92514921.980 7  22593077.227                    22593087.609
 11  8 16  1 23  0.0000000  0  8G02G17G10G04G12G05G30G25
 109335337.172 8  85196526.60346  20805804.625                    20805809.848
 127385208.056 7  99261268.845 6  24240591.703                    24240599.973
 112334857.767 8  87533789.16545  21376588.016                    21376595.523
 121426111.846 7  94618013.86444  23106638.742                    23106647.074
 109158465.239 8  85058614.395 7  20772165.602                    20772172.477
 108927893.108 8  84878951.888 7  20728264.648                    20728271.852
 115760815.151 7  90203303.50645  22028552.508                    22028560.621
 118654839.419 7  92458372.686 7  22579267.328                    22579277.762
 11  8 16  1 23 30.0000000  0  8G02G17G10G04G12G05G30G25
 109357003.325 8  85213409.34146  20809927.633                    20809932.605
 127454385.661 6  99315173.509 6  24253755.133                    24253764.285
 112389630.114 7  87576468.92945  21387011.078                    21387018.477
 121508633.059 7  94682316.10444  23122341.758                    23122350.539
 109146723.599 8  85049465.091 7  20769931.266                    20769938.066
 108876495.468 8  84838901.823 7  20718483.883                    20718491.047
 115704365.897 7  90159317.11345  22017810.852                    22017818.844
 118582681.359 8  92402145.666 7  22565536.523                    22565546.922
 11  8 16  1 24  0.0000000  0  8G02G17G10G04G12G05G30G25
 109378852.872 7  85230434.98046  20814085.406                    20814090.520
 127523748.772 6  99369222.735 6  24266954.789                    24266963.012
 112444939.614 7  87619567.23645  21397535.703                    21397543.668
 121591151.042 6  94746615.81844  23138044.508                    23138053.453
 109135558.842 8  85040765.294 7  20767806.734                    20767812.918
 108825618.920 8  84799257.805 7  20708802.195                    20708809.566
 115648445.711 7  90115742.98545  22007169.492                    22007177.246
 118510939.067 7  92346242.604 7  22551883.859                    22551894.129
 11  8 16  1 24 30.0000000  0  8G02G17G10G04G12G05G30G25
 109400884.935 8  85247602.84046  20818277.781                    20818283.086
 127593297.460 7  99423416.536 6  24280189.484                    24280198.051
 112500784.344 7  87663082.63145  21408162.977                    21408170.867
 121673664.746 6  94810912.23844  23153745.992                    23153754.734
 109124971.980 8  85032515.823 7  20765792.188                    20765798.543
 108775265.372 8  84760021.325 7  20699220.227                    20699227.371
 115593056.807 7  90072582.83045  21996629.047                    21996637.227
 118439615.178 7  92290665.577 7  22538310.992                    22538321.016
 11  8 16  1 25  0.0000000  0  9G02G17G10G04G12G05G29G30G25
 109423098.557 8  85264912.17246  20822504.797                    20822510.285
 127663031.768 7  99477755.011 6  24293459.359                    24293468.418
 112557162.452 7  87707013.63545  21418891.016                    21418899.012
 121756173.282 7  94875204.61744  23169446.977                    23169455.645
 109114963.758 8  85024717.225 7  20763887.594                    20763894.207
 108725436.648 8  84721193.793 8  20689738.172                    20689745.797
 129538418.46116 100939068.30916  24650346.047                    24650355.738
 115538201.104 7  90029838.15845  21986190.148                    21986198.234
 118368712.150 7  92235416.503 7  22524819.383                    22524828.863
 11  8 16  1 25 30.0000000  0  9G02G17G10G04G12G05G29G30G25
 109445492.069 8  85282361.67146  20826766.391                    20826771.496
 127732951.612 7  99532238.068 6  24306764.469                    24306773.535
 112614071.167 7  87751358.09945  21429720.398                    21429728.266
 121838675.392 7  94939491.97244  23185147.000                    23185155.160
 109105534.158 8  85017369.504 7  20762093.414                    20762100.031
 108676133.775 8  84682776.005 8  20680356.125                    20680363.426
 129458901.866 6 100877107.418 6  24635213.945                    24635224.324
 115483880.228 7  89987510.23945  21975853.391                    21975861.191
 118298232.004 7  92180496.941 7  22511407.336                    22511417.316
 11  8 16  1 26  0.0000000  0  9G02G17G10G04G12G05G29G30G25
 109468065.276 8  85299951.19946  20831061.891                    20831067.289
 127803057.453 6  99586866.078 6  24320105.281                    24320114.438
 112671508.907 8  87796114.79345  21440650.859                    21440658.387
 121921170.205 7  95003773.66544  23200845.383                    23200853.129
 109096684.387 8  85010473.591 7  20760409.313                    20760416.094
 108627359.172 8  84644769.866 7  20671074.695                    20671082.211
 129379309.515 6 100815087.490 6  24620069.016                    24620078.688
 115430096.572 7  89945600.93045  21965618.625                    21965626.789
 118228177.560 7  92125909.093 7  22498076.688                    22498086.707
 11  8 16  1 26 30.0000000  0  9G02G17G10G04G12G05G29G30G25
 109490816.794 8  85317679.66946  20835391.391                    20835396.531
 127873348.819 6  99641638.620 6  24333481.195                    24333490.152
 112729473.644 8  87841282.12145  21451681.633                    21451689.066
 122003656.836 7  95068048.93344  23216541.242                    23216550.242
 109088414.842 8  85004029.805 7  20758834.953                    20758842.063
 108579113.872 8  84607176.180 7  20661893.992                    20661901.031
 129299641.527 6 100753008.669 6  24604908.766                    24604917.387
 115376851.894 7  89904111.61145  21955486.555                    21955494.828
 118158551.197 7  92071654.820 7  22484826.906                    22484836.773
 11  8 16  1 27  0.0000000  0  9G02G17G10G04G12G05G29G30G25
 109513744.807 8  85335545.66846  20839754.227                    20839759.172
 127943825.468 6  99696555.516 6  24346892.406                    24346901.332
 112787962.610 8  87886857.94745  21462811.086                    21462818.961
 122086133.792 7  95132316.66644  23232236.352                    23232244.918
 109080725.249 8  84998037.933 7  20757372.188                    20757378.926
 108531398.859 8  84569995.687 8  20652813.805                    20652820.930
 129219898.618 6 100690871.460 5  24589733.070                    24589742.355
 115324147.577 7  89863043.35645  21945457.328                    21945465.414
 118089354.694 7  92017735.509 7  22471658.922                    22471669.113
 11  8 16  1 27 30.0000000  0  9G02G17G10G04G12G05G29G30G25
 109536849.042 8  85353548.97646  20844150.914                    20844155.902
 128014487.793 6  99751617.112 6  24360339.742                    24360347.102
 112846973.698 8  87932840.61445  21474040.922                    21474048.750
 122168600.512 7  95196576.43344  23247929.469                    23247937.695
 109073616.651 8  84992498.776 7  20756019.195                    20756025.883
 108484216.360 8  84533230.143 7  20643835.023                    20643842.395
 129140081.480 6 100628676.412 6  24574544.789                    24574554.172
 115271985.767 7  89822397.82045  21935531.109                    21935538.652
 118020590.724 7  91964153.240 7  22458573.594                    22458583.684
 11  8 16  1 28  0.0000000  0  9G02G17G10G04G12G05G29G30G25
 109560127.998 8  85371688.43546  20848580.586                    20848586.141
 128085335.693 6  99806823.297 6  24373821.813                    24373828.918
 112906504.551 8  87979228.30245  21485369.328                    21485376.574
 122251055.599 7  95260827.13044  23263620.773                    23263628.594
 109067089.549 8  84987412.747 7  20754777.203                    20754784.121
 108437567.383 8  84496880.332 7  20634958.328                    20634965.496
 129060190.362 6 100566423.694 6  24559342.313                    24559352.023
 115220368.031 7  89782176.24845  21925708.266                    21925716.918
 117952261.459 7  91910909.698 7  22445571.281                    22445581.617
 11  8 16  1 28 30.0000000  0  9G02G17G10G04G12G05G29G30G25
 109583580.645 8  85389963.23446  20853043.938                    20853049.063
 128156369.061 6  99862174.045 6  24387338.266                    24387346.047
 112966553.087 8  88026019.38545  21496795.914                    21496803.422
 122333498.269 6  95325068.20544  23279308.109                    23279317.051
 109061144.116 8  84982779.952 7  20753645.992                    20753652.727
 108391453.435 8  84460947.429 8  20626182.914                    20626190.277
 128980225.748 7 100504113.667 5  24544125.164                    24544134.738
 115169296.506 7  89742380.28645  21915989.992                    21915997.754
 117884369.269 7  91858006.732 7  22432651.375                    22432661.969
 11  8 16  1 29  0.0000000  0  9G02G17G10G04G12G05G29G30G25
 109607206.147 8  85408372.72946  20857539.203                    20857544.441
 128227587.764 6  99917669.163 6  24400891.078                    24400898.855
 113027117.087 8  88073212.11245  21508320.805                    21508328.102
 122415927.521 6  95389298.79744  23294994.523                    23295003.137
 109055781.171 8  84978601.059 7  20752625.242                    20752631.789
 108345876.103 8  84425432.662 8  20617510.203                    20617517.219
 128900188.436 7 100441747.017 5  24528895.313                    24528903.926
 115118772.783 7  89703011.18045  21906375.258                    21906383.465
 117816916.573 7  91805446.220 7  22419816.008                    22419825.816
 11  8 16  1 29 30.0000000  0  9G02G17G10G04G12G05G29G30G25
 109631003.567 8  85426916.18146  20862067.922                    20862073.074
 128298991.751 6  99973308.651 6  24414478.281                    24414486.375
 113088194.425 7  88120804.87045  21519943.250                    21519950.664
 122498342.548 7  95453518.31044  23310677.086                    23310685.043
 109051000.366 8  84974875.760 7  20751715.727                    20751722.434
 108300836.863 8  84390337.197 8  20608939.227                    20608946.605
 128820079.160 7 100379324.325 6  24513650.156                    24513659.648
 115068798.755 8  89664070.41045  21896865.422                    21896874.441
 117749905.686 7  91753229.986 7  22407063.641                    22407073.895
 11  8 16  1 30  0.0000000  0  9G02G17G10G04G12G05G29G30G25
 109654971.430 8  85445592.44946  20866628.641                    20866633.781
 128370580.886 6 100029092.422 6  24428101.383                    24428109.602
 113149782.498 7  88168795.58245  21531663.242                    21531670.508
 122580742.317 7  95517725.94544  23326357.516                    23326365.105
 109046802.259 8  84971604.532 7  20750916.609                    20750923.488
 108256336.944 8  84355661.969 8  20600470.805                    20600478.043
 128739898.204 7 100316845.791 6  24498392.586                    24498400.930
 115019375.872 8  89625559.10445  21887460.555                    21887468.762
 117683338.599 7  91701359.575 7  22394396.789                    22394406.785
 11  8 16  1 30 30.0000000  0  9G02G17G10G04G12G05G29G30G25
 109679109.208 8  85464401.12346  20871222.000                    20871227.578
 128442355.364 6 100085020.611 6  24441760.227                    24441767.328
 113211879.149 8  88217182.58345  21543479.734                    21543487.500
 122663125.851 7  95581920.90844  23342034.328                    23342042.227
 109043187.410 8  84968787.782 7  20750228.750                    20750235.266
 108212377.986 8  84321408.282 8  20592106.039                    20592113.188
 128659646.213 6 100254311.842 5  24483120.492                    24483129.570
 114970506.202 7  89587478.87645  21878161.219                    21878169.371
 117617217.926 7  91649837.002 7  22381813.875                    22381824.383
 11  8 16  1 31  0.0000000  0  9G02G17G10G04G12G05G29G30G25
 109703415.579 8  85483341.16746  20875847.656                    20875852.512
 128514314.989 6 100141093.055 6  24455452.930                    24455460.539
 113274482.063 7  88265964.08545  21555392.648                    21555400.191
 122745491.992 7  95646102.32144  23357708.102                    23357716.160
 109040156.034 8  84966425.693 7  20749651.938                    20749659.180
 108168961.019 8  84287576.919 8  20583843.938                    20583851.141
 128579323.844 6 100191723.058 6  24467835.836                    24467844.496
 114922191.253 8  89549830.89545  21868967.086                    21868975.730
 117551545.840 7  91598663.982 7  22369317.289                    22369327.527
 11  8 16  1 31 30.0000000  0  9G02G17G10G04G12G05G29G30G25
 109727889.479 8  85502411.75346  20880504.859                    20880509.715
 128586459.657 6 100197309.685 6  24469180.828                    24469189.441
 113337588.541 8  88315137.95845  21567401.453                    21567409.445
 122827840.136 7  95710269.71044  23373378.805                    23373386.801
 109037708.309 8  84964518.394 7  20749186.266                    20749193.113
 108126087.341 8  84254168.898 8  20575685.539                    20575692.844
 128498931.722 6 100129079.934 6  24452537.078                    24452546.121
 114874432.606 8  89512616.38745  21859879.141                    21859886.891
 117486324.320 7  91547842.069 7  22356905.906                    22356916.051
 11  8 16  1 32  0.0000000  0  9G02G17G10G04G12G05G29G30G25
 109752529.890 8  85521612.08246  20885193.758                    20885198.492
 128658789.286 6 100253670.449 6  24482946.227                    24482953.965
 113401196.450 8  88364702.56845  21579505.719                    21579513.215
 122910169.317 7  95774422.31543  23389045.094                    23389053.219
 109035844.827 8  84963066.339 7  20748831.578                    20748838.383
 108083758.225 8  84221185.208 8  20567630.281                    20567637.336
 128418470.359 6 100066382.867 6  24437226.477                    24437235.125
 114827232.046 8  89475836.74745  21850896.758                    21850904.965
 117421555.824 7  91497373.163 7  22344581.047                    22344590.871
 11  8 16  1 32 30.0000000  0  9G02G17G10G04G12G05G29G30G25
 109777335.916 8  85540941.46846  20889913.789                    20889919.094
 128731303.819 6 100310175.280 6  24496744.406                    24496752.742
 113465303.461 8  88414656.08245  21591704.914                    21591712.148
 122992478.583 6  95838559.41344  23404708.039                    23404716.066
 109034565.326 8  84962069.349 7  20748588.117                    20748594.984
 108041975.093 8  84188626.969 8  20559679.180                    20559686.500
 128337940.272 6 100003632.224 6  24421902.203                    24421910.988
 114780591.089 8  89439493.18045  21842021.508                    21842029.348
 117357242.483 7  91447258.901 7  22332342.195                    22332352.457
 11  8 16  1 33  0.0000000  0  9G02G17G10G04G12G05G29G30G25
 109802306.630 8  85560399.17546  20894665.750                    20894670.652
 128804003.395 7 100366824.357 6  24510579.000                    24510586.605
 113529907.381 8  88464996.80145  21603998.672                    21604005.566
 123074767.380 6  95902680.53144  23420367.195                    23420375.723
 109033870.086 8  84961527.612 7  20748455.617                    20748462.512
 108000739.425 8  84156495.305 8  20551832.258                    20551839.258
 128257342.675 6  99940828.951 6  24406565.398                    24406573.707
 114734511.712 8  89403587.19345  21833252.805                    21833260.617
 117293386.780 7  91397501.244 7  22320190.984                    22320200.555
 11  8 16  1 33 30.0000000  0  8G02G10G04G12G05G29G30G25
 109827441.336 8  85579984.67646  20899448.984                    20899453.855
 113595005.695 7  88515722.77645  21616386.086                    21616393.637
 123157034.841 6  95966785.06744  23436022.070                    23436031.016
 109033760.337 8  84961442.114 7  20748434.906                    20748441.652
 107960052.480 8  84124791.233 8  20544089.961                    20544096.680
 128176678.520 6  99877973.850 6  24391213.414                    24391223.625
 114688995.493 8  89368120.02645  21824591.516                    21824599.266
 117229991.006 7  91348101.978 7  22308127.531                    22308137.605
 11  8 16  1 34  0.0000000  0  8G02G10G04G12G05G29G30G25
 109852738.201 8  85599696.53546  20904262.523                    20904267.813
 113660595.857 8  88566831.99045  21628867.477                    21628875.109
 123239279.495 6  96030871.80244  23451672.977                    23451681.469
 109034234.460 8  84961811.580 7  20748525.102                    20748531.734
 107919915.014 8  84093515.326 8  20536452.242                    20536459.012
 128095947.659 6  99815066.714 5  24375851.445                    24375860.867
 114644043.466 8  89333092.49845  21816037.492                    21816044.605
 117167056.786 7  91299062.369 7  22296150.945                    22296161.254
 11  8 16  1 34 30.0000000  0  8G02G10G04G12G05G29G30G25
 109878196.033 8  85619533.82546  20909106.961                    20909112.398
 113726674.818 8  88618322.07945  21641441.773                    21641449.086
 123321500.184 7  96094939.89044  23467318.719                    23467327.512
 109035292.473 8  84962636.019 7  20748726.367                    20748733.227
 107880328.039 8  84062668.367 8  20528918.766                    20528925.996
 128015150.419 7  99752107.865 6  24360476.836                    24360485.535
 114599656.964 8  89298505.64545  21807590.992                    21807599.094
 117104585.941 7  91250383.824 7  22284263.164                    22284273.629
 11  8 16  1 35  0.0000000  0  8G02G10G04G12G05G29G30G25
 109903814.176 8  85639496.03346  20913981.883                    20913987.426
 113793240.546 7  88670191.47845  21654109.484                    21654116.910
 123403696.454 6  96158988.92444  23482960.320                    23482969.387
 109036934.923 8  84963915.866 7  20749039.102                    20749045.738
 107841292.776 8  84032251.314 8  20521490.594                    20521497.512
 127934287.576 7  99689097.882 6  24345089.305                    24345097.789
 114555837.712 8  89264360.80545  21799252.727                    21799260.191
 117042580.999 7  91202068.325 7  22272464.344                    22272473.902
 11  8 16  1 35 30.0000000  0  8G02G10G04G12G05G29G30G25
 109929592.106 8  85659582.75746  20918887.297                    20918892.469
 113860290.644 8  88722438.31045  21666868.531                    21666875.859
 123485867.833 7  96223018.56944  23498597.344                    23498605.441
 109039162.446 8  84965651.611 7  20749462.758                    20749469.727
 107802810.477 8  84002265.146 8  20514167.867                    20514174.402
 127853360.447 7  99626037.813 6  24329689.750                    24329697.758
 114512587.425 8  89230659.31645  21791022.508                    21791029.840
 116981044.311 7  91154117.683 7  22260754.531                    22260763.734
 11  8 16  1 36  0.0000000  0  8G02G10G04G12G05G29G30G25
 109955528.148 8  85679792.68146  20923822.789                    20923828.094
 113927822.539 8  88775060.56745  21679719.609                    21679727.020
 123568012.826 7  96287027.65243  23514228.789                    23514236.883
 109041974.799 8  84967843.059 7  20749998.055                    20750004.914
 107764881.894 8  83972710.439 8  20506950.023                    20506957.051
 127772369.360 7  99562927.902 6  24314277.656                    24314285.453
 114469907.313 8  89197402.10845  21782899.922                    21782907.789
 116919977.596 8  91106533.266 7  22249133.656                    22249142.926
 11  8 16  1 36 30.0000000  0  8G02G10G04G12G05G29G30G25
 109981621.469 8  85700125.16146  20928788.188                    20928793.164
 113995833.567 7  88828056.16545  21692661.367                    21692668.875
 123650130.790 7  96351015.67444  23529855.125                    23529863.375
 109045371.236 8  84970489.636 7  20750644.398                    20750650.934
 107727508.397 8  83943588.277 8  20499838.055                    20499844.637
 127691315.036 7  99499768.763 6  24298852.563                    24298861.625
 114427798.739 7  89164590.26345  21774887.070                    21774895.188
 116859382.968 8  91059316.709 7  22237602.586                    22237612.391
 11  8 16  1 37  0.0000000  0  8G02G10G04G12G05G29G30G25
 110007871.812 8  85720580.00246  20933783.445                    20933788.535
 114064321.791 8  88881423.62145  21705694.352                    21705701.313
 123732221.540 6  96414982.50143  23545476.703                    23545484.352
 109049352.836 8  84973592.186 8  20751401.930                    20751408.941
 107690691.433 8  83914899.775 8  20492832.211                    20492839.031
 127610198.548 7  99436561.165 6  24283416.852                    24283425.082
 114386263.750 8  89132225.37345  21766983.367                    21766991.250
 116799263.131 8  91012470.107 7  22226162.414                    22226172.078
 11  8 16  1 37 30.0000000  0  8G02G10G04G12G05G29G30G25
 110034277.811 8  85741156.11846  20938808.250                    20938813.379
 114133284.683 8  88935160.93545  21718817.703                    21718824.711
 123814283.903 6  96478927.19044  23561092.148                    23561100.441
 109053919.134 8  84977150.351 7  20752270.734                    20752277.680
 107654431.815 8  83886645.559 8  20485932.055                    20485938.980
 127529020.399 6  99373305.522 6  24267968.617                    24267978.234
 114345303.380 8  89100308.22745  21759188.766                    21759197.113
 116739619.888 8  90965994.892 7  22214812.500                    22214822.457
 11  8 16  1 38  0.0000000  0  8G02G10G04G12G05G29G30G25
 110060838.233 8  85761852.56546  20943862.508                    20943867.660
 114202719.110 7  88989265.67045  21732030.313                    21732037.992
 123896316.924 6  96542849.04444  23576702.797                    23576710.730
 109059069.739 8  84981163.809 7  20753250.953                    20753258.094
 107618730.353 8  83858826.278 8  20479138.414                    20479145.555
 127447781.344 6  99310002.424 6  24252509.250                    24252518.875
 114304918.957 8  89068839.87745  21751503.859                    21751512.230
 116680455.106 8  90919892.492 7  22203554.180                    22203563.578
 11  8 16  1 38 30.0000000  0  8G02G10G04G12G05G29G30G25
 110087551.934 8  85782668.45246  20948945.656                    20948950.762
 114272622.871 7  89043736.15445  21745332.625                    21745340.016
 123978319.590 7  96606747.23844  23592307.906                    23592315.695
 109064804.781 8  84985632.678 7  20754342.516                    20754349.230
 107583588.153 8  83831442.785 8  20472451.094                    20472457.852
 127366481.900 6  99246652.263 6  24237038.477                    24237048.090
 114265111.542 8  89037821.13945  21743928.828                    21743936.871
 116621770.611 7  90874164.346 7  22192386.492                    22192396.297
 11  8 16  1 39  0.0000000  0  8G02G10G04G12G05G29G30G25
 110114418.324 8  85803603.32746  20954058.320                    20954063.445
 114342993.450 7  89098570.36945  21758723.703                    21758731.160
 124060291.567 7  96670621.53344  23607906.125                    23607914.934
 109071123.804 8  84990556.591 7  20755544.961                    20755551.680
 107549005.973 8  83804495.673 8  20465870.148                    20465876.898
 127285123.001 6  99183255.769 6  24221556.883                    24221565.770
 114225882.751 8  89007253.28345  21736463.742                    21736471.492
 116563568.699 8  90828812.250 7  22181310.813                    22181320.984
 11  8 16  1 39 30.0000000  0  8G02G10G04G12G05G29G30G25
 110141436.361 8  85824656.36246  20959199.680                    20959204.930
 114413828.145 7  89153766.24345  21772202.867                    21772209.969
 124142231.930 7  96734471.16344  23623499.328                    23623507.652
 109078026.935 8  84995935.664 7  20756858.422                    20756865.211
 107514984.807 8  83777985.699 8  20459396.164                    20459403.016
 127203705.323 6  99119813.502 6  24206063.625                    24206072.371
 114187233.838 8  88977137.26945  21729109.234                    21729116.727
 116505851.347 8  90783837.724 7  22170328.086                    22170338.012
 11  8 16  1 40  0.0000000  0  8G02G10G04G12G05G29G30G25
 110168604.836 8  85845826.62346  20964369.820                    20964374.859
 114485124.020 7  89209321.47345  21785770.297                    21785777.684
 124224139.793 7  96798295.49144  23639085.219                    23639094.414
 109085513.868 8  85001769.643 7  20758282.930                    20758289.598
 107481525.319 8  83751913.413 8  20453029.070                    20453035.707
 127122229.610 6  99056326.039 6  24190559.422                    24190568.281
 114149165.926 8  88947473.99645  21721865.156                    21721872.270
 116448620.375 8  90739242.184 7  22159436.891                    22159446.902
 11  8 16  1 40 30.0000000  0  8G02G10G04G12G05G29G30G25
 110195923.069 8  85867113.57346  20969568.523                    20969573.266
 114556878.876 7  89265234.35845  21799424.594                    21799432.398
 124306014.492 7  96862093.97344  23654665.711                    23654674.414
 109093584.547 8  85008058.488 7  20759819.031                    20759825.883
 107448628.712 8  83726279.735 8  20446769.023                    20446776.086
 127040696.755 7  98992794.055 6  24175044.320                    24175052.348
 114111680.391 8  88918264.51545  21714731.992                    21714739.844
 116391877.920 8  90695027.321 7  22148639.414                    22148649.469
 11  8 16  1 41  0.0000000  0  8G02G10G04G12G05G29G30G25
 110223389.833 8  85888516.26546  20974795.156                    20974799.926
 114629089.759 7  89321502.58745  21813165.992                    21813173.586
 124387855.111 7  96925865.86944  23670239.164                    23670248.566
 109102238.268 8  85014801.658 7  20761465.586                    20761472.270
 107416295.826 8  83701085.304 8  20440615.820                    20440622.801
 126959107.381 7  98929218.009 6  24159517.797                    24159526.801
 114074778.244 8  88889509.62645  21707709.211                    21707716.879
 116335625.686 8  90651194.452 7  22137934.734                    22137944.871
 11  8 16  1 41 30.0000000  0  8G02G10G04G12G05G29G30G25
 110251005.036 8  85910034.62746  20980050.070                    20980054.801
 114701754.520 7  89378124.47445  21826993.391                    21827001.172
 124469661.408 7  96989611.03444  23685807.000                    23685815.363
 109111475.541 8  85021999.544 7  20763223.664                    20763230.316
 107384527.800 8  83676331.037 8  20434570.914                    20434577.996
 126877462.888 6  98865598.980 6  24143981.000                    24143990.289
 114038461.269 8  88861210.73045  21700798.758                    21700806.758
 116279866.290 8  90607745.598 7  22127324.180                    22127333.945
 11  8 16  1 42  0.0000000  0  8G02G10G04G12G05G29G30G25
 110278767.402 8  85931667.65846  20985333.273                    20985338.285
 114774870.211 7  89435097.74245  21840907.469                    21840914.496
 124551432.589 6  97053328.86043  23701367.313                    23701375.492
 109121295.941 8  85029651.808 7  20765092.211                    20765099.164
 107353325.273 8  83652017.411 8  20428633.180                    20428640.180
 126795763.712 6  98801937.314 6  24128434.016                    24128443.281
 114002730.514 7  88833368.60345  21693999.398                    21694007.199
 116224601.353 8  90564682.038 7  22116807.844                    22116817.617
 11  8 16  1 42 30.0000000  0  8G02G10G04G12G05G29G30G25
 110306676.265 8  85953414.83946  20990644.141                    20990649.203
 114848434.960 7  89492420.93645  21854906.266                    21854913.535
 124633168.087 6  97117018.88943  23716920.563                    23716929.531
 109131699.092 8  85037758.164 7  20767071.984                    20767078.727
 107322689.010 8  83628145.038 8  20422802.977                    20422810.324
 126714010.936 6  98738233.935 6  24112877.172                    24112885.859
 113967587.271 7  88805984.28645  21687311.438                    21687319.871
 116169833.092 8  90522005.494 7  22106385.906                    22106395.605
 11  8 16  1 43  0.0000000  0  8G02G10G04G12G05G29G30G25
 110334729.530 8  85975274.53846  20995981.992                    20995987.230
 114922445.144 7  89550091.22545  21868989.492                    21868997.262
 124714866.385 7  97180679.90043  23732467.555                    23732475.770
 109142683.742 8  85046317.648 8  20769161.813                    20769168.898
 107292619.158 8  83604714.015 8  20417081.445                    20417087.605
 126632204.612 6  98674488.796 6  24097309.867                    24097319.293
 113933031.672 7  88779057.88745  21680736.148                    21680744.012
 116115562.383 8  90479716.687 7  22096058.094                    22096068.102
 11  8 16  1 43 30.0000000  0  8G02G10G04G12G05G29G30G25
 110362927.081 8  85997246.67146  21001347.961                    21001353.059
 114996898.783 7  89608107.05745  21883157.625                    21883165.117
 124796527.327 7  97244311.81243  23748007.141                    23748015.113
 109154250.221 8  85055330.498 7  20771363.273                    20771369.945
 107263117.009 8  83581725.354 8  20411466.844                    20411473.730
 126550346.033 7  98610702.941 6  24081733.031                    24081741.617
 113899065.606 7  88752590.86045  21674272.391                    21674279.879
 116061791.785 8  90437817.556 7  22085825.680                    22085836.086
 11  8 16  1 44  0.0000000  0  8G02G10G04G12G05G29G30G25
 110391267.536 8  86019330.15746  21006740.922                    21006745.848
 115071792.323 8  89666465.66245  21897409.734                    21897417.125
 124878149.906 7  97307913.85244  23763539.273                    23763547.852
 109166397.472 8  85064795.898 7  20773674.805                    20773681.594
 107234182.796 8  83559179.244 8  20405960.844                    20405967.785
 126468435.758 7  98546876.832 6  24066146.195                    24066154.734
 113865689.496 8  88726583.53145  21667920.898                    21667928.391
 116008522.667 8  90396309.199 7  22075688.953                    22075699.109
 11  8 16  1 44 30.0000000  0  8G02G10G04G12G05G29G30G25
 110419750.809 8  86041524.93146  21012161.023                    21012165.805
 115147123.795 7  89725165.51245  21911744.781                    21911751.656
 124959733.976 7  97371485.85943  23779064.469                    23779072.523
 109179125.830 8  85074714.114 7  20776096.781                    20776103.645
 107205818.150 8  83537076.952 8  20400563.094                    20400569.906
 126386475.196 7  98483011.532 6  24050548.984                    24050557.754
 113832905.151 8  88701037.30845  21661682.695                    21661689.813
 115955757.546 8  90355193.544 7  22065648.641                    22065657.617
 11  8 16  1 45  0.0000000  0  8G02G10G04G12G05G29G30G25
 110448375.419 7  86063829.83246  21017608.070                    21017612.934
 115222890.381 7  89784204.42045  21926162.563                    21926169.617
 125041278.363 7  97435026.97044  23794582.078                    23794589.438
 109192434.990 8  85085084.910 7  20778629.203                    20778636.281
 107178022.668 8  83515418.164 8  20395273.836                    20395280.883
 126304464.975 7  98419107.535 6  24034943.492                    24034952.098
 113800713.182 7  88675952.68345  21655556.539                    21655564.047
 115903497.813 8  90314471.713 7  22055703.281                    22055712.750
 11  8 16  1 45 30.0000000  0  8G02G10G04G12G05G29G30G25
 110477141.311 8  86086244.82646  21023082.195                    21023087.234
 115299089.585 7  89843580.44245  21940662.391                    21940670.102
 125122783.119 7  97498537.17743  23810091.352                    23810100.051
 109206324.563 8  85095907.958 7  20781272.648                    20781279.453
 107150797.825 8  83494204.029 8  20390093.008                    20390099.930
 126222406.389 7  98355165.792 6  24019327.391                    24019336.074
 113769115.050 8  88651330.78945  21649543.977                    21649551.566
 115851745.769 8  90274145.480 7  22045855.500                    22045865.500
 11  8 16  1 46  0.0000000  0  8G02G10G04G12G05G29G30G25
 110506046.889 8  86108768.66346  21028582.703                    21028587.676
 115375718.396 7  89903291.20745  21955244.289                    21955252.457
 125204247.021 7  97562015.58743  23825593.000                    23825601.910
 109220793.249 8  85107182.284 7  20784026.336                    20784032.789
 107124144.122 8  83473434.937 8  20385020.711                    20385028.176
 126140299.794 7  98291186.681 6  24003703.242                    24003712.273
 113738111.204 8  88627171.98145  21643643.758                    21643651.402
 115800502.713 8  90234215.856 7  22036104.398                    22036113.969
 11  8 16  1 46 30.0000000  0  8G02G10G04G12G05G29G30G25
 110535091.552 8  86131400.88646  21034109.336                    21034114.637
 115452774.437 8  89963334.86845  21969908.156                    21969915.645
 125285669.735 6  97625461.85043  23841087.773                    23841095.961
 109235840.806 8  85118907.665 7  20786889.406                    20786896.027
 107098062.028 8  83453111.259 8  20380057.758                    20380064.891
 126058146.449 6  98227171.152 6  23988069.898                    23988079.008
 113707703.050 8  88603477.33745  21637857.203                    21637864.684
 115749770.789 8  90194684.542 7  22026450.320                    22026459.980
 11  8 16  1 47  0.0000000  0  8G02G10G04G12G05G29G30G25
 110564274.392 8  86154140.77846  21039663.211                    21039667.754
 115530254.749 7  90023709.14845  21984652.148                    21984659.129
 125367050.582 6  97688875.51743  23856573.266                    23856582.785
 109251466.757 8  85131083.738 7  20789862.984                    20789870.172
 107072551.980 8  83433233.335 8  20375203.383                    20375210.473
 125975947.001 6  98163119.696 6  23972427.328                    23972437.441
 113677891.339 7  88580247.45445  21632184.188                    21632191.945
 115699551.622 8  90155552.754 7  22016893.836                    22016903.379
 11  8 16  1 47 30.0000000  0  8G02G10G04G12G05G29G30G25
 110593594.262 8  86176987.44846  21045242.352                    21045247.703
 115608156.400 7  90084411.75145  21999476.086                    21999483.418
 125448388.638 6  97752255.84443  23872051.836                    23872060.938
 109267670.545 8  85143710.070 7  20792946.195                    20792953.148
 107047614.463 8  83413801.535 8  20370458.000                    20370465.293
 125893702.528 6  98099033.158 6  23956777.219                    23956786.688
 113648676.690 7  88557482.82045  21626624.773                    21626632.641
 115649846.689 8  90116821.673 7  22007435.375                    22007444.898
 11  8 16  1 48  0.0000000  0  8G02G10G04G12G05G29G30G25
 110623050.752 8  86199940.57246  21050847.797                    21050852.895
 115686476.857 7  90145440.68445  22014379.859                    22014387.195
 125529683.661 6  97815602.59143  23887522.023                    23887530.688
 109284451.534 8  85156786.185 7  20796139.508                    20796146.410
 107023250.261 8  83394816.471 8  20365821.563                    20365828.488
 125811413.972 6  98034912.229 6  23941118.492                    23941127.488
 113620060.242 8  88535184.32245  21621179.203                    21621186.961
 115600657.933 8  90078492.814 7  21998074.563                    21998084.273
 11  8 16  1 48 30.0000000  0  8G02G10G04G12G05G29G30G25
 110652642.441 8  86222999.04146  21056478.930                    21056483.977
 115765213.379 7  90206793.82145  22029363.211                    22029370.301
 125610934.712 6  97878915.12943  23902983.570                    23902991.652
 109301809.244 8  85170311.676 7  20799442.477                    20799449.305
 106999459.306 8  83376278.093 8  20361294.469                    20361301.375
 125729081.807 6  97970757.336 6  23925450.742                    23925459.699
 113592042.450 7  88513352.29645  21615847.656                    21615855.316
 115551986.732 8  90040567.227 7  21988812.656                    21988823.238
 11  8 16  1 49  0.0000000  0  8G02G10G04G12G05G29G30G25
 110682368.487 8  86246162.21346  21062135.234                    21062140.703
 115844362.992 7  90268468.85545  22044424.641                    22044432.543
 125692141.051 6  97942192.76943  23918436.586                    23918444.988
 109319742.566 8  85184285.700 7  20802854.945                    20802861.973
 106976242.199 8  83358186.871 8  20356876.211                    20356883.246
 125646707.282 7  97906569.467 6  23909775.875                    23909784.004
 113564624.207 8  88491987.45645  21610630.219                    21610637.711
 115503834.727 8  90003046.223 7  21979649.477                    21979659.590
 11  8 16  1 49 30.0000000  0  8G02G10G04G12G05G29G30G25
 110712228.817 8  86269430.01846  21067817.625                    21067822.758
 115923923.259 7  90330463.87045  22059564.445                    22059572.320
 125773302.703 6  98005435.64343  23933881.414                    23933889.012
 109338250.959 8  85198707.828 7  20806377.195                    20806384.262
 106953599.837 8  83340543.500 8  20352567.438                    20352574.543
 125564291.810 7  97842349.667 6  23894092.969                    23894100.777
 113537806.855 7  88471090.83845  21605527.094                    21605534.387
 115456204.227 8  89965931.582 7  21970586.086                    21970595.863
 11  8 16  1 50  0.0000000  0  8G02G10G04G12G05G29G30G25
 110742221.406 8  86292800.87846  21073524.906                    21073530.367
 116003890.609 7  90392776.08545  22074781.633                    22074788.984
 125854418.394 6  98068642.66243  23949317.195                    23949324.609
 109357333.278 8  85213577.168 7  20810008.461                    20810015.125
 106931531.758 8  83323347.632 8  20348368.000                    20348375.145
 125481835.624 6  97778098.158 6  23878400.852                    23878411.035
 113511590.243 8  88450662.32645  21600538.117                    21600545.609
 115409095.883 8  89929223.820 7  21961621.477                    21961631.305
 11  8 16  1 50 30.0000000  0  8G02G10G04G12G05G29G30G25
 110772346.755 8  86316275.20146  21079257.820                    21079262.824
 116084263.202 7  90455404.08745  22090075.961                    22090084.031
 125935488.319 7  98131814.07543  23964744.133                    23964751.883
 109376989.675 8  85228893.852 7  20813749.031                    20813755.426
 106910039.217 8  83306600.226 8  20344277.773                    20344284.840
 125399340.379 6  97713816.175 6  23862702.891                    23862711.332
 113485975.991 8  88430703.19545  21595663.961                    21595671.180
 115362512.278 8  89892924.943 7  21952757.086                    21952767.066
 11  8 16  1 51  0.0000000  0  8G02G10G04G12G05G29G30G25
 110802603.625 8  86339851.99546  21085015.320                    21085020.680
 116165038.106 7  90518345.56845  22105447.219                    22105454.508
 126016511.581 7  98194949.12843  23980162.836                    23980170.867
 109397219.099 8  85244657.038 7  20817598.570                    20817605.164
 106889122.246 8  83290301.318 8  20340297.797                    20340304.766
 125316807.059 6  97649504.530 6  23846997.320                    23847006.191
 113460964.555 8  88411213.78946  21590904.531                    21590911.813
 115316454.705 8  89857035.980 7  21943992.211                    21944002.305
 11  8 16  1 51 30.0000000  0  8G02G10G04G12G05G29G30G25
 110832991.214 8  86363530.65446  21090797.922                    21090803.258
 116246212.303 7  90581598.18245  22120894.109                    22120901.359
 126097487.793 7  98258047.52444  23995571.531                    23995580.078
 109418020.854 8  85260866.204 7  20821556.828                    20821563.746
 106868781.345 8  83274451.296 8  20336427.133                    20336433.734
 125234236.218 7  97585163.670 6  23831285.352                    23831293.309
 113436556.452 8  88392194.51946  21586259.758                    21586267.316
 115270924.628 8  89821558.044 7  21935328.188                    21935338.465
 11  8 16  1 52  0.0000000  0  8G02G10G04G12G05G29G30G25
 110863508.534 8  86387310.40446  21096605.266                    21096610.266
 116327782.982 7  90645159.75645  22136416.359                    22136423.922
 126178416.109 7  98321108.56244  24010971.750                    24010980.848
 109439393.751 8  85277520.414 7  20825623.961                    20825631.008
 106849016.408 8  83259050.069 8  20332665.656                    20332672.703
 125151629.097 7  97520794.540 6  23815565.375                    23815573.352
 113412752.378 8  88373645.91645  21581729.969                    21581737.582
 115225923.560 8  89786492.306 7  21926765.203                    21926774.219
 11  8 16  1 52 30.0000000  0  8G02G10G04G12G05G29G30G25
 110894154.524 8  86411190.40746  21102436.781                    21102441.918
 116409747.093 7  90709027.90844  22152013.781                    22152020.824
 126259296.086 6  98384131.94544  24026362.727                    24026371.492
 109461336.682 8  85294618.810 7  20829799.352                    20829806.426
 106829827.808 8  83244097.944 8  20329014.281                    20329021.066
 125068986.514 7  97456397.757 6  23799839.328                    23799846.840
 113389552.730 8  88355568.30045  21577314.945                    21577322.445
 115181452.979 8  89751839.941 7  21918302.406                    21918311.883
 11  8 16  1 53  0.0000000  0  8G02G10G04G12G05G29G30G25
 110924929.191 8  86435170.67846  21108293.508                    21108298.164
 116492102.592 7  90773201.03145  22167685.297                    22167692.578
 126340127.481 6  98447117.47643  24041744.219                    24041752.891
 109483849.624 8  85312161.359 7  20834083.750                    20834090.680
 106811216.410 8  83229595.581 8  20325472.609                    20325479.578
 124986309.791 7  97391974.410 6  23784105.492                    23784114.250
 113366958.744 8  88337962.61945  21573015.367                    21573022.930
 115137514.835 8  89717602.478 7  21909941.258                    21909951.266
 11  8 16  1 53 30.0000000  0  8G02G10G04G12G05G29G30G25
 110955831.040 8  86459250.05546  21114173.563                    21114178.523
 116574846.133 7  90837676.52845  22183430.914                    22183438.074
 126420909.588 6  98510064.55943  24057116.969                    24057124.742
 109506931.322 8  85330147.101 7  20838476.391                    20838483.227
 106793181.807 8  83215542.672 8  20322040.570                    20322047.379
 124903599.604 7  97327524.948 6  23768366.383                    23768375.023
 113344970.411 8  88320828.87145  21568831.227                    21568838.469
 115094110.146 8  89683780.667 7  21901681.758                    21901691.402
 11  8 16  1 54  0.0000000  0  8G02G10G04G12G05G29G30G25
 110986859.866 8  86483428.37546  21120078.125                    21120083.199
 116657975.121 7  90902452.35845  22199249.898                    22199257.008
 126501641.975 6  98572972.92843  24072479.594                    24072488.406
 109530581.005 8  85348575.423 7  20842976.477                    20842983.277
 106775724.465 8  83201939.578 8  20318718.852                    20318725.539
 124820857.533 7  97263050.685 6  23752621.234                    23752630.309
 113323588.723 8  88304167.85346  21564762.734                    21564770.020
 115051240.802 8  89650376.027 7  21893523.672                    21893533.418
 11  8 16  1 54 30.0000000  0  8G02G10G04G12G05G29G30G25
 111018014.628 8  86507704.82846  21126006.766                    21126011.711
 116741486.563 7  90967526.20745  22215141.570                    22215149.152
 126582324.053 6  98635842.07243  24087832.430                    24087841.473
 109554797.517 8  85367445.438 7  20847584.555                    20847591.480
 106758844.809 8  83188786.625 8  20315506.531                    20315514.004
 124738084.546 6  97198552.333 6  23736869.719                    23736879.086
 113302813.929 8  88287979.72645  21560809.000                    21560816.746
 115008908.033 8  89617389.495 7  21885468.125                    21885477.691
 11  8 16  1 55  0.0000000  0  8G02G10G04G12G05G29G30G25
 111049294.660 8  86532078.89646  21131958.938                    21131964.020
 116825377.720 7  91032895.93845  22231105.133                    22231113.023
 126662955.491 6  98698671.74843  24103176.102                    24103184.613
 109579579.959 8  85386756.444 7  20852300.352                    20852307.688
 106742542.617 8  83176083.651 8  20312404.484                    20312411.273
 124655281.678 7  97134030.671 6  23721113.289                    23721121.953
 113282646.615 8  88272264.96945  21556971.602                    21556978.707
 114967113.378 8  89584822.261 7  21877515.258                    21877524.082
 11  8 16  1 55 30.0000000  0  8G02G10G04G12G05G29G30G25
 111080699.075 8  86556549.88946  21137935.422                    21137940.531
 116909645.601 7  91098559.22245  22247141.336                    22247148.750
 126743535.801 6  98761461.55343  24118509.305                    24118518.535
 109604927.149 8  85406507.497 7  20857124.328                    20857130.926
 106726818.010 8  83163830.735 8  20309411.945                    20309419.047
 124572449.537 6  97069486.184 6  23705349.977                    23705358.902
 113263087.144 8  88257023.84745  21553249.156                    21553256.930
 114925858.090 8  89552675.319 7  21869664.297                    21869673.797
 11  8 16  1 56  0.0000000  0  8G02G10G04G12G05G29G30G25
 111112227.742 8  86581117.69746  21143935.039                    21143939.801
 116994287.909 7  91164514.27545  22263248.234                    22263256.188
 126824064.958 6  98824211.55243  24133834.758                    24133843.438
 109630838.524 8  85426698.186 7  20862055.078                    20862061.797
 106711671.738 8  83152028.476 8  20306530.063                    20306536.820
 124489590.208 6  97004920.563 6  23689582.578                    23689590.934
 113244136.475 8  88242257.11946  21549642.656                    21549650.715
 114885144.129 8  89520950.192 7  21861916.406                    21861926.063
 11  8 16  1 56 30.0000000  0  8G02G10G04G12G05G29G30G25
 111143878.004 8  86605780.25646  21149958.078                    21149963.055
 117079300.693 7  91230758.01745  22279425.898                    22279433.117
 126904541.049 6  98886920.19143  24149148.828                    24149157.703
 109657311.886 8  85447326.780 7  20867092.625                    20867099.363
 106697102.293 8  83140675.692 8  20303757.305                    20303764.266
 124406703.424 7  96940333.535 6  23673810.336                    23673818.859
 113225793.619 8  88227964.00646  21546152.820                    21546160.238
 114844971.412 8  89489646.808 7  21854271.820                    21854281.063
 11  8 16  1 57  0.0000000  0  8G02G10G04G12G05G29G30G25
 111175650.829 8  86630538.31746  21156003.602                    21156008.828
 117164681.739 7  91297288.70245  22295672.984                    22295681.027
 126984964.651 6  98949587.92643  24164452.594                    24164462.070
 109684347.564 8  85468393.556 7  20872237.242                    20872243.906
 106683110.799 8  83129773.259 8  20301095.031                    20301101.746
 124323791.086 7  96875726.575 6  23658032.453                    23658041.117
 113208059.961 8  88214145.60145  21542777.867                    21542785.293
 114805342.408 8  89458767.093 7  21846730.609                    21846740.250
 11  8 16  1 57 30.0000000  0  8G02G10G04G12G05G29G30G25
 111207545.974 8  86655391.69946  21162073.172                    21162078.156
 117250428.964 7  91364104.72345  22311990.234                    22311997.477
 127065335.848 6  99012214.87443  24179746.484                    24179755.320
 109711944.104 8  85489897.354 7  20877488.656                    20877495.188
 106669697.839 8  83119321.631 8  20298542.492                    20298549.230
 124240854.796 7  96811100.963 6  23642250.156                    23642258.531
 113190936.314 7  88200802.52445  21539519.047                    21539526.824
 114766258.867 8  89428312.421 7  21839293.203                    21839302.930
 11  8 16  1 58  0.0000000  0  8G02G10G04G12G05G29G30G25
 111239562.152 8  86680339.39146  21168165.766                    21168170.918
 117336538.988 7  91431203.47445  22328375.836                    22328383.707
 127145653.725 6  99074800.28043  24195030.523                    24195038.637
 109740100.270 8  85511837.233 7  20882846.313                    20882853.324
 106656863.049 8  83109320.524 8  20296100.211                    20296106.574
 124157895.387 7  96746457.296 6  23626463.078                    23626471.535
 113174422.542 8  88187934.67745  21536376.977                    21536384.359
 114727721.653 8  89398283.459 7  21831959.820                    21831969.758
 11  8 16  1 58 30.0000000  0  8G02G10G04G12G05G29G30G25
 111271697.809 8  86705380.18246  21174280.586                    21174285.527
 117423008.401 7  91498582.25044  22344830.594                    22344838.141
 127225917.343 6  99137343.34343  24210304.305                    24210312.203
 109768814.545 8  85534211.997 7  20888310.477                    20888317.328
 106644605.726 8  83099769.392 8  20293767.656                    20293774.027
 124074913.537 7  96681796.151 6  23610672.578                    23610681.512
 113158518.416 8  88175541.86946  21533350.539                    21533358.070
 114689731.463 8  89368680.726 7  21824730.578                    21824740.031
 11  8 16  1 59  0.0000000  0  8G02G10G04G12G05G29G30G25
 111303953.110 7  86730514.21746  21180418.852                    21180423.953
 117509834.567 7  91566238.99145  22361353.398                    22361361.117
 127306127.033 6  99199844.49443  24225567.953                    24225575.238
 109798085.874 7  85557020.835 7  20893880.742                    20893887.594
 106632926.230 8  83090668.514 8  20291544.984                    20291551.570
 123991910.883 7  96617118.812 6  23594877.203                    23594886.156
 113143224.645 8  88163624.66245  21530439.766                    21530447.289
 114652290.087 8  89339505.667 7  21817605.398                    21817615.133
 11  8 16  1 59 30.0000000  0  8G02G10G04G12G05G29G30G25
 111336327.306 8  86755740.88446  21186579.430                    21186584.191
 117597015.000 7  91634171.81045  22377943.117                    22377951.137
 127386282.074 6  99262303.00743  24240820.203                    24240828.492
 109827913.581 8  85580263.219 7  20899556.828                    20899563.594
 106621824.747 8  83082018.036 8  20289432.438                    20289439.414
 123908888.305 7  96552425.926 6  23579079.258                    23579087.117
 113128541.760 8  88152183.48445  21527645.766                    21527653.125
 114615398.962 8  89310759.363 7  21810585.523                    21810594.871
 11  8 16  2  0  0.0000000  0  8G02G10G04G12G05G29G30G25
 111368818.944 7  86781059.07646  21192762.188                    21192767.426
 117684546.173 7  91702377.91845  22394599.148                    22394607.152
 127466381.764 6  99324718.35443  24256062.766                    24256071.344
 109858295.794 8  85603937.674 7  20905338.250                    20905345.078
 106611300.572 8  83073817.406 8  20287429.453                    20287436.168
 123825846.792 7  96487718.284 6  23563277.195                    23563284.156
 113114469.247 8  88141217.90445  21524967.813                    21524975.551
 114579058.583 8  89282442.214 7  21803670.328                    21803679.535
 11  8 16  2  0 30.0000000  0  8G02G10G04G12G05G29G30G25
 111401428.099 8  86806468.83146  21198967.570                    21198972.465
 117772425.477 7  91770855.31344  22411322.664                    22411330.246
 127546426.092 6  99387090.53243  24271295.117                    24271302.727
 109889231.622 8  85628043.510 7  20911225.297                    20911232.109
 106601353.965 8  83066066.830 8  20285536.781                    20285543.648
 123742788.210 7  96422997.328 6  23547471.039                    23547479.219
 113101007.719 8  88130728.41845  21522406.531                    21522413.418
 114543270.651 8  89254555.543 7  21796859.922                    21796869.258
 11  8 16  2  1  0.0000000  0  8G02G10G04G12G05G29G30G25
 111434153.515 8  86831969.18346  21205195.281                    21205200.445
 117860649.709 7  91839601.47444  22428110.906                    22428118.715
 127626414.330 6  99449419.00243  24286516.867                    24286524.207
 109920719.734 8  85652579.713 7  20917217.203                    20917223.840
 106591984.422 8  83058765.917 8  20283753.711                    20283760.578
 123659712.926 7  96358263.367 6  23531662.320                    23531669.988
 113088156.977 8  88120714.87345  21519960.688                    21519968.355
 114508036.001 8  89227099.997 7  21790155.367                    21790164.598
 11  8 16  2  1 30.0000000  0  9G02G26G10G04G12G05G29G30G25
 111466995.541 8  86857560.40346  21211444.313                    21211449.371
 130458632.06616 101656135.29153  24825458.875                    24825467.035
 117949216.905 7  91908614.87144  22444964.508                    22444972.379
 127706346.906 6  99511704.12443  24301728.172                    24301735.129
 109952758.973 7  85677545.362 7  20923313.898                    20923320.965
 106583192.466 8  83051915.067 8  20282080.602                    20282087.457
 123576622.957 7  96293518.001 6  23515851.383                    23515859.137
 113075917.907 8  88111177.95145  21517631.773                    21517639.258
 114473356.467 8  89200077.012 7  21783555.641                    21783564.980
 11  8 16  2  2  0.0000000  0  9G02G26G10G04G12G05G29G30G25
 111499952.396 8  86883241.09146  21217715.977                    21217720.676
 130366026.119 6 101583974.91843  24807836.203                    24807845.496
 118038123.466 7  91977892.70444  22461883.188                    22461891.203
 127786222.622 6  99573944.95643  24316926.391                    24316934.746
 109985347.597 8  85702939.091 7  20929515.781                    20929522.293
 106574977.118 8  83045513.519 8  20280517.523                    20280524.348
 123493519.047 7  96228761.746 6  23500036.922                    23500044.254
 113064289.853 8  88102117.13845  21515419.078                    21515426.430
 114439232.501 8  89173486.929 7  21777062.172                    21777071.559
 11  8 16  2  2 30.0000000  0  9G02G26G10G04G12G05G29G30G25
 111533024.053 8  86909011.24846  21224009.680                    21224014.074
 130273289.303 6 101511712.53543  24790188.984                    24790198.492
 118127366.995 7  92047433.12544  22478865.883                    22478873.492
 127866041.692 6  99636141.61443  24332116.406                    24332124.762
 110018484.810 8  85728760.307 7  20935821.539                    20935828.355
 106567338.723 8  83039561.552 8  20279063.875                    20279070.793
 123410402.564 7  96163995.707 6  23484220.195                    23484227.930
 113053273.406 8  88093532.91845  21513322.602                    21513330.176
 114405665.621 8  89147330.947 7  21770674.688                    21770684.043
 11  8 16  2  3  0.0000000  0  9G02G26G10G04G12G05G29G30G25
 111566210.004 8  86934870.44646  21230324.313                    21230329.496
 130180424.317 6 101439350.35443  24772517.336                    24772526.777
 118216944.512 7  92117233.78044  22495911.781                    22495918.723
 127945803.495 6  99698293.70743  24347293.383                    24347302.527
 110052169.067 8  85755007.783 7  20942231.523                    20942238.090
 106560276.872 8  83034058.833 8  20277720.031                    20277726.645
 123327274.909 7  96099220.996 6  23468400.492                    23468409.551
 113042868.421 8  88085425.14545  21511342.844                    21511350.406
 114372656.783 8  89121609.805 7  21764393.047                    21764402.879
 11  8 16  2  3 30.0000000  0  9G02G26G10G04G12G05G29G30G25
 111599509.286 8  86960817.95446  21236661.023                    21236666.098
 130087433.973 6 101366890.42543  24754822.125                    24754831.320
 118306853.018 7  92187292.35844  22513020.859                    22513027.711
 128025507.662 6  99760400.89543  24362460.625                    24362470.371
 110086398.970 8  85781680.435 7  20948744.867                    20948751.543
 106553791.472 8  83029005.296 8  20276485.875                    20276492.469
 123244137.274 6  96034438.485 6  23452580.391                    23452588.930
 113033074.915 8  88077793.85445  21509479.023                    21509486.633
 114340207.050 8  89096324.326 7  21758217.852                    21758227.598
 11  8 16  2  4  0.0000000  0  9G02G26G10G04G12G05G29G30G25
 111632921.304 8  86986853.32146  21243019.305                    21243024.398
 129994321.109 6 101294335.05043  24737102.422                    24737112.613
 118397089.451 7  92257606.46044  22530192.570                    22530199.914
 128105153.942 6  99822462.94943  24377617.281                    24377626.168
 110121172.989 8  85808777.062 7  20955362.547                    20955369.156
 106547881.832 8  83024400.411 8  20275361.383                    20275368.129
 123160990.663 6  95969648.988 6  23436757.930                    23436766.191
 113023892.753 7  88070638.93945  21507731.578                    21507739.570
 114308317.327 8  89071475.215 7  21752149.594                    21752159.336
 11  8 16  2  4 30.0000000  0  9G02G26G10G04G12G05G29G30G25
 111666445.786 8  87012976.30046  21249398.680                    21249403.746
 129901088.673 6 101221686.48943  24719361.688                    24719370.336
 118487651.201 7  92328174.04344  22547425.602                    22547433.391
 128184742.172 7  99884479.78343  24392762.688                    24392771.277
 110156489.908 8  85836296.734 7  20962083.195                    20962089.582
 106542547.757 8  83020244.013 8  20274346.070                    20274353.082
 123077836.712 6  95904853.795 6  23420934.102                    23420942.684
 113015322.184 8  88063960.59245  21506101.117                    21506108.254
 114276988.898 8  89047063.475 7  21746187.906                    21746197.496
 11  8 16  2  5  0.0000000  0  9G02G26G10G04G12G05G29G30G25
 111700081.364 7  87039185.86546  21255799.523                    21255804.023
 129807739.187 6 101148946.75743  24701597.672                    24701606.523
 118578534.874 7  92398992.47344  22564720.703                    22564727.793
 128264271.615 7  99946450.77643  24407896.805                    24407905.000
 110192347.790 8  85864237.934 7  20968906.414                    20968913.355
 106537788.607 8  83016535.610 8  20273440.672                    20273447.488
 122994676.324 7  95840053.550 6  23405110.031                    23405117.992
 113007362.601 8  88057758.33345  21504585.914                    21504593.324
 114246222.239 8  89023089.480 7  21740333.391                    21740342.449
 11  8 16  2  5 30.0000000  0  9G02G26G10G04G12G05G29G30G25
 111733827.639 7  87065481.68246  21262221.078                    21262225.906
 129714275.845 6 101076118.30043  24683811.836                    24683821.316
 118669737.812 7  92470059.67744  22582075.891                    22582082.535
 128343742.141 7 100008375.87943  24423019.539                    24423027.379
 110228745.770 8  85892599.989 7  20975832.445                    20975839.414
 106533604.173 8  83013275.033 8  20272644.055                    20272650.844
 122911510.606 7  95775249.195 6  23389283.453                    23389292.168
 113000014.089 8  88052032.22545  21503187.719                    21503195.477
 114216018.518 8  88999554.128 7  21734586.117                    21734594.621
 11  8 16  2  6  0.0000000  0  9G02G26G10G04G12G05G29G30G25
 111767684.494 8  87091863.66346  21268663.719                    21268668.508
 129620701.567 6 101003203.37943  24666004.703                    24666014.258
 118761257.455 7  92541373.69244  22599491.203                    22599498.289
 128423153.743 7 100070255.04043  24438131.047                    24438138.516
 110265681.909 8  85921381.392 7  20982861.313                    20982867.883
 106529994.530 8  83010462.354 8  20271957.516                    20271964.285
 122828341.525 7  95710442.235 6  23373456.742                    23373465.371
 112993276.866 8  88046782.43746  21501905.867                    21501913.461
 114186379.050 8  88976458.444 7  21728945.516                    21728954.809
 11  8 16  2  6 30.0000000  0  9G02G26G10G04G12G05G29G30G25
 111801651.431 7  87118331.41746  21275127.172                    21275132.484
 129527019.555 6 100930204.55243  24648178.383                    24648187.461
 118853090.794 7  92612932.14444  22616966.898                    22616973.590
 128502506.033 6 100132088.05342  24453230.625                    24453238.000
 110303155.154 8  85950581.311 7  20989992.203                    20989999.004
 106526959.165 8  83008097.146 8  20271379.664                    20271386.477
 122745170.041 7  95645633.367 6  23357630.117                    23357638.156
 112987150.740 8  88042008.84845  21500740.000                    21500747.906
 114157304.651 8  88953803.099 7  21723412.656                    21723422.375
 11  8 16  2  7  0.0000000  0  9G02G26G10G04G12G05G29G30G25
 111835727.223 8  87144883.99746  21281611.664                    21281616.488
 129433232.248 6 100857123.64843  24630330.555                    24630340.047
 118945234.738 7  92684732.61844  22634500.977                    22634508.543
 128581798.556 6 100193874.45742  24468319.313                    24468326.855
 110341163.716 8  85980198.372 7  20997225.336                    20997232.199
 106524497.529 8  83006179.015 8  20270911.523                    20270918.262
 122661997.667 7  95580823.822 6  23341802.648                    23341811.109
 112981635.295 8  88037711.09745  21499690.609                    21499697.801
 114128795.983 8  88931588.566 7  21717987.742                    21717997.246
 11  8 16  2  7 30.0000000  0  9G02G26G10G04G12G05G29G30G25
 111869911.383 8  87171521.00746  21288116.953                    21288121.820
 129339342.857 6 100783963.24043  24612463.633                    24612473.656
 119037686.233 7  92756772.74845  22652094.211                    22652101.609
 128661030.950 6 100255613.98142  24483396.203                    24483405.195
 110379705.537 8  86010230.946 7  21004559.477                    21004565.941
 106522608.502 8  83004707.072 8  20270551.680                    20270558.516
 122578825.546 7  95516014.482 6  23325975.484                    23325983.703
 112976730.184 8  88033888.94846  21498757.047                    21498764.621
 114100853.782 8  88909815.446 7  21712670.523                    21712679.699
 11  8 16  2  8  0.0000000  0  9G02G26G10G04G12G05G29G30G25
 111904203.814 8  87198242.38946  21294642.500                    21294647.129
 129245354.173 6 100710725.36043  24594578.438                    24594587.617
 119130442.703 7  92829050.51744  22669745.250                    22669752.160
 128740203.222 6 100317306.69643  24498462.195                    24498471.711
 110418779.585 8  86040678.251 7  21011995.047                    21012001.590
 106521292.194 8  83003681.399 8  20270301.453                    20270307.645
 122495655.180 7  95451206.476 6  23310148.656                    23310156.406
 112972435.458 7  88030542.41846  21497939.836                    21497947.500
 114073479.183 8  88888484.602 7  21707460.945                    21707470.980
 11  8 16  2  8 30.0000000  0  9G02G26G10G04G12G05G29G30G25
 111938603.683 8  87225047.49846  21301188.414                    21301193.266
 129151269.329 6 100637412.60943  24576674.227                    24576683.688
 119223501.060 7  92901563.52944  22687453.063                    22687460.602
 128819314.942 6 100378952.18043  24513517.609                    24513526.125
 110458384.402 8  86071539.134 7  21019531.633                    21019538.445
 106520547.895 8  83003101.444 8  20270159.703                    20270166.199
 122412487.724 6  95386400.744 6  23294322.422                    23294330.168
 112968750.709 8  88027671.19246  21497238.711                    21497246.160
 114046672.868 8  88867596.588 7  21702360.289                    21702369.441
 11  8 16  2  9  0.0000000  0  9G02G26G10G04G12G05G29G30G25
 111973110.372 8  87251935.83146  21307755.063                    21307759.855
 129057091.351 6 100564027.31043  24558753.094                    24558761.879
 119316858.312 7  92974309.41744  22705218.172                    22705226.523
 128898366.020 6 100440550.43843  24528560.375                    24528568.805
 110498517.907 8  86102811.990 7  21027169.133                    21027175.676
 106520375.222 8  83002966.910 8  20270126.625                    20270133.367
 122329324.753 7  95321598.514 6  23278497.250                    23278505.133
 112965675.689 8  88025275.09246  21496653.367                    21496660.879
 114020435.692 8  88847152.050 7  21697367.680                    21697376.668
 11  8 16  2  9 30.0000000  0  9G02G26G10G04G12G05G29G30G25
 112007723.436 8  87278907.06846  21314341.703                    21314346.555
 128962823.128 6 100490571.62843  24540814.531                    24540823.242
 119410511.889 6  93047286.22344  22723040.258                    22723048.191
 128977356.120 6 100502101.15143  24543591.906                    24543600.098
 110539178.654 8  86134495.688 7  21034906.766                    21034913.230
 106520773.557 8  83003277.321 8  20270202.773                    20270209.398
 122246167.424 7  95256800.691 6  23262672.383                    23262681.066
 112963210.091 7  88023353.85746  21496184.328                    21496191.809
 113994768.471 8  88827151.633 7  21692483.141                    21692492.855
 11  8 16  2 10  0.0000000  0  9G02G26G10G04G12G05G29G30G25
 112042442.463 8  87305960.86746  21320948.320                    21320953.004
 128868467.767 6 100417048.04043  24522859.484                    24522867.887
 119504458.735 7  93120491.55544  22740918.328                    22740925.270
 129056285.028 6 100563604.17543  24558611.656                    24558619.996
 110580365.183 8  86166589.080 7  21042743.773                    21042750.289
 106521742.310 8  83004032.217 8  20270387.070                    20270393.871
 122163017.238 7  95192008.397 6  23246849.945                    23246857.457
 112961353.572 8  88021907.23346  21495831.156                    21495838.629
 113969671.944 8  88807595.928 7  21687707.273                    21687717.078
 11  8 16  2 10 30.0000000  0  9G02G26G10G04G12G05G29G30G25
 112077266.701 8  87333096.65046  21327575.367                    21327580.266
 128774028.036 6 100343458.73943  24504887.711                    24504896.730
 119598695.880 7  93193923.09344  22758850.367                    22758857.965
 129135152.435 6 100625059.31643  24573619.688                    24573627.996
 110622075.458 8  86199090.582 7  21050680.883                    21050687.523
 106523280.496 8  83005230.818 8  20270679.672                    20270686.145
 122079875.615 7  95127222.776 6  23231028.203                    23231036.617
 112960105.483 7  88020934.70946  21495593.430                    21495600.426
 113945146.595 8  88788485.284 7  21683040.422                    21683050.063
 11  8 16  2 11  0.0000000  0  9G02G26G10G04G12G05G29G30G25
 112112195.560 7  87360313.95246  21334222.133                    21334227.137
 128679507.113 6 100269806.18743  24486900.086                    24486910.191
 119693220.555 7  93267578.68144  22776837.594                    22776844.539
 129213958.141 6 100686466.33143  24588615.797                    24588623.426
 110664307.714 8  86231998.821 7  21058717.492                    21058724.008
 106525387.818 8  83006872.907 8  20271080.586                    20271087.473
 121996743.966 7  95062444.973 6  23215208.531                    23215216.398
 112959465.684 8  88020436.18746  21495471.758                    21495479.035
 113921193.296 8  88769820.394 7  21678482.039                    21678492.035
 11  8 16  2 11 30.0000000  0  9G02G26G10G04G12G05G29G30G25
 112147228.489 8  87387612.34946  21340888.531                    21340893.133
 128584907.955 6 100196092.69743  24468898.867                    24468908.891
 119788029.876 7  93341456.10844  22794880.250                    22794885.855
 129292702.021 6 100747825.20943  24603601.016                    24603608.918
 110707060.229 8  86265312.471 7  21066853.023                    21066859.652
 106528063.419 8  83008957.811 8  20271589.656                    20271596.496
 121913623.698 7  94997675.995 6  23199391.336                    23199399.398
 112959433.598 7  88020411.19746  21495465.555                    21495472.809
 113897812.685 8  88751601.767 7  21674033.156                    21674042.488
 11  8 16  2 12  0.0000000  0  9G02G26G10G04G12G05G29G30G25
 112182365.332 7  87414991.71846  21347574.711                    21347579.508
 128490233.822 6 100122320.73443  24450883.867                    24450892.504
 119883120.992 7  93415553.08744  22812974.836                    22812981.824
 129371383.880 7 100809135.79043  24618572.531                    24618580.703
 110750331.655 8  86299030.464 7  21075087.086                    21075093.707
 106531307.084 8  83011485.354 8  20272206.836                    20272213.371
 121830516.173 7  94932916.944 6  23183576.281                    23183584.121
 112960008.938 7  88020859.53646  21495575.188                    21495582.484
 113875005.578 8  88733830.020 7  21669692.938                    21669702.453
 11  8 16  2 12 30.0000000  0  9G02G26G10G04G12G05G29G30G25
 112217605.673 7  87442451.73746  21354280.875                    21354285.605
 128395487.753 6 100048492.78943  24432853.914                    24432862.496
 119978491.176 6  93489867.51444  22831122.813                    22831130.246
 129450003.533 6 100870397.87743  24633533.953                    24633541.402
 110794119.870 8  86333151.144 7  21083419.758                    21083426.887
 106535118.000 8  83014454.916 8  20272932.414                    20272938.734
 121747423.112 7  94868169.199 6  23167763.828                    23167772.098
 112961191.204 7  88021780.79046  21495800.211                    21495807.340
 113852772.570 8  88716505.619 7  21665461.969                    21665471.656
 11  8 16  2 13  0.0000000  0  9G02G26G10G04G12G05G29G30G25
 112252948.410 7  87469991.54546  21361006.531                    21361011.414
 128300672.521 7  99974610.87743  24414810.727                    24414819.840
 120074136.891 6  93564396.62644  22849323.922                    22849331.309
 129528560.648 7 100931611.21843  24648482.531                    24648490.953
 110838422.856 8  86367672.938 7  21091850.398                    21091857.086
 106539494.641 8  83017865.312 8  20273765.086                    20273771.820
 121664345.503 7  94803433.468 6  23151955.164                    23151963.164
 112962979.555 8  88023174.32846  21496140.516                    21496147.477
 113831113.915 8  88699628.780 7  21661340.406                    21661350.438
 11  8 16  2 13 30.0000000  0  9G02G26G10G04G12G05G29G30G25
 112288393.282 7  87497610.93746  21367751.258                    21367755.824
 128205791.195 7  99900677.47143  24396756.031                    24396764.539
 120170055.569 7  93639138.43944  22867577.336                    22867583.438
 129607055.105 6 100992775.75743  24663420.414                    24663427.738
 110883239.299 8  86402594.836 7  21100378.633                    21100385.367
 106544436.664 8  83021716.259 8  20274705.344                    20274711.789
 121581284.888 7  94738710.969 6  23136149.328                    23136156.770
 112965373.588 8  88025039.82246  21496596.313                    21496603.094
 113810030.388 8  88683200.070 7  21657328.461                    21657338.117
 11  8 16  2 14  0.0000000  0  9G02G26G10G04G12G05G29G30G25
 112323940.021 7  87525309.71146  21374515.703                    21374520.422
 128110847.293 6  99826695.28243  24378688.047                    24378697.242
 120266244.532 7  93714090.87844  22885881.453                    22885887.617
 129685486.940 6 101053891.47943  24678344.766                    24678352.832
 110928566.954 8  86437915.088 7  21109004.500                    21109011.492
 106549943.756 8  83026007.517 8  20275753.109                    20275760.012
 121498242.952 7  94674003.062 6  23120346.836                    23120354.883
 112968372.835 8  88027376.92546  21497167.078                    21497174.180
 113789522.616 8  88667220.015 7  21653426.117                    21653435.129
 11  8 16  2 14 30.0000000  0  8G02G26G10G12G05G29G30G25
 112359588.252 8  87553087.56146  21381299.477                    21381304.438
 128015843.716 7  99752666.61843  24360609.016                    24360618.555
 120362700.755 7  93789251.57744  22904236.133                    22904242.844
 110974404.330 8  86473632.512 7  21117727.117                    21117733.715
 106556014.778 8  83030738.199 8  20276908.570                    20276915.137
 121415221.293 7  94609310.943 6  23104548.109                    23104555.895
 112971976.801 7  88030185.22146  21497852.313                    21497859.457
 113769591.228 8  88651689.085 7  21649633.133                    21649642.648
 11  8 16  2 15  0.0000000  0  8G02G26G10G12G05G29G30G25
 112395337.033 8  87580943.77346  21388101.961                    21388106.801
 127920783.651 7  99678593.91043  24342520.266                    24342529.348
 120459421.233 7  93864618.18844  22922640.656                    22922648.539
 111020749.193 8  86509745.392 7  21126546.102                    21126552.965
 106562648.761 8  83035907.552 8  20278170.930                    20278177.578
 121332221.089 7  94544635.539 6  23088753.609                    23088761.242
 112976184.597 7  88033464.03346  21498653.211                    21498660.039
 113750236.415 8  88636607.435 7  21645949.938                    21645959.496
 11  8 16  2 15 30.0000000  0  8G02G26G10G12G05G29G30G25
 112431186.069 8  87608878.09046  21394924.102                    21394929.125
 127825669.860 7  99604479.27543  24324420.836                    24324429.117
 120556403.230 6  93940188.55944  22941095.852                    22941102.723
 111067599.817 8  86546252.366 7  21135461.508                    21135468.191
 106569844.705 8  83041514.798 8  20279540.070                    20279546.973
 121249243.790 7  94479977.975 6  23072963.227                    23072971.020
 112980995.517 7  88037212.81445  21499568.727                    21499576.313
 113731458.642 8  88621975.429 7  21642376.836                    21642386.496
 11  8 16  2 16  0.0000000  0  8G02G26G10G12G05G29G30G25
 112467135.159 8  87636890.37746  21401765.070                    21401769.434
 127730505.838 6  99530325.54542  24306311.531                    24306319.520
 120653643.704 6  94015960.35644  22959600.063                    22959607.422
 111114953.994 8  86583151.716 7  21144472.625                    21144479.496
 106577602.244 8  83047559.647 8  20281016.719                    20281023.203
 121166291.240 7  94415339.683 6  23057178.211                    23057186.129
 112986409.070 8  88041431.18246  21500599.023                    21500606.203
 113713258.566 8  88607793.572 7  21638913.500                    21638922.961
 11  8 16  2 16 30.0000000  0  8G02G26G10G12G05G29G30G25
 112503183.753 8  87664980.20346  21408624.656                    21408629.332
 127635294.660 6  99456135.09843  24288193.219                    24288201.711
 120751140.162 6  94091931.64644  22978152.805                    22978160.277
 111162810.215 8  86620442.268 7  21153579.500                    21153586.063
 106585920.453 8  83054041.391 8  20282599.617                    20282605.895
 121083364.834 7  94350721.761 6  23041397.828                    23041405.438
 112992424.433 8  88046118.48546  21501743.398                    21501750.875
 113695636.552 8  88594062.165 7  21635560.320                    21635569.934
 11  8 16  2 17  0.0000000  0  8G02G26G10G12G05G29G30G25
 112539331.122 8  87693146.99946  21415502.859                    21415507.547
 127540039.380 6  99381910.28843  24270066.898                    24270074.930
 120848889.163 6  94168099.69744  22996753.898                    22996762.133
 111211165.859 8  86658121.998 7  21162781.289                    21162787.703
 106594797.779 8  83060958.813 8  20284288.625                    20284295.414
 121000465.960 7  94286125.299 6  23025622.195                    23025630.445
 112999040.765 8  88051274.08346  21503002.297                    21503009.820
 113678592.884 8  88580781.396 7  21632316.477                    21632326.379
 11  8 16  2 17 30.0000000  0  8G02G26G10G12G05G29G30G25
 112575577.176 8  87721390.69046  21422400.516                    21422405.012
 127444743.275 7  99307653.65843  24251932.156                    24251940.699
 120946888.300 6  94244462.64544  23015402.219                    23015410.207
 111260019.576 8  86696189.825 7  21172077.578                    21172084.488
 106604233.665 8  83068311.466 8  20286084.359                    20286090.930
 120917596.265 7  94221551.577 7  23009852.680                    23009860.871
 113006257.456 7  88056897.49146  21504375.945                    21504383.035
 113662128.004 8  88567951.639 7  21629183.461                    21629193.430
 11  8 16  2 18  0.0000000  0  8G02G26G10G12G05G29G30G25
 112611921.255 7  87749710.76946  21429316.195                    21429321.000
 127349409.235 7  99233367.50143  24233790.227                    24233799.551
 121045134.249 6  94321017.92744  23034098.727                    23034106.473
 111309368.777 8  86734643.746 7  21181468.461                    21181475.133
 106614226.785 8  83076098.327 8  20287985.781                    20287992.488
 120834757.232 7  94157001.745 7  22994089.109                    22994097.191
 113014073.320 7  88062987.79046  21505863.125                    21505870.254
 113646241.987 8  88555572.950 7  21626160.516                    21626169.762
 11  8 16  2 18 30.0000000  0  8G02G26G10G12G05G29G30G25
 112648363.039 8  87778106.98046  21436251.039                    21436256.086
 127254040.789 7  99159054.51543  24215642.570                    24215651.188
 121143624.499 7  94397763.57344  23052840.625                    23052848.598
 111359211.770 8  86773482.434 7  21190953.391                    21190960.043
 106624776.632 8  83084319.004 8  20289993.430                    20290000.289
 120751950.473 7  94092477.068 6  22978331.398                    22978339.465
 113022487.867 8  88069544.59646  21507464.422                    21507471.473
 113630935.430 8  88543645.787 7  21623247.625                    21623257.742
 11  8 16  2 19  0.0000000  0  8G02G26G10G12G05G29G30G25
 112684902.082 8  87806578.97046  21443204.453                    21443208.906
 127158640.909 7  99084717.05843  24197488.742                    24197497.516
 121242356.099 6  94474697.29344  23071628.922                    23071636.102
 111409546.752 8  86812704.494 7  21200531.727                    21200538.449
 106635881.940 8  83092972.510 8  20292106.703                    20292113.371
 120669177.392 7  94027978.627 6  22962580.203                    22962588.141
 113031500.202 7  88076567.20746  21509178.938                    21509187.051
 113616208.587 8  88532170.342 7  21620445.391                    21620455.109
 11  8 16  2 19 30.0000000  0  8G02G26G10G12G05G29G30G25
 112721538.184 8  87835126.59646  21450175.828                    21450180.465
 127063212.933 7  99010357.62943  24179329.117                    24179337.480
 121341325.954 7  94551816.65344  23090462.234                    23090469.633
 111460371.574 8  86852308.240 7  21210203.656                    21210210.242
 106647541.781 8  83102058.112 8  20294325.141                    20294332.004
 120586439.894 7  93963507.928 6  22946835.813                    22946843.488
 113041109.380 8  88084054.87646  21511007.891                    21511015.258
 113602061.579 8  88521146.714 7  21617753.539                    21617762.992
 11  8 16  2 20  0.0000000  0  8G02G26G10G12G05G29G30G25
 112758270.898 8  87863749.50845  21457165.914                    21457170.695
 126967760.084 6  98935978.83243  24161165.438                    24161173.949
 121440531.377 6  94629119.58344  23109339.680                    23109346.961
 111511683.790 8  86892291.776 7  21219967.672                    21219974.625
 106659755.141 8  83111575.040 8  20296649.406                    20296656.027
 120503739.431 7  93899066.068 6  22931098.383                    22931105.984
 113051314.629 7  88092007.03345  21512949.773                    21512957.234
 113588494.948 8  88510575.334 7  21615171.852                    21615180.801
 11  8 16  2 20 30.0000000  0  8G02G26G10G12G05G29G30G25
 112795099.745 8  87892447.32346  21464174.203                    21464178.719
 126872285.531 6  98861583.12543  24142996.961                    24143005.473
 121539969.748 7  94706604.03944  23128263.039                    23128270.039
 111563481.499 8  86932653.618 7  21229824.398                    21229831.219
 106672520.953 8  83121522.445 8  20299078.930                    20299085.414
 120421077.531 7  93834654.281 6  22915368.242                    22915375.895
 113062114.924 7  88100422.86245  21515005.281                    21515012.453
 113575508.709 8  88500456.194 7  21612700.570                    21612709.945
 11  8 16  2 21  0.0000000  0  8G02G26G10G12G05G29G30G25
 112832024.517 8  87921219.89146  21471200.867                    21471205.535
 126776792.511 6  98787173.04843  24124825.031                    24124833.934
 121639638.334 7  94784267.86544  23147228.469                    23147235.633
 111615762.706 8  86973392.223 7  21239773.438                    21239780.055
 106685838.106 8  83131899.464 8  20301613.000                    20301619.789
 120338455.817 7  93770273.777 6  22899645.859                    22899653.500
 113073509.357 8  88109301.64546  21517173.313                    21517180.453
 113563103.100 8  88490789.512 7  21610339.852                    21610348.992
 11  8 16  2 21 30.0000000  0  8G02G26G10G12G05G29G30G25
 112869044.407 8  87950066.57846  21478245.352                    21478249.980
 126681284.247 6  98712751.04843  24106650.477                    24106658.859
 121739533.843 7  94862108.53544  23166239.430                    23166245.840
 111668525.080 8  87014505.755 7  21249813.719                    21249820.418
 106699705.301 8  83142705.086 8  20304251.805                    20304258.207
 120255875.925 7  93705925.889 6  22883931.227                    22883938.980
 113085496.672 8  88118642.42446  21519454.469                    21519461.430
 113551278.118 8  88481575.244 7  21608089.477                    21608098.828
 11  8 16  2 22  0.0000000  0  8G02G26G10G12G05G29G30G25
 112906159.467 8  87978987.43046  21485308.133                    21485312.645
 126585764.071 6  98638319.76643  24088473.125                    24088481.672
 121839653.532 7  94940123.91044  23185291.133                    23185297.191
 111721766.897 8  87055992.892 7  21259945.281                    21259952.168
 106714121.438 8  83153938.459 8  20306995.172                    20307001.645
 120173339.509 7  93641611.850 7  22868224.898                    22868233.297
 113098076.032 8  88128444.53245  21521848.164                    21521855.578
 113540034.050 8  88472813.657 7  21605949.570                    21605958.957
 11  8 16  2 22 30.0000000  0  8G02G26G10G12G05G29G30G25
 112943369.694 8  88007982.42746  21492388.984                    21492393.707
 126490235.403 6  98563881.91943  24070294.844                    24070303.523
 121939994.778 7  95018311.90543  23204385.227                    23204392.246
 111775485.760 8  87097851.727 7  21270167.484                    21270174.551
 106729085.692 8  83165598.944 8  20309842.805                    20309849.410
 120090848.317 7  93577333.074 6  22852527.508                    22852535.457
 113111246.691 8  88138707.39346  21524354.078                    21524361.840
 113529371.201 8  88464504.955 7  21603920.695                    21603930.012
 11  8 16  2 23  0.0000000  0  8G02G26G10G12G05G29G30G25
 112980673.975 8  88037050.71746  21499487.539                    21499492.258
 126394701.175 6  98489439.70643  24052114.875                    24052124.406
 122040554.524 7  95096670.15844  23223520.125                    23223528.031
 111829679.400 8  87140080.535 7  21280480.555                    21280487.129
 106744596.443 8  83177685.254 8  20312794.406                    20312800.883
 120008403.895 7  93513090.749 7  22836838.805                    22836846.648
 113125007.092 8  88149429.78745  21526972.813                    21526980.211
 113519289.234 8  88456648.892 7  21602002.219                    21602011.563
 11  8 16  2 23 30.0000000  0  8G02G26G10G12G05G29G30G25
 113018072.265 8  88066192.25546  21506604.422                    21506608.902
 126299164.891 6  98414995.90443  24033936.109                    24033943.746
 122141330.046 6  95175196.50644  23242697.438                    23242705.227
 111884345.218 8  87182677.263 7  21290882.633                    21290889.914
 106760652.641 8  83190196.599 8  20315849.789                    20315856.332
 119926007.855 7  93448886.086 6  22821159.508                    22821166.895
 113139356.236 8  88160610.93545  21529703.156                    21529710.500
 113509788.315 8  88449245.590 7  21600194.391                    21600203.441
 11  8 16  2 24  0.0000000  0  8G02G26G10G12G05G29G30G25
 113055564.331 8  88095406.86946  21513738.906                    21513743.727
 126203629.856 6  98340553.06843  24015755.555                    24015763.980
 122242318.378 6  95253888.71844  23261915.328                    23261922.395
 111939481.483 8  87225640.574 7  21301374.898                    21301381.977
 106777253.248 8  83203132.151 8  20319008.570                    20319015.402
 119843661.990 7  93384720.555 6  22805489.781                    22805497.395
 113154293.114 8  88172250.06645  21532545.477                    21532553.453
 113500868.616 8  88442295.186 7  21598496.852                    21598506.277
 11  8 16  2 24 30.0000000  0  8G02G26G10G12G05G29G30G25
 113093149.765 8  88124694.23046  21520891.078                    21520896.055
 126108099.278 6  98266113.73243  23997576.555                    23997585.547
 122343516.563 6  95332744.43143  23281172.594                    23281179.789
 111995085.479 8  87268968.355 7  21311956.125                    21311962.719
 106794396.316 8  83216490.399 8  20322270.922                    20322277.305
 119761367.556 7  93320595.079 6  22789828.906                    22789836.988
 113169816.329 8  88184346.07645  21535499.734                    21535507.156
 113492529.815 8  88435797.435 7  21596909.984                    21596919.656
 11  8 16  2 25  0.0000000  0  8G02G26G10G12G05G29G30G25
 113130828.082 8  88154053.97346  21528060.664                    21528065.750
 126012576.296 6  98191680.31843  23979399.648                    23979408.246
 122444921.771 7  95411761.48844  23300469.352                    23300476.422
 112051155.169 8  87312659.033 7  21322625.570                    21322632.512
 106812080.715 8  83230270.464 8  20325636.305                    20325642.563
 119679126.538 7  93256511.251 7  22774178.734                    22774186.852
 113185924.728 7  88196898.07045  21538565.281                    21538572.344
 113484771.919 8  88429752.327 7  21595433.852                    21595443.074
 11  8 16  2 25 30.0000000  0  8G02G26G10G12G05G29G30G25
 113168598.957 8  88183485.84046  21535248.484                    21535253.043
 125917064.464 6  98117255.56043  23961224.203                    23961233.164
 122546531.546 7  95490937.94844  23319805.133                    23319812.223
 112107688.509 8  87356710.966 7  21333383.781                    21333390.324
 106830305.723 8  83244471.797 8  20329103.906                    20329110.629
 119596940.665 7  93192470.391 7  22758539.664                    22758547.547
 113202617.280 7  88209905.26545  21541741.453                    21541748.887
 113477595.236 8  88424160.107 7  21594067.867                    21594076.961
 11  8 16  2 26  0.0000000  0  8G02G26G10G12G05G29G30G25
 113206462.199 8  88212989.67745  21542453.656                    21542458.164
 125821566.938 6  98042841.97144  23943051.609                    23943059.766
 122648342.864 7  95570271.46144  23339179.477                    23339186.699
 112164683.221 8  87401122.431 7  21344229.609                    21344235.938
 106849069.885 8  83259093.233 8  20332674.984                    20332681.207
 119514811.745 7  93128473.878 6  22742911.102                    22742918.477
 113219892.764 7  88223366.68445  21545028.758                    21545036.480
 113470999.411 8  88419020.514 7  21592812.539                    21592821.816
 11  8 16  2 26 30.0000000  0  8G02G26G10G12G05G29G30G25
 113244417.785 8  88242565.46746  21549676.563                    21549681.180
 125726087.238 6  97968442.25844  23924882.094                    23924891.207
 122750353.144 7  95649760.00744  23358591.625                    23358598.156
 112222136.732 8  87445891.392 7  21355162.531                    21355169.441
 106868371.920 8  83274133.800 8  20336347.781                    20336354.266
 119432741.436 7  93064523.052 6  22727293.313                    22727300.734
 113237749.819 7  88237281.28345  21548427.031                    21548434.340
 113464984.460 8  88414333.547 7  21591668.258                    21591677.492
 11  8 16  2 27  0.0000000  0  8G02G26G10G12G05G29G30G25
 113282465.189 8  88272212.80945  21556916.164                    21556920.996
 125630628.726 6  97894059.06943  23906716.688                    23906725.680
 122852559.359 7  95729401.21744  23378040.188                    23378047.965
 112280046.871 7  87491016.166 7  21366182.148                    21366188.992
 106888210.097 8  83289592.131 8  20340122.891                    20340129.590
 119350731.362 7  93000619.176 6  22711686.867                    22711694.836
 113256187.200 8  88251648.07845  21551935.531                    21551942.996
 113459550.208 8  88410099.064 7  21590634.430                    21590643.539
 11  8 16  2 27 30.0000000  0  8G02G26G10G12G05G29G30G25
 113320604.055 8  88301931.41346  21564174.242                    21564179.133
 125535194.671 6  97819694.92743  23888556.156                    23888565.270
 122954959.016 7  95809193.15044  23397526.367                    23397533.563
 112338411.241 7  87536494.879 7  21377288.852                    21377295.977
 106908583.298 8  83305467.381 8  20344000.055                    20344006.395
 119268783.094 7  92936763.450 7  22696092.734                    22696100.855
 113275203.644 8  88266466.07945  21555554.289                    21555561.332
 113454696.481 8  88406316.946 7  21589710.336                    21589719.957
 11  8 16  2 28  0.0000000  0  8G02G26G10G12G05G29G30G25
 113358834.449 8  88331721.33245  21571448.898                    21571454.148
 125439788.452 6  97745352.47243  23870400.898                    23870409.410
 123057548.896 7  95889133.32744  23417048.109                    23417055.652
 112397227.359 7  87582325.612 7  21388481.258                    21388488.176
 106929490.154 8  83321758.458 8  20347978.367                    20347984.566
 119186898.963 7  92872957.692 6  22680511.578                    22680519.000
 113294797.715 8  88281734.19346  21559282.969                    21559290.652
 113450423.116 8  88402987.056 7  21588896.992                    21588906.281
 11  8 16  2 28 30.0000000  0  8G02G26G10G12G05G29G30G25
 113397155.685 8  88361582.04945  21578741.211                    21578746.227
 125344413.403 6  97671034.28543  23852251.430                    23852260.047
 123160326.705 7  95969219.89144  23436606.164                    23436614.145
 112456493.088 7  87628506.700 7  21399759.133                    21399765.914
 106950929.186 8  83338464.216 8  20352058.109                    20352064.410
 119105080.231 7  92809202.896 7  22664941.641                    22664949.270
 113314968.071 7  88297451.35145  21563121.586                    21563128.699
 113446729.910 8  88400109.242 7  21588194.414                    21588203.789
 11  8 16  2 29  0.0000000  0  8G02G26G10G12G05G29G30G25
 113435567.942 8  88391513.68745  21586051.227                    21586055.840
 125249073.113 6  97596743.19844  23834108.992                    23834117.563
 123263289.485 7  96049450.59644  23456199.211                    23456206.875
 112516205.967 8  87675036.207 7  21411122.367                    21411128.613
 106972898.992 8  83355583.559 8  20356238.727                    20356245.133
 119023328.591 7  92745500.394 7  22649384.742                    22649392.184
 113335713.370 8  88313616.53145  21567069.148                    21567076.004
 113443616.608 8  88397683.302 7  21587602.203                    21587611.273
 11  8 16  2 29 30.0000000  0  8G02G26G10G12G05G29G30G25
 113474070.707 8  88421515.86145  21593377.633                    21593382.324
 125153770.839 6  97522481.74243  23815974.016                    23815982.836
 123366434.348 7  96129823.20344  23475827.367                    23475834.746
 112576363.956 8  87721912.560 7  21422569.750                    21422576.590
 106995398.006 8  83373115.276 8  20360519.984                    20360526.531
 118941645.715 7  92681851.463 7  22633840.945                    22633848.730
 113357032.146 8  88330228.56646  21571125.734                    21571132.953
 113441082.998 8  88395709.068 7  21587119.914                    21587129.039
 11  8 16  2 30  0.0000000  0  8G02G26G10G12G05G29G30G25
 113512663.850 8  88451588.44445  21600721.773                    21600726.488
 125058509.915 6  97448252.48944  23797846.070                    23797854.563
 123469758.609 7  96210335.64243  23495489.500                    23495496.199
 112636963.894 7  87769133.291 7  21434101.344                    21434108.211
 107018424.954 8  83391058.373 8  20364901.836                    20364908.324
 118860033.944 7  92618257.956 6  22618310.594                    22618317.477
 113378923.017 8  88347286.38245  21575291.344                    21575298.594
 113439128.718 8  88394186.263 7  21586747.875                    21586757.070
 11  8 16  2 30 30.0000000  0  8G02G26G10G12G05G29G30G25
 113551346.738 8  88481730.97546  21608082.938                    21608087.754
 124963293.690 6  97374058.10243  23779726.750                    23779734.969
 123573259.143 7  96290985.39443  23515184.789                    23515191.605
 112698003.403 8  87816696.536 7  21445716.813                    21445723.434
 107041977.946 8  83409411.366 8  20369384.008                    20369389.949
 118778494.858 7  92554721.061 6  22602793.891                    22602801.301
 113401384.211 8  88364788.61945  21579565.547                    21579572.859
 113437753.254 8  88393114.471 7  21586486.219                    21586495.465
 11  8 16  2 31  0.0000000  0  8G02G26G10G12G05G29G30G25
 113590119.304 7  88511943.37545  21615461.492                    21615466.051
 124868125.570 6  97299901.18843  23761617.211                    23761625.781
 123676933.470 6  96371770.60642  23534913.531                    23534920.570
 112759480.260 7  87864600.585 7  21457415.773                    21457422.383
 107066055.531 7  83428173.137 8  20373965.953                    20373972.094
 118697030.103 6  92491242.083 7  22587291.867                    22587299.273
 113424414.291 7  88382734.13644  21583948.281                    21583955.598
 113436956.206 7  88392493.397 7  21586335.039                    21586344.016
 11  8 16  2 31 30.0000000  0  8G02G26G10G12G05G29G30G25
 113628981.660 8  88542225.74146  21622856.391                    21622861.344
 124773009.222 6  97225784.64943  23743516.438                    23743525.738
 123780779.056 7  96452689.25243  23554673.938                    23554681.824
 112821392.326 7  87912843.743 7  21469197.281                    21469203.828
 107090656.675 8  83447342.881 8  20378647.086                    20378653.285
 118615641.726 7  92427822.647 7  22571804.500                    22571811.121
 113448012.121 8  88401122.06545  21588438.695                    21588445.805
 113436737.712 8  88392323.148 7  21586292.742                    21586301.910
 11  8 16  2 32  0.0000000  0  8G02G26G10G12G05G29G30G25
 113667933.097 8  88572577.52046  21630268.828                    21630273.586
 124677947.730 6  97151710.85143  23725426.406                    23725436.313
 123884792.792 6  96533738.94143  23574466.961                    23574475.520
 112883736.789 8  87961423.846 7  21481060.633                    21481067.762
 107115779.355 8  83466919.011 8  20383427.813                    20383433.855
 118534331.483 7  92364464.053 7  22556331.414                    22556337.988
 113472175.785 8  88419950.88946  21593036.977                    21593044.238
 113437096.906 8  88392603.052 7  21586361.281                    21586370.422
 11  8 16  2 32 30.0000000  0  9G02G26G10G15G12G05G29G30G25
 113706974.106 8  88602999.10346  21637697.867                    21637702.688
 124582944.981 6  97077682.80843  23707348.109                    23707356.715
 123988972.385 6  96614917.80943  23594292.234                    23594299.844
 129395398.56016 100827640.92016  24623134.938                    24623144.504
 112946511.153 8  88010338.922 7  21493006.680                    21493013.488
 107141422.415 8  83486900.623 8  20388307.289                    20388313.648
 118453101.101 7  92301167.716 7  22540873.352                    22540880.805
 113496904.149 8  88439219.74745  21597742.344                    21597749.602
 113438033.815 8  88393333.115 7  21586539.602                    21586548.813
 11  8 16  2 33  0.0000000  0  9G02G26G10G15G12G05G29G30G25
 113746104.103 8  88633490.02246  21645144.352                    21645148.992
 124488004.347 7  97003703.14643  23689281.969                    23689290.250
 124093314.981 7  96696223.73543  23614148.227                    23614156.000
 129301987.229 6 100754853.033 5  24605359.188                    24605368.738
 113009713.357 7  88059587.389 7  21505033.320                    21505040.098
 107167584.235 8  83507286.478 8  20393285.766                    20393292.227
 118371952.350 7  92237934.994 7  22525431.539                    22525438.543
 113522195.426 8  88458927.23246  21602555.477                    21602562.336
 113439547.778 8  88394512.834 7  21586827.984                    21586836.984
 11  8 16  2 33 30.0000000  0  9G02G26G10G15G12G05G29G30G25
 113785322.928 8  88664050.17746  21652607.172                    21652611.801
 124393129.050 6  96929774.37844  23671228.359                    23671236.063
 124197817.635 7  96777654.38043  23634033.805                    23634042.027
 129208448.192 6 100681965.610 5  24587559.883                    24587568.797
 113073340.335 8  88109166.841 7  21517141.281                    21517148.094
 107194262.819 8  83528074.997 8  20398362.656                    20398368.965
 118290887.158 7  92174767.350 7  22510005.242                    22510012.199
 113548047.826 8  88479071.97245  21607474.969                    21607481.875
 113441638.179 8  88396141.736 7  21587225.281                    21587234.270
 11  8 16  2 34  0.0000000  0  9G02G26G10G15G12G05G29G30G25
 113824629.984 8  88694679.07145  21660086.953                    21660091.516
 124298322.352 6  96855899.06343  23653186.688                    23653195.914
 124302477.567 7  96859207.56243  23653949.781                    23653958.770
 129114783.450 6 100608980.232 5  24569735.508                    24569744.930
 113137389.164 8  88159075.017 7  21529329.203                    21529336.281
 107221456.381 8  83549264.801 8  20403537.609                    20403543.914
 118209907.119 7  92111666.084 7  22494595.188                    22494602.391
 113574459.447 8  88499652.45845  21612501.055                    21612507.906
 113444304.322 8  88398219.258 7  21587732.820                    21587742.012
 11  8 16  2 34 30.0000000  0  9G02G26G10G15G12G05G29G30G25
 113864025.533 8  88725376.91646  21667583.625                    21667588.301
 124203588.008 6  96782080.12843  23635159.000                    23635167.492
 124407292.168 7  96940881.26044  23673896.164                    23673903.879
 129020995.911 6 100535899.219 5  24551888.172                    24551897.547
 113201857.914 8  88209310.396 7  21541597.547                    21541604.191
 107249163.743 8  83570854.968 8  20408809.883                    20408816.570
 118129014.420 7  92048632.856 6  22479201.602                    22479208.977
 113601429.017 8  88520667.70546  21617633.180                    21617640.121
 113447545.956 8  88400745.208 7  21588349.766                    21588359.141
 11  8 16  2 35  0.0000000  0  9G02G26G10G15G12G05G29G30G25
 113903509.406 8  88756143.59345  21675097.406                    21675101.816
 124108929.745 6  96708320.53143  23617146.422                    23617154.434
 124512258.952 7  97022673.55243  23693870.156                    23693877.531
 128927087.972 6 100462724.330 5  24534017.375                    24534027.797
 113266744.025 8  88259870.998 7  21553944.711                    21553951.598
 107277383.393 8  83592844.318 8  20414179.789                    20414186.492
 118048210.936 7  91985669.160 6  22463825.359                    22463832.621
 113628954.977 8  88542116.51345  21622870.828                    21622878.191
 113451362.679 8  88403719.290 7  21589076.141                    21589085.078
 11  8 16  2 35 30.0000000  0  9G02G26G10G15G12G05G29G30G25
 113943081.559 8  88786979.05245  21682627.617                    21682631.676
 124014350.805 6  96634622.72244  23599148.969                    23599156.926
 124617375.034 7  97104582.20143  23713873.828                    23713880.641
 128833062.305 6 100389457.704 5  24516125.688                    24516134.324
 113332044.805 8  88310754.714 7  21566371.523                    21566378.227
 107306113.667 8  83615231.564 8  20419647.195                    20419653.574
 117967498.774 7  91922776.627 7  22448466.133                    22448473.434
 113657035.526 8  88563997.46645  21628214.320                    21628221.727
 113455753.797 8  88407140.934 7  21589911.703                    21589921.031
 11  8 16  2 36  0.0000000  0  9G02G26G10G15G12G05G29G30G25
 113982741.470 8  88817882.88345  21690174.430                    21690179.000
 123919854.673 6  96560989.47844  23581166.008                    23581175.910
 124722637.614 7  97186605.00943  23733902.695                    23733910.820
 128738921.374 6 100316101.307 5  24498211.289                    24498220.102
 113397758.014 8  88361959.806 7  21578875.875                    21578882.313
 107335352.343 8  83638014.962 8  20425210.898                    20425217.258
 117886879.366 7  91859956.357 7  22433124.922                    22433131.805
 113685668.841 8  88586309.14246  21633663.414                    21633670.188
 113460718.615 8  88411009.633 7  21590856.359                    21590865.629
 11  8 16  2 36 30.0000000  0  9G02G26G10G15G12G05G29G30G25
 114022489.311 8  88848855.24546  21697738.203                    21697742.621
 123825444.909 6  96487423.52644  23563200.031                    23563209.754
 124828044.252 6  97268740.03843  23753962.594                    23753969.160
 128644667.744 6 100242657.099 5  24480274.969                    24480283.457
 113463880.670 7  88413483.943 7  21591458.813                    21591465.516
 107365098.335 8  83661193.682 8  20430871.563                    20430878.063
 117806354.899 7  91797210.075 7  22417801.586                    22417808.441
 113714853.227 8  88609050.22945  21639216.914                    21639224.145
 113466256.633 8  88415324.981 7  21591910.203                    21591919.434
 11  8 16  2 37  0.0000000  0  9G02G26G10G15G12G05G29G30G25
 114062324.753 8  88879895.85746  21705318.945                    21705322.965
 123731124.917 7  96413927.52744  23545251.758                    23545260.730
 124933592.166 6  97350985.16243  23774047.281                    23774054.461
 128550303.732 6 100169126.811 6  24462317.586                    24462327.262
 113530409.818 8  88465324.828 7  21604118.758                    21604125.711
 107395349.265 8  83684765.845 8  20436628.039                    20436634.570
 117725926.922 7  91734538.988 7  22402496.328                    22402503.617
 113744586.577 8  88632219.06845  21644875.328                    21644882.105
 113472366.876 8  88420086.219 7  21593072.742                    21593082.281
 11  8 16  2 37 30.0000000  0  9G02G26G10G15G12G05G29G30G25
 114102247.758 7  88911004.69746  21712915.984                    21712920.648
 123636898.264 7  96340504.25244  23527321.297                    23527329.594
 125039278.807 7  97433338.38343  23794159.039                    23794166.793
 128455831.897 7 100095512.528 5  24444340.156                    24444349.336
 113597343.292 8  88517480.765 7  21616855.938                    21616862.742
 107426103.722 8  83708730.376 8  20442480.398                    20442487.109
 117645597.576 7  91671944.735 7  22387210.789                    22387217.137
 113774867.406 8  88655814.51745  21650637.414                    21650644.293
 113479048.898 8  88425292.998 7  21594344.203                    21594353.637
 11  8 16  2 38  0.0000000  0  9G02G26G10G15G12G05G29G30G25
 114142258.011 8  88942181.51746  21720529.766                    21720533.984
 123542768.442 7  96267156.43044  23509409.125                    23509417.824
 125145101.180 7  97515797.41943  23814296.328                    23814304.129
 128361254.894 7 100021816.305 6  24426343.539                    24426351.762
 113664678.370 8  88569949.649 7  21629669.281                    21629676.051
 107457359.741 8  83733085.735 8  20448428.273                    20448434.395
 117565368.874 7  91609428.930 7  22371943.188                    22371950.754
 113805693.749 8  88679835.03945  21656503.344                    21656510.434
 113486301.842 8  88430944.636 7  21595724.406                    21595733.770
 11  8 16  2 38 30.0000000  0  9G02G26G10G15G12G05G29G30G25
 114182355.467 7  88973426.30945  21728159.742                    21728164.355
 123448738.947 7  96193886.79044  23491515.781                    23491524.707
 125251056.863 6  97598360.28143  23834458.188                    23834466.293
 128266575.361 6  99948040.189 6  24408326.008                    24408334.570
 113732412.376 8  88622729.376 7  21642558.664                    21642565.668
 107489115.900 8  83757830.809 8  20454471.289                    20454477.570
 117485242.715 7  91546993.006 7  22356695.477                    22356702.891
 113837063.736 8  88704279.19145  21662472.828                    21662480.273
 113494125.031 8  88437040.643 7  21597213.414                    21597222.563
 11  8 16  2 39  0.0000000  0  9G02G26G10G15G12G05G29G30G25
 114222540.125 7  89004739.04545  21735806.398                    21735811.723
 123354813.454 7  96120698.17344  23473641.836                    23473650.992
 125357143.209 6  97681024.97443  23854646.117                    23854653.828
 128171795.883 6  99874186.198 6  24390289.508                    24390298.742
 113800542.678 8  88675817.906 7  21655523.555                    21655530.379
 107521370.355 8  83782964.166 8  20460608.789                    20460615.125
 117405221.165 7  91484638.606 7  22341467.836                    22341475.922
 113868975.671 8  88729145.63545  21668545.508                    21668552.777
 113502517.863 8  88443580.519 7  21598810.383                    21598819.324
 11  8 16  2 39 30.0000000  0  9G02G26G10G15G12G05G29G30G25
 114262811.919 7  89036119.67546  21743470.188                    21743475.234
 123260995.384 6  96047593.22543  23455788.750                    23455797.422
 125463357.613 6  97763789.45043  23874858.398                    23874865.496
 128076918.963 7  99800256.276 6  24372235.055                    24372244.258
 113869066.602 8  88729213.163 7  21668563.234                    21668570.188
 107554121.233 8  83808484.348 8  20466841.297                    20466847.594
 117325306.150 7  91422367.215 7  22326260.547                    22326268.285
 113901427.548 8  88754432.82145  21674720.688                    21674728.418
 113511479.379 8  88450563.524 7  21600515.570                    21600524.859
 11  8 16  2 40  0.0000000  0  9G02G26G10G15G12G05G29G30G25
 114303170.597 8  89067568.01245  21751150.047                    21751154.781
 123167288.082 6  95974574.58043  23437957.125                    23437965.645
 125569697.513 6  97846651.69243  23895094.500                    23895101.750
 127981947.256 6  99726252.476 6  24354162.047                    24354171.707
 113937981.259 8  88782912.885 7  21681677.039                    21681684.102
 107587366.805 8  83834390.002 8  20473168.063                    20473174.031
 117245499.500 7  91360180.275 7  22311073.766                    22311081.258
 113934417.341 8  88780139.15645  21680998.664                    21681005.730
 113521008.706 8  88457988.985 7  21602329.148                    21602338.422
 11  8 16  2 40 30.0000000  0  9G02G26G10G15G12G05G29G30G25
 114343616.155 8  89099084.05045  21758846.750                    21758851.797
 123073695.547 7  95901645.40243  23420146.945                    23420155.254
 125676160.305 7  97929609.69843  23915353.070                    23915361.598
 127886883.428 6  99652176.905 6  24336072.398                    24336081.012
 114007284.448 8  88836915.367 7  21694864.688                    21694871.781
 107621105.041 8  83860679.555 8  20479588.086                    20479594.117
 117165803.059 7  91298079.217 7  22295908.164                    22295915.844
 113967943.232 8  88806263.21446  21687378.289                    21687385.492
 113531105.156 8  88465856.354 7  21604250.203                    21604259.758
 11  8 16  2 41  0.0000000  0  9G02G26G10G15G12G05G29G30G25
 114384148.622 8  89130667.80545  21766559.492                    21766564.301
 122980221.190 7  95828808.31444  23402359.195                    23402367.641
 125782743.423 7  98012661.44343  23935635.758                    23935643.043
 127791729.884 6  99578031.417 6  24317965.125                    24317974.730
 114076973.252 8  88891218.320 7  21708126.531                    21708133.320
 107655334.215 8  83887351.654 8  20486101.539                    20486108.129
 117086218.927 8  91236065.657 7  22280763.758                    22280771.180
 114002003.241 8  88832803.48345  21693859.805                    21693867.281
 113541767.773 8  88474164.898 7  21606279.656                    21606288.871
 11  8 16  2 41 30.0000000  0  9G02G26G10G15G12G05G29G30G25
 114424767.646 8  89162318.99845  21774289.133                    21774294.020
 122886868.533 7  95756066.04744  23384594.555                    23384602.766
 125889444.360 7  98095805.01043  23955939.938                    23955947.422
 127696489.281 6  99503818.094 6  24299841.727                    24299850.238
 114147044.820 8  88945819.531 7  21721460.883                    21721467.473
 107690052.491 8  83914404.874 8  20492707.852                    20492714.492
 117006749.014 7  91174141.080 7  22265641.484                    22265648.418
 114036595.372 8  88859758.38745  21700442.664                    21700449.387
 113552995.690 8  88482913.946 7  21608416.227                    21608425.383
 11  8 16  2 42  0.0000000  0  9G02G26G10G15G12G05G29G30G25
 114465473.309 7  89194037.69845  21782035.383                    21782039.961
 122793641.107 7  95683421.36244  23366854.617                    23366862.457
 125996259.880 7  98179037.88343  23976267.000                    23976272.945
 127601164.543 6  99429539.228 6  24281701.594                    24281710.504
 114217496.148 7  89000716.668 7  21734867.008                    21734874.000
 107725257.787 8  83941837.580 8  20499407.328                    20499413.949
 116927395.501 8  91112307.228 7  22250540.672                    22250547.984
 114071717.586 8  88887126.34045  21707126.086                    21707133.219
 113564787.936 8  88492102.704 7  21610659.789                    21610669.332
 11  8 16  2 42 30.0000000  0  9G02G26G10G15G12G05G29G30G25
 114506265.528 8  89225823.84845  21789797.953                    21789802.242
 122700542.621 7  95610877.12944  23349138.750                    23349146.957
 126103187.859 7  98262358.43143  23996614.516                    23996619.586
 127505758.314 6  99355196.864 6  24263545.516                    24263555.129
 114288325.026 8  89055907.990 7  21748345.500                    21748352.598
 107760948.460 8  83969648.515 8  20506199.500                    20506205.410
 116848160.356 7  91050565.601 7  22235462.008                    22235469.707
 114107367.954 8  88914905.85545  21713910.203                    21713917.172
 113577143.669 8  88501730.560 7  21613011.164                    21613020.375
 11  8 16  2 43  0.0000000  0  9G02G26G10G15G12G05G29G30G25
 114547144.163 7  89257677.33946  21797576.797                    21797581.836
 122607576.500 7  95538436.05544  23331447.234                    23331456.152
 126210225.705 6  98345764.58143  24016983.117                    24016989.355
 127410272.968 6  99280792.840 6  24245375.383                    24245384.477
 114359528.467 8  89111391.194 7  21761894.828                    21761901.840
 107797122.480 8  83997836.081 8  20513082.531                    20513089.223
 116769045.473 7  90988917.709 7  22220407.836                    22220414.934
 114143544.348 8  88943095.26145  21720794.078                    21720801.441
 113590061.890 8  88511796.723 7  21615469.758                    21615478.945
 11  8 16  2 43 30.0000000  0  9G02G26G10G15G12G05G29G30G25
 114588109.029 7  89289598.02145  21805371.766                    21805376.543
 122514746.130 7  95466100.78844  23313782.656                    23313790.793
 126317370.700 6  98429254.17143  24037371.844                    24037378.586
 127314711.016 6  99206329.099 6  24227190.977                    24227199.875
 114431103.443 8  89167163.891 7  21775515.219                    21775522.023
 107833777.571 8  84026398.493 8  20520058.055                    20520064.465
 116690052.748 7  90927364.972 7  22205375.898                    22205382.453
 114180244.413 8  88971692.71445  21727777.594                    21727785.199
 113603541.263 8  88522300.142 7  21618034.648                    21618043.824
 11  8 16  2 44  0.0000000  0  9G02G26G10G15G12G05G29G30G25
 114629160.218 7  89321585.95645  21813183.648                    21813188.531
 122422055.206 7  95393874.16544  23296144.258                    23296152.367
 126424620.300 6  98512825.29643  24057779.961                    24057787.867
 127219075.302 7  99131807.846 5  24208992.750                    24208999.953
 114503046.897 7  89223223.717 7  21789205.500                    21789212.270
 107870911.872 8  84055334.323 8  20527124.172                    20527130.789
 116611183.986 7  90865908.833 7  22190367.711                    22190374.488
 114217466.138 7  89000696.65945  21734860.641                    21734868.000
 113617580.848 8  88533240.083 7  21620706.055                    21620715.176
 11  8 16  2 44 30.0000000  0  9G02G26G10G15G12G05G29G30G25
 114670297.483 7  89353640.97645  21821011.828                    21821015.852
 122329507.483 7  95321759.12144  23278533.234                    23278541.191
 126531971.672 6  98596475.68643  24078208.578                    24078216.676
 127123368.479 7  99057231.222 5  24190779.500                    24190788.227
 114575356.635 7  89279568.958 7  21802965.734                    21802972.859
 107908523.575 8  84084642.148 8  20534281.742                    20534288.059
 116532441.673 7  90804551.233 7  22175383.313                    22175390.527
 114255207.438 8  89030105.46845  21742042.773                    21742050.043
 113632179.621 8  88544615.767 7  21623484.523                    21623493.383
 11  8 16  2 45  0.0000000  0  9G02G26G10G15G12G05G29G30G25
 114711520.833 7  89385763.07345  21828856.273                    21828861.262
 122237106.225 7  95249758.19744  23260949.109                    23260957.473
 126639422.555 6  98680203.66043  24098655.930                    24098663.363
 127027593.097 7  98982601.181 6  24172554.375                    24172562.703
 114648029.513 7  89336197.176 7  21816794.797                    21816802.152
 107946610.579 8  84114320.352 8  20541529.305                    20541535.836
 116453827.800 7  90743293.708 7  22160423.547                    22160430.375
 114293466.120 7  89059917.43545  21749323.664                    21749330.012
 113647336.521 8  88556426.337 7  21626368.492                    21626377.520
 11  8 16  2 45 30.0000000  0  9G02G26G10G15G12G05G29G30G25
 114752830.725 7  89417952.60645  21836717.320                    21836721.809
 122144855.556 7  95177874.60744  23243394.453                    23243402.355
 126746970.433 6  98764007.19543  24119122.203                    24119129.770
 126931752.331 7  98907920.174 6  24154316.305                    24154325.063
 114721063.145 7  89393106.485 7  21830692.477                    21830699.676
 107985171.290 8  84144367.670 8  20548867.094                    20548873.578
 116375344.435 7  90682137.879 7  22145488.492                    22145495.816
 114332240.345 8  89090131.12545  21756701.563                    21756708.996
 113663050.674 8  88568671.139 7  21629358.453                    21629368.223
 11  8 16  2 46  0.0000000  0  9G02G26G10G15G12G05G29G30G25
 114794227.254 8  89450209.65145  21844594.914                    21844599.441
 122052759.243 7  95106111.31944  23225868.961                    23225876.570
 126854613.004 7  98847884.57043  24139606.008                    24139613.098
 126835848.953 6  98833190.384 6  24136066.156                    24136074.844
 114794455.169 7  89450295.081 7  21844658.750                    21844665.477
 108024204.040 8  84174782.816 8  20556295.000                    20556301.410
 116296993.646 7  90621085.364 7  22130578.625                    22130585.789
 114371528.063 8  89120744.94245  21764177.984                    21764184.820
 113679321.229 8  88581349.507 7  21632454.742                    21632464.195
 11  8 16  2 46 30.0000000  0  9G02G26G10G15G12G05G29G30G25
 114835710.141 7  89482533.97945  21852488.922                    21852493.746
 121960820.701 7  95034470.95044  23208373.289                    23208381.504
 126962347.746 7  98931833.71343  24160107.383                    24160113.883
 126739885.431 6  98758413.760 6  24117804.273                    24117813.375
 114868202.454 7  89507760.487 7  21858692.336                    21858699.207
 108063706.537 8  84205563.990 8  20563812.055                    20563818.566
 116218777.532 7  90560137.793 7  22115695.094                    22115701.973
 114411326.969 8  89151757.08545  21771751.320                    21771758.176
 113696146.795 8  88594460.338 7  21635656.445                    21635665.895
 11  8 16  2 47  0.0000000  0  9G02G26G10G15G12G05G29G30G25
 114877279.209 7  89514925.47545  21860399.203                    21860403.813
 121869043.516 7  94962956.33144  23190909.391                    23190916.512
 127070171.838 7  99015852.50443  24180625.125                    24180632.328
 126643864.339 6  98683592.287 6  24099532.367                    24099541.285
 114942301.574 7  89565500.054 7  21872792.883                    21872799.883
 108103676.613 8  84236709.522 8  20571418.188                    20571424.508
 116140698.240 7  90499296.823 7  22100836.508                    22100843.703
 114451634.683 8  89183165.70445  21779421.664                    21779429.043
 113713526.069 8  88608002.645 7  21638963.844                    21638973.449
 11  8 16  2 47 30.0000000  0  9G02G26G10G15G12G05G29G30G25
 114918934.505 8  89547384.14745  21868326.328                    21868330.758
 121777431.108 7  94891570.09244  23173475.625                    23173483.547
 127178082.965 6  99099939.09343  24201160.383                    24201166.602
 126547788.380 6  98608728.049 6  24081249.531                    24081258.707
 115016749.762 7  89623511.618 7  21886959.773                    21886967.273
 108144112.055 8  84268217.674 8  20579112.477                    20579119.309
 116062757.599 7  90438563.893 7  22086005.039                    22086012.254
 114492448.925 8  89214969.01545  21787188.273                    21787195.797
 113731457.851 8  88621975.460 7  21642376.492                    21642384.973
 11  8 16  2 48  0.0000000  0  9G02G26G10G15G12G05G29G30G25
 114960676.052 8  89579910.04645  21876269.211                    21876273.820
 121685987.142 7  94820315.12244  23156074.789                    23156082.453
 127286078.519 6  99184091.47743  24221710.625                    24221717.133
 126451660.555 6  98533823.393 6  24062957.117                    24062966.273
 115091544.641 7  89681793.333 7  21901193.078                    21901199.902
 108185011.104 8  84300087.069 7  20586895.227                    20586902.039
 115984957.849 7  90377940.755 7  22071200.594                    22071207.395
 114533767.645 8  89247165.42645  21795050.922                    21795058.105
 113749941.033 8  88636377.952 7  21645893.625                    21645902.656
 11  8 16  2 48 30.0000000  0  9G02G26G10G15G12G05G29G30G25
 115002504.066 8  89612503.30645  21884228.664                    21884233.508
 121594715.559 7  94749194.46944  23138706.086                    23138713.984
 127394156.199 5  99268307.86442  24242275.297                    24242283.875
 126355483.360 6  98458880.251 6  24044655.148                    24044663.730
 115166683.182 7  89740342.836 7  21915491.625                    21915498.340
 108226371.703 8  84332316.116 8  20594766.461                    20594772.668
 115907301.085 7  90317429.040 7  22056422.852                    22056429.633
 114575588.454 8  89279753.07945  21803009.492                    21803016.930
 113768974.344 8  88651209.104 7  21649515.344                    21649524.477
 11  8 16  2 49  0.0000000  0  9G02G26G10G15G12G05G29G30G25
 115044418.273 8  89645163.73945  21892204.867                    21892209.426
 121503619.627 7  94678210.70144  23121370.477                    23121378.973
 127502313.414 5  99352586.13442  24262858.234                    24262865.820
 126259259.799 6  98383900.977 6  24026343.789                    24026352.910
 115242162.363 7  89799157.797 7  21929854.391                    21929861.328
 108268191.376 8  84364902.889 8  20602724.211                    20602730.523
 115829789.318 7  90257030.307 7  22041672.797                    22041679.680
 114617908.982 8  89312730.10945  21811062.961                    21811069.957
 113788556.397 8  88666467.847 7  21653241.758                    21653250.859
 11  8 16  2 49 30.0000000  0  9G02G26G10G15G12G05G29G30G25
 115086418.802 8  89677891.43445  21900197.133                    21900202.262
 121412703.031 7  94607366.66644  23104069.836                    23104078.156
 127610547.648 6  99436924.45543  24283454.664                    24283463.121
 126162992.311 6  98308887.488 6  24008024.742                    24008033.816
 115317979.375 7  89858235.977 7  21944282.438                    21944289.313
 108310468.298 8  84397845.946 7  20610769.109                    20610775.500
 115752424.654 8  90196746.207 7  22026950.867                    22026957.527
 114660726.819 8  89346094.66245  21819210.828                    21819217.832
 113808685.844 8  88682153.125 7  21657072.023                    21657081.141
 11  8 16  2 50  0.0000000  0  9G02G26G10G15G12G05G29G30G25
 115128505.668 8  89710686.40545  21908206.094                    21908210.707
 121321969.716 7  94536665.47344  23086803.836                    23086812.516
 127718856.470 6  99521320.99543  24304065.719                    24304073.016
 126066683.840 6  98233842.059 6  23989698.023                    23989706.434
 115394131.377 8  89917575.190 7  21958773.273                    21958780.379
 108353200.536 8  84431143.809 7  20618900.898                    20618907.199
 115675209.146 8  90136578.321 7  22012257.266                    22012263.887
 114704039.887 8  89379845.09945  21827452.953                    21827460.055
 113829361.607 8  88698264.117 7  21661006.313                    21661015.918
 11  8 16  2 50 30.0000000  0  9G02G26G10G15G12G05G29G30G25
 115170678.912 8  89743548.68245  21916231.031                    21916235.438
 121231422.949 7  94466109.61244  23069573.211                    23069581.102
 127827237.473 6  99605773.72043  24324690.422                    24324697.496
 125970337.108 6  98158766.796 6  23971363.516                    23971371.996
 115470615.345 7  89977173.095 7  21973327.711                    21973334.898
 108396385.828 8  84464794.695 8  20627119.000                    20627125.031
 115598145.006 7  90076528.378 7  21997592.555                    21997599.277
 114747845.690 8  89413979.50245  21835788.625                    21835795.723
 113850582.121 8  88714799.583 7  21665044.805                    21665053.996
 11  8 16  2 51  0.0000000  0  9G02G26G10G15G12G05G29G30G25
 115212938.193 8  89776478.00445  21924272.852                    21924277.457
 121141066.218 7  94395701.82244  23052379.359                    23052386.965
 127935687.779 6  99690280.47643  24345327.586                    24345335.359
 125873954.947 7  98083663.922 6  23953022.367                    23953031.105
 115547428.036 7  90037027.127 7  21987944.828                    21987951.617
 108440021.562 8  84498796.582 7  20635422.547                    20635428.543
 115521234.116 7  90016597.876 7  21982956.703                    21982963.410
 114792141.424 8  89448495.66145  21844217.859                    21844225.523
 113872345.730 8  88731758.231 7  21669186.242                    21669195.301
 11  8 16  2 51 30.0000000  0  9G02G26G10G15G12G05G29G30G25
 115255283.824 7  89809474.59645  21932331.148                    21932335.250
 121050903.466 7  94325445.17344  23035221.836                    23035229.750
 128044205.330 6  99774839.61843  24365977.375                    24365985.078
 125777539.932 7  98008535.458 6  23934675.500                    23934684.223
 115624567.046 7  90097135.457 7  22002623.773                    22002631.031
 108484106.051 8  84533148.138 8  20643811.469                    20643817.656
 115444478.892 7  89956788.654 7  21968350.352                    21968357.477
 114836925.168 8  89483392.08845  21852739.711                    21852747.191
 113894651.341 8  88749139.235 7  21673430.719                    21673440.207
 11  8 16  2 52  0.0000000  0  9G02G26G10G15G12G05G29G30G25
 115297716.305 8  89842538.87445  21940405.227                    21940409.973
 120960938.540 7  94255342.66244  23018102.125                    23018109.355
 128152787.862 6  99859449.40443  24386640.188                    24386648.082
 125681094.967 7  97933383.635 6  23916322.352                    23916330.688
 115702029.712 7  90157495.960 7  22017364.453                    22017371.340
 108528637.456 8  84567847.947 7  20652285.359                    20652291.520
 115367881.599 7  89897102.504 7  21953774.125                    21953780.820
 114882194.619 7  89518666.98945  21861354.539                    21861361.750
 113917497.767 8  88766941.637 7  21677778.391                    21677787.625
 11  8 16  2 52 30.0000000  0  9G02G26G10G15G12G05G29G30G25
 115340235.083 7  89875670.39445  21948496.867                    21948501.102
 120871174.600 7  94185396.78144  23001020.336                    23001027.973
 128261432.376 6  99944107.53342  24407314.156                    24407321.398
 125584622.795 7  97858210.642 6  23897964.203                    23897972.566
 115779812.426 7  90218105.851 7  22032166.508                    22032173.105
 108573612.910 7  84602893.769 7  20660843.820                    20660850.344
 115291444.355 7  89837541.062 7  21939228.906                    21939235.504
 114927946.727 7  89554317.98945  21870060.781                    21870067.832
 113940882.970 8  88785163.865 7  21682228.172                    21682237.684
 11  8 16  2 53  0.0000000  0  9G02G26G10G15G12G05G29G30G25
 115382840.834 8  89908869.68645  21956604.172                    21956608.781
 120781615.931 7  94115610.85844  22983978.313                    22983985.309
 128370137.157 6 100028812.61142  24428000.016                    24428006.492
 125488126.436 7  97783018.797 6  23879601.680                    23879609.895
 115857912.753 7  90278963.253 7  22047028.375                    22047034.844
 108619030.885 8  84638284.403 7  20669486.648                    20669492.926
 115215168.988 7  89778105.760 7  21924714.203                    21924720.746
 114974179.845 7  89590343.78845  21878858.563                    21878866.098
 113964806.224 8  88803805.372 7  21686781.063                    21686790.035
 11  8 16  2 53 30.0000000  0 10G02G26G10G15G12G05G29G21G30G25
 115425533.507 7  89942136.70645  21964728.805                    21964733.246
 120692266.104 7  94045987.66244  22966975.352                    22966982.813
 128478899.950 5 100113562.90342  24448696.273                    24448702.930
 125391608.683 7  97707810.269 6  23861235.375                    23861242.988
 115936327.689 7  90340065.807 7  22061949.906                    22061956.707
 108664889.448 8  84674018.357 7  20678213.469                    20678219.477
 115139057.884 7  89718798.462 7  21910230.547                    21910237.652
 132286988.93216 103080820.43852  25173382.039                    25173389.816
 115020891.385 8  89626742.39245  21887747.563                    21887755.160
 113989265.894 8  88822864.861 7  21691435.180                    21691444.918
 11  8 16  2 54  0.0000000  0 10G02G26G10G15G12G05G29G21G30G25
 115468312.763 8  89975471.20045  21972869.117                    21972873.879
 120603128.611 7  93976529.94444  22950012.648                    22950020.566
 128587717.885 6 100198356.06842  24469404.703                    24469410.688
 125295072.680 6  97632587.513 6  23842864.688                    23842871.914
 116015054.273 8  90401411.202 7  22076931.063                    22076937.648
 108711185.917 8  84710093.534 7  20687023.227                    20687029.613
 115063112.979 7  89659620.654 7  21895778.648                    21895785.344
 132230163.251 5 103036540.79842  25162567.664                    25162577.582
 115068078.608 8  89663511.65545  21896727.172                    21896734.371
 114014260.289 8  88842341.008 7  21696191.727                    21696201.281
 11  8 16  2 54 30.0000000  0 10G02G26G10G15G12G05G29G21G30G25
 115511179.331 8  90008873.72645  21981026.281                    21981031.402
 120514207.458 7  93907240.79344  22933091.078                    22933099.473
 128696588.838 5 100283190.52642  24490121.594                    24490128.328
 125198520.947 6  97557352.511 6  23824491.352                    23824499.715
 116094089.822 8  90462997.343 7  22091970.922                    22091977.719
 108757918.258 8  84746508.349 7  20695916.328                    20695922.480
 114987337.216 7  89600574.652 7  21881359.008                    21881365.887
 132173349.793 6 102992270.68743  25151757.289                    25151766.227
 115115739.298 8  89700649.86145  21905796.891                    21905803.684
 114039788.029 8  88862232.755 7  21701049.523                    21701058.813
 11  8 16  2 55  0.0000000  0 10G02G26G10G15G12G05G29G21G30G25
 115554132.630 8  90042343.82545  21989200.414                    21989204.797
 120425505.529 7  93838122.47544  22916212.195                    22916219.973
 128805510.060 6 100368064.17943  24510849.313                    24510856.484
 125101956.186 6  97482107.383 6  23806115.117                    23806123.734
 116173430.724 8  90524821.420 7  22107069.320                    22107075.648
 108805083.737 8  84783260.683 7  20704891.438                    20704897.906
 114911732.007 8  89541661.545 7  21866972.063                    21866978.125
 132116547.304 6 102948009.08643  25140948.813                    25140956.637
 115163870.521 8  89738154.70745  21914955.586                    21914962.918
 114065847.233 8  88882538.631 7  21706007.906                    21706017.316
 11  8 16  2 55 30.0000000  0 10G02G26G10G15G12G05G29G21G30G25
 115597173.056 7  90075881.82345  21997390.438                    21997395.395
 120337027.180 7  93769178.35544  22899375.375                    22899382.910
 128914479.444 6 100452975.35743  24531584.891                    24531592.234
 125005381.545 6  97406854.534 6  23787737.805                    23787745.895
 116253074.373 8  90586881.403 7  22122225.180                    22122231.879
 108852680.807 8  84820349.308 7  20713948.766                    20713955.223
 114836299.738 7  89482883.177 7  21852617.438                    21852624.141
 132059755.310 6 102903755.68642  25130140.789                    25130149.207
 115212470.052 8  89776024.47945  21924203.664                    21924210.863
 114092436.629 8  88903257.641 7  21711068.203                    21711077.473
 11  8 16  2 56  0.0000000  0 10G02G26G10G15G12G05G29G21G30G25
 115640300.905 8  90109487.94045  22005597.500                    22005602.496
 120248775.889 7  93700411.18044  22882581.688                    22882589.234
 129023494.675 6 100537922.29343  24552330.586                    24552337.555
 124908799.647 6  97331596.018 6  23769358.734                    23769367.074
 116333017.891 8  90649175.038 7  22137437.805                    22137444.727
 108900707.214 8  84857772.499 7  20723087.961                    20723094.203
 114761042.346 8  89424241.093 7  21838296.492                    21838303.238
 132002973.163 6 102859509.92843  25119335.547                    25119344.102
 115261535.239 8  89814257.10645  21933540.492                    21933547.391
 114119554.482 8  88924388.441 7  21716228.359                    21716237.668
 11  8 16  2 56 30.0000000  0 10G02G26G10G15G12G05G29G21G30G25
 115683516.091 8  90143162.10845  22013821.031                    22013825.395
 120160755.041 7  93631823.55044  22865831.398                    22865838.930
 129132553.288 6 100622903.03843  24573084.102                    24573091.066
 124812213.313 7  97256334.076 6  23750978.586                    23750986.711
 116413257.936 7  90711699.746 7  22152706.930                    22152713.094
 108949160.466 8  84895528.282 7  20732307.867                    20732314.531
 114685962.466 8  89365737.334 7  21824009.000                    21824015.734
 131946200.556 6 102815271.63843  25108532.852                    25108540.168
 115311063.380 8  89852850.47345  21942965.617                    21942972.957
 114147199.006 8  88945929.627 7  21721489.422                    21721498.043
 11  8 16  2 57  0.0000000  0 10G02G26G10G15G12G05G29G21G30G25
 115726819.323 8  90176904.88545  22022061.398                    22022065.309
 120072969.353 7  93563419.17144  22849127.242                    22849134.293
 129241653.682 6 100707916.33143  24593844.922                    24593852.070
 124715626.128 7  97181071.457 6  23732599.078                    23732606.895
 116493792.740 7  90774454.144 7  22168032.188                    22168038.539
 108998038.787 8  84933615.286 7  20741609.516                    20741615.660
 114611062.718 8  89307373.916 7  21809756.313                    21809762.906
 131889437.191 6 102771040.58042  25097730.188                    25097737.766
 115361052.702 8  89891803.19845  21952478.180                    21952484.910
 114175369.355 8  88967880.549 7  21726849.414                    21726858.715
 11  8 16  2 57 30.0000000  0  9G02G26G15G12G05G29G21G30G25
 115770210.466 8  90210716.16945  22030318.516                    22030322.684
 119985422.314 7  93495200.74644  22832466.906                    22832474.664
 124619040.993 7  97105810.413 6  23714219.859                    23714227.191
 116574618.849 7  90837435.518 7  22183412.805                    22183419.496
 109047340.258 8  84972032.025 7  20750990.969                    20750997.543
 114536345.346 8  89249152.623 7  21795538.094                    21795544.445
 131832682.744 6 102726816.47343  25086930.781                    25086938.242
 115411500.416 7  89931113.10945  21962078.242                    21962085.402
 114204063.755 8  88990239.824 7  21732310.047                    21732319.348
 11  8 16  2 58  0.0000000  0  9G02G26G15G12G05G29G21G30G25
 115813689.285 7  90244595.78645  22038592.094                    22038596.574
 119898116.858 7  93427170.58044  22815853.352                    22815859.957
 124522459.914 7  97030552.547 6  23695840.820                    23695848.695
 116655732.589 7  90900641.015 7  22198848.289                    22198855.219
 109097061.719 8  85010776.035 7  20760453.078                    20760459.473
 114461811.790 8  89191074.551 7  21781354.680                    21781361.059
 131775935.932 6 102682598.28143  25076131.891                    25076139.688
 115462403.375 7  89970777.77145  21971764.492                    21971772.426
 114233279.921 8  89013005.681 7  21737869.625                    21737878.641
 11  8 16  2 58 30.0000000  0  9G02G26G15G12G05G29G21G30G25
 115857256.011 7  90278543.88745  22046883.102                    22046886.633
 119811056.733 7  93359331.58044  22799286.141                    22799293.785
 124425886.135 7  96955300.351 6  23677463.336                    23677471.156
 116737131.221 7  90964068.519 7  22214338.102                    22214344.715
 109147201.086 8  85049845.672 7  20769993.945                    20770000.094
 114387464.530 8  89133141.655 7  21767207.078                    21767213.727
 131719196.210 6 102638385.60542  25065334.031                    25065341.691
 115513759.064 7  90010795.19645  21981537.156                    21981544.078
 114263016.213 8  89036176.818 7  21743528.367                    21743537.051
 11  8 16  2 59  0.0000000  0  9G02G26G15G12G05G29G21G30G25
 115900910.331 8  90312560.25145  22055189.836                    22055194.504
 119724245.750 7  93291686.71244  22782766.742                    22782774.398
 124329322.365 7  96880055.991 6  23659087.375                    23659095.723
 116818811.440 8  91027715.437 7  22229881.344                    22229887.742
 109197755.896 8  85089239.045 7  20779614.109                    20779620.434
 114313305.518 8  89075355.438 7  21753094.859                    21753101.563
 131662463.127 6 102594178.14842  25054538.000                    25054545.715
 115565564.613 8  90051163.15945  21991395.289                    21991402.707
 114293270.735 8  89059751.776 7  21749285.734                    21749294.566
 11  8 16  2 59 30.0000000  0  9G02G26G15G12G05G29G21G30G25
 115944652.863 7  90346645.33745  22063513.430                    22063517.984
 119637687.343 7  93224238.67044  22766295.000                    22766302.656
 124232771.568 6  96804821.704 6  23640714.516                    23640722.754
 116900770.471 7  91091579.630 7  22245477.594                    22245483.859
 109248723.935 8  85128954.398 7  20789313.227                    20789319.527
 114239337.273 8  89017717.870 7  21739019.391                    21739026.137
 131605735.776 6 102549975.14042  25043742.711                    25043750.840
 115617817.424 7  90091879.63845  22001338.836                    22001346.105
 114324041.777 8  89083729.220 7  21755141.164                    21755150.184
 11  8 16  3  0  0.0000000  0  9G02G26G15G12G05G29G21G30G25
 115988483.630 7  90380799.17445  22071854.266                    22071859.219
 119551384.968 7  93156990.14544  22749871.914                    22749879.953
 124136236.414 7  96729599.628 6  23622344.813                    23622352.625
 116983004.938 7  91155658.420 7  22261126.141                    22261132.754
 109300102.868 7  85168989.944 7  20799090.313                    20799096.883
 114165561.484 8  88960230.277 7  21724979.875                    21724986.832
 131549013.687 6 102505776.18842  25032950.078                    25032957.230
 115670514.662 7  90132942.42845  22011367.055                    22011374.121
 114355327.362 8  89108107.603 7  21761094.500                    21761103.324
 11  8 16  3  0 30.0000000  0  9G02G26G15G12G05G29G21G30G25
 116032402.641 7  90415021.77945  22080211.508                    22080216.191
 119465343.287 7  93089944.73945  22733499.016                    22733506.902
 124039720.264 7  96654392.328 6  23603977.922                    23603986.305
 117065512.633 7  91219950.113 7  22276826.922                    22276833.375
 109351890.753 8  85209344.133 7  20808944.898                    20808951.230
 114091981.019 8  88902894.869 7  21710978.102                    21710985.203
 131492296.567 6 102461581.19242  25022156.039                    25022164.934
 115723654.203 7  90174349.86645  22021478.664                    22021486.066
 114387126.234 8  89132885.948 7  21767145.570                    21767154.684
 11  8 16  3  1  0.0000000  0  9G02G26G15G12G05G29G21G30G25
 116076409.943 8  90449313.17045  22088586.328                    22088590.664
 119379564.582 7  93023104.23745  22717175.813                    22717183.492
 123943225.271 7  96579201.537 6  23585615.242                    23585623.117
 117148289.583 7  91284451.637 7  22292578.844                    22292585.520
 109404084.409 8  85250014.522 7  20818877.359                    20818883.285
 114018597.488 8  88845712.941 7  21697013.430                    21697020.477
 131435583.482 6 102417389.33542  25011364.750                    25011372.660
 115777232.514 8  90216099.20545  22031674.547                    22031681.969
 114419435.795 8  89158062.229 7  21773294.344                    21773303.266
 11  8 16  3  1 30.0000000  0  9G02G26G15G12G05G29G21G30G25
 116120505.807 7  90483673.56645  22096977.320                    22096982.441
 119294053.358 7  92956472.15145  22700903.766                    22700911.352
 123846754.861 7  96504029.905 6  23567256.727                    23567264.891
 117231333.014 7  91349160.791 7  22308381.547                    22308387.922
 109456681.936 8  85290999.606 7  20828886.211                    20828892.484
 113945413.398 8  88788686.393 7  21683087.078                    21683094.234
 131378873.922 6 102373200.20942  25000572.797                    25000580.605
 115831247.244 7  90258188.61745  22041953.148                    22041960.227
 114452254.542 8  89183635.280 7  21779539.469                    21779548.539
 11  8 16  3  2  0.0000000  0  9G02G26G15G12G05G29G21G30G25
 116164690.820 8  90518103.45045  22105385.828                    22105390.219
 119208813.391 7  92890051.45645  22684682.891                    22684690.242
 123750312.136 7  96428879.824 6  23548904.758                    23548912.813
 117314640.261 7  91414075.518 7  22324234.648                    22324241.176
 109509681.601 8  85332298.058 7  20838971.914                    20838978.340
 113872431.466 8  88731817.393 7  21669199.180                    21669206.055
 131322167.567 6 102329013.62442  24989782.000                    24989789.965
 115885695.923 7  90300616.17445  22052314.219                    22052321.414
 114485580.901 8  89209603.884 7  21785881.125                    21785890.094
 11  8 16  3  2 30.0000000  0  9G02G26G15G12G05G29G21G30G25
 116208964.849 8  90552602.69945  22113810.516                    22113815.180
 119123848.183 7  92823844.86344  22668514.406                    22668521.109
 123653899.883 7  96353753.492 6  23530558.469                    23530565.848
 117398208.113 7  91479193.327 7  22340137.219                    22340143.520
 109563080.402 8  85373907.514 7  20849133.250                    20849139.391
 113799653.598 8  88675107.391 7  21655349.703                    21655356.602
 131265463.824 6 102284829.02843  24978991.398                    24978999.551
 115940575.685 7  90343379.62245  22062757.711                    22062765.016
 114519412.810 8  89235966.408 7  21792319.086                    21792328.340
 11  8 16  3  3  0.0000000  0  9G02G26G15G12G05G29G21G30G25
 116253328.224 7  90587171.55945  22122252.711                    22122257.227
 119039161.271 7  92757855.09044  22652398.797                    22652405.863
 123557521.140 7  96278653.263 6  23512217.953                    23512225.465
 117482033.536 7  91544511.814 7  22356088.031                    22356095.188
 109616876.286 8  85415826.400 7  20859370.328                    20859376.566
 113727082.126 8  88618558.223 7  21641539.891                    21641546.445
 131208762.099 6 102240645.95842  24968201.094                    24968209.266
 115995883.762 7  90386476.82145  22073282.586                    22073289.703
 114553748.326 8  89262721.365 7  21798852.711                    21798862.137
 11  8 16  3  3 30.0000000  0  9G02G26G15G12G05G29G21G30G25
 116297781.371 8  90621810.39045  22130711.750                    22130716.188
 118954757.175 7  92692085.72444  22636337.047                    22636344.230
 123461179.266 7  96203581.749 6  23493884.664                    23493892.219
 117566114.135 7  91610029.168 7  22372088.008                    22372094.730
 109671067.539 8  85458053.352 7  20869682.547                    20869688.805
 113654719.675 8  88562171.925 7  21627769.766                    21627776.699
 131152062.128 6 102196464.21642  24957411.070                    24957419.043
 116051617.824 7  90429905.97745  22083888.180                    22083895.586
 114588586.048 8  89289867.656 7  21805481.656                    21805491.277
 11  8 16  3  4  0.0000000  0  9G02G26G15G12G05G29G21G30G25
 116342324.353 7  90656519.22445  22139188.117                    22139192.359
 118870638.972 7  92626539.12844  22620329.609                    22620337.133
 123364877.081 7  96128541.164 6  23475558.750                    23475566.445
 117650446.509 7  91675742.686 7  22388136.359                    22388143.121
 109725651.481 8  85500586.297 7  20880069.328                    20880075.418
 113582568.523 8  88505950.276 7  21614040.078                    21614046.883
 131095363.334 6 102152283.48742  24946622.188                    24946629.996
 116107774.924 7  90473664.74445  22094575.148                    22094582.527
 114623923.878 8  89317403.619 7  21812206.641                    21812215.863
 11  8 16  3  4 30.0000000  0  9G02G26G15G12G05G29G21G30G25
 116386957.204 7  90691298.08045  22147680.984                    22147685.320
 118786810.432 7  92561218.22844  22604378.203                    22604384.965
 123268617.292 7  96053533.626 6  23457241.023                    23457248.844
 117735027.562 7  91741649.991 7  22404231.445                    22404237.363
 109780625.468 8  85543423.176 7  20890530.680                    20890536.969
 113510630.702 8  88449894.860 7  21600350.680                    21600357.762
 131038664.983 6 102108103.07643  24935832.117                    24935839.727
 116164351.954 7  90517750.77045  22105340.961                    22105348.133
 114659759.426 8  89345327.432 7  21819025.930                    21819035.492
 11  8 16  3  5  0.0000000  0  9G02G26G15G12G05G29G21G30G25
 116431680.154 7  90726147.13245  22156191.625                    22156196.242
 118703275.069 7  92496125.78644  22588482.117                    22588489.313
 123172402.955 7  95978561.486 6  23438932.305                    23438939.895
 117819853.854 7  91807748.402 7  22420373.125                    22420379.625
 109835986.826 8  85586561.899 7  20901065.305                    20901072.105
 113438908.211 8  88394007.243 7  21586702.398                    21586708.328
 130981966.175 6 102063922.35443  24925042.164                    24925050.270
 116221346.247 7  90562161.89745  22116186.719                    22116193.797
 114696090.896 8  89373637.668 7  21825939.781                    21825948.984
 11  8 16  3  5 30.0000000  0  9G02G26G15G12G05G29G21G30G25
 116476493.382 7  90761066.53245  22164719.430                    22164723.586
 118620036.606 7  92431264.67745  22572642.180                    22572649.102
 123076237.034 7  95903627.081 6  23420632.711                    23420639.934
 117904922.640 7  91874035.759 7  22436561.508                    22436568.145
 109891733.487 8  85630000.873 7  20911673.680                    20911680.301
 113367403.796 8  88338289.531 7  21573095.258                    21573102.297
 130925266.681 6 102019741.02043  24914253.094                    24914260.402
 116278754.904 7  90606895.92545  22127110.898                    22127118.289
 114732916.253 8  89402332.764 7  21832947.320                    21832956.625
 11  8 16  3  6  0.0000000  0  9G02G26G15G12G05G29G21G30G25
 116521396.951 8  90796056.31145  22173264.148                    22173268.637
 118537098.536 7  92366637.66645  22556859.664                    22556866.621
 122980122.350 7  95828732.614 6  23402342.477                    23402349.633
 117990230.427 7  91940509.354 7  22452794.547                    22452801.570
 109947863.149 8  85673738.269 7  20922355.094                    20922361.609
 113296119.342 8  88282743.238 7  21559530.344                    21559536.691
 130868565.778 6 101975558.58843  24903463.328                    24903470.828
 116336574.928 7  90651950.50045  22138113.547                    22138121.395
 114770233.197 8  89431410.891 7  21840048.359                    21840057.563
 11  8 16  3  6 30.0000000  0  9G02G26G15G12G05G29G21G30G25
 116566391.281 8  90831116.81445  22181826.453                    22181830.945
 118454464.175 7  92302247.29245  22541134.578                    22541141.910
 122884061.533 7  95753880.099 6  23384062.516                    23384070.070
 118075774.444 7  92007167.016 7  22469073.594                    22469080.102
 110004372.923 8  85717771.869 7  20933108.594                    20933114.395
 113225056.966 8  88227369.971 7  21546007.547                    21546014.563
 130811862.750 6 101931374.45643  24892673.219                    24892680.547
 116394803.324 7  90697323.25645  22149194.344                    22149201.305
 114808039.617 8  89460870.456 7  21847242.977                    21847252.043
 11  8 16  3  7  0.0000000  0  9G02G26G15G12G05G29G21G30G25
 116611476.579 7  90866248.21145  22190406.250                    22190410.832
 118372138.128 7  92238097.17045  22525468.609                    22525476.059
 122788058.346 7  95679072.525 6  23365793.586                    23365801.531
 118161552.443 7  92074006.999 7  22485396.258                    22485402.992
 110061261.131 7  85762100.341 7  20943933.977                    20943939.836
 113154219.520 8  88172172.000 7  21532527.953                    21532534.027
 130755157.417 6 101887188.60643  24881882.445                    24881889.711
 116453437.850 7  90743012.51245  22160351.711                    22160359.344
 114846334.050 8  89490710.272 7  21854529.992                    21854538.887
 11  8 16  3  7 30.0000000  0  9G02G26G15G12G05G29G21G30G25
 116656653.049 8  90901450.64945  22199002.867                    22199007.469
 118290123.588 7  92174189.79344  22509861.219                    22509868.863
 122692115.470 7  95604311.945 6  23347536.648                    23347543.852
 118247560.578 7  92141026.308 7  22501763.180                    22501770.352
 110118525.263 8  85806721.747 7  20954830.781                    20954836.969
 113083609.478 8  88117151.212 7  21519091.219                    21519097.738
 130698449.344 6 101843000.65343  24871090.547                    24871098.559
 116512475.371 7  90789015.78145  22171586.203                    22171593.918
 114885114.183 8  89520928.559 7  21861909.320                    21861918.531
 11  8 16  3  8  0.0000000  0  9G02G26G15G12G05G29G21G30G25
 116701920.900 8  90936724.29645  22207616.570                    22207621.469
 118208424.110 7  92110527.90445  22494314.281                    22494322.547
 122596235.930 7  95529600.677 6  23329291.313                    23329297.969
 118333795.350 7  92208222.219 7  22518173.133                    22518180.027
 110176162.442 7  85851633.846 7  20965798.836                    20965805.031
 113013228.442 8  88062308.874 7  21505698.242                    21505704.746
 130641737.517 6 101798809.71843  24860299.477                    24860306.949
 116571912.774 7  90835330.62845  22182897.031                    22182904.453
 114924377.612 8  89551523.447 7  21869381.289                    21869390.359
 11  8 16  3  8 30.0000000  0  9G02G26G15G12G05G29G21G30G25
 116747280.733 8  90972069.62645  22216248.789                    22216253.590
 118127043.863 7  92047114.77045  22478828.367                    22478835.563
 122500422.847 7  95454941.225 6  23311057.922                    23311065.418
 118420254.507 7  92275592.992 7  22534625.484                    22534633.023
 110234171.125 8  85896835.427 7  20976837.430                    20976843.629
 112943079.353 8  88007647.276 7  21492349.188                    21492355.734
 130585021.894 6 101754615.81343  24849505.898                    24849513.863
 116631747.692 7  90881955.24345  22194283.055                    22194290.027
 114964122.774 8  89582493.706 7  21876944.492                    21876953.813
 11  8 16  3  9  0.0000000  0  9G02G26G15G12G05G29G21G30G25
 116792732.357 8  91007486.49145  22224898.039                    22224902.711
 118045985.762 7  91983952.64945  22463403.430                    22463410.789
 122404679.111 7  95380335.819 6  23292838.820                    23292846.426
 118506934.683 7  92343135.963 7  22551120.180                    22551127.070
 110292547.863 8  85942323.795 7  20987946.289                    20987952.723
 112873164.008 8  87953167.810 7  21479044.328                    21479051.188
 130528301.720 6 101710418.40243  24838712.680                    24838720.527
 116691976.705 7  90928886.94445  22205744.367                    22205751.926
 115004346.976 8  89613837.240 7  21884598.758                    21884608.191
 11  8 16  3  9 30.0000000  0  9G02G26G15G12G05G29G21G30G25
 116838276.725 7  91042975.61545  22233564.820                    22233569.121
 117965254.260 7  91921045.03145  22448040.742                    22448047.965
 122309007.994 7  95305786.995 6  23274633.273                    23274640.223
 118593833.000 7  92410848.913 7  22567656.617                    22567663.910
 110351291.511 8  85988098.067 7  20999124.820                    20999130.832
 112803485.748 8  87898873.082 7  21465784.945                    21465791.980
 130471576.621 6 101666217.07942  24827917.414                    24827925.398
 116752597.558 7  90976123.96445  22217279.828                    22217286.973
 115045048.752 8  89645552.910 7  21892344.203                    21892353.438
 11  8 16  3 10  0.0000000  0  9G02G26G15G12G05G29G21G30G25
 116883913.474 7  91078536.72845  22242248.633                    22242253.820
 117884852.667 7  91858394.47745  22432740.703                    22432748.125
 122213412.558 7  95231297.139 6  23256441.383                    23256448.668
 118680946.319 7  92478729.396 7  22584233.711                    22584240.375
 110410398.996 8  86034155.853 7  21010372.602                    21010378.707
 112734046.148 8  87844764.339 7  21452571.414                    21452577.813
 130414846.176 6 101622011.58643  24817122.375                    24817129.855
 116813606.933 7  91023663.72745  22228890.539                    22228896.953
 115086225.601 8  89677638.766 7  21900179.742                    21900188.824
 11  8 16  3 10 30.0000000  0  9G02G26G15G12G05G29G21G30G25
 116929642.797 7  91114169.97445  22250950.930                    22250955.645
 117804784.495 7  91796003.72545  22417504.516                    22417511.957
 122117895.543 7  95156868.376 6  23238265.094                    23238272.609
 118768271.249 7  92546774.774 7  22600851.328                    22600858.109
 110469867.701 8  86080495.110 7  21021689.109                    21021695.344
 112664847.389 8  87790843.247 7  21439403.016                    21439409.957
 130358109.564 6 101577801.36242  24806326.680                    24806332.863
 116875001.643 7  91071503.78245  22240573.203                    22240580.047
 115127875.033 8  89710092.864 7  21908105.188                    21908114.762
 11  8 16  3 11  0.0000000  0  9G02G26G15G12G05G29G21G30G25
 116975465.041 7  91149875.62045  22259670.234                    22259674.895
 117725053.359 7  91733875.60845  22402332.125                    22402339.262
 122022460.071 7  95082503.180 6  23220104.445                    23220111.387
 118855805.078 7  92614982.928 7  22617508.195                    22617514.879
 110529695.287 7  86127114.010 7  21033073.898                    21033079.965
 112595892.132 8  87737111.918 7  21426281.609                    21426288.367
 130301366.077 6 101533585.77742  24795528.328                    24795534.840
 116936778.910 7  91119641.90245  22252328.938                    22252335.926
 115169994.966 8  89742913.591 7  21916120.375                    21916129.535
 11  8 16  3 11 30.0000000  0  9G02G26G15G12G05G29G21G30G25
 117021380.478 7  91185653.87045  22268407.953                    22268412.625
 117645662.434 7  91672012.58445  22387224.688                    22387231.750
 121927108.783 7  95008203.542 6  23201959.313                    23201966.688
 118943544.289 7  92683351.130 7  22634204.844                    22634211.418
 110589879.030 8  86174010.444 7  21044526.359                    21044532.367
 112527182.129 8  87683571.676 7  21413206.258                    21413212.902
 130244615.214 6 101489364.44743  24784728.945                    24784735.406
 116998935.571 7  91168075.67345  22264156.727                    22264163.383
 115212582.897 8  89776098.995 7  21924224.609                    21924234.273
 11  8 16  3 12  0.0000000  0  9G02G26G15G12G05G29G21G30G25
 117067389.300 7  91221504.90545  22277163.109                    22277167.953
 117566615.965 7  91610417.96745  22372182.383                    22372189.785
 121831845.202 7  94933972.271 6  23183831.703                    23183838.559
 119031486.198 7  92751877.277 7  22650939.344                    22650946.008
 110650417.045 7  86221182.928 7  21056046.555                    21056052.680
 112458719.955 8  87630224.559 7  21400178.188                    21400185.090
 130187856.641 6 101445137.13542  24773926.961                    24773935.035
 117061468.941 7  91216802.97245  22276056.836                    22276063.848
 115255636.941 8  89809647.590 7  21932417.734                    21932427.293
 11  8 16  3 12 30.0000000  0  9G02G26G15G12G05G29G21G30G25
 117113492.035 7  91257429.11445  22285936.203                    22285940.895
 117487917.545 7  91549094.57645  22357206.266                    22357214.309
 121736672.469 7  94859811.798 6  23165720.789                    23165727.691
 119119627.791 7  92820559.012 6  22667712.125                    22667718.301
 110711306.778 8  86268629.484 7  21067633.406                    21067639.480
 112390508.446 8  87577072.770 7  21387198.227                    21387204.637
 130131089.891 6 101400903.41443  24763125.891                    24763132.563
 117124376.075 7  91265821.52945  22288027.523                    22288034.297
 115299154.886 8  89843557.691 7  21940698.680                    21940708.680
 11  8 16  3 13  0.0000000  0  9G02G26G15G12G05G29G21G30G25
 117159688.651 8  91293426.48445  22294726.953                    22294731.773
 117409570.673 7  91488045.11045  22342297.547                    22342304.898
 121641593.230 7  94785724.157 6  23147627.594                    23147634.375
 119207965.726 7  92889393.751 7  22684522.453                    22684529.086
 110772545.656 8  86316348.093 7  21079286.430                    21079292.832
 112322549.620 8  87524117.865 7  21374265.906                    21374272.617
 130074314.494 6 101356662.94842  24752321.539                    24752328.477
 117187653.830 7  91315128.86645  22300068.938                    22300075.578
 115343134.205 8  89877827.291 7  21949067.953                    21949077.168
 11  8 16  3 13 30.0000000  0  9G02G26G15G12G05G29G21G30G25
 117205979.774 8  91329497.48745  22303536.055                    22303540.262
 117331578.889 7  91427272.34145  22327456.078                    22327463.590
 121546610.468 7  94711711.694 6  23129552.914                    23129559.281
 119296496.952 7  92958379.107 6  22701369.531                    22701375.883
 110834131.206 8  86364336.833 7  21091006.094                    21091012.055
 112254845.869 8  87471361.729 7  21361382.313                    21361389.027
 130017529.798 6 101312415.20942  24741515.563                    24741522.484
 117251299.292 7  91364722.73745  22312180.125                    22312186.660
 115387572.759 8  89912454.745 7  21957524.250                    21957533.121
 11  8 16  3 14  0.0000000  0  9G02G26G15G12G05G29G21G30G25
 117252365.955 7  91365642.56845  22312363.211                    22312367.875
 117253945.900 7  91366779.14745  22312682.766                    22312690.445
 121451727.781 7  94637777.210 6  23111497.586                    23111504.383
 119385218.603 7  93027512.825 7  22718252.523                    22718259.555
 110896061.193 8  86412593.966 7  21102790.781                    21102797.191
 112187399.554 8  87418806.186 7  21348547.805                    21348553.949
 129960735.284 6 101268159.84943  24730707.023                    24730714.859
 117315309.559 7  91414600.87345  22324360.438                    22324367.953
 115432468.245 8  89947438.235 7  21966067.617                    21966076.813
 11  8 16  3 14 30.0000000  0  9G02G26G15G12G05G29G21G30G25
 117298846.935 7  91401861.51145  22321208.227                    22321212.828
 117176675.622 7  91306568.57245  22297978.977                    22297985.762
 121356948.392 7  94563923.212 6  23093461.469                    23093468.691
 119474127.819 7  93096792.727 6  22735171.602                    22735178.391
 110958333.302 8  86461117.694 7  21114641.078                    21114647.160
 112120213.250 8  87366453.253 7  21335762.742                    21335769.586
 129903930.892 6 101223896.78643  24719898.039                    24719904.941
 117379681.678 7  91464760.95545  22336610.258                    22336617.520
 115477818.477 8  89982776.086 7  21974697.445                    21974706.766
